GFSMW_925_thetae_000.txt.gz
Theta_e
321 320 320 321 322 324 325 325 326 328 330 332 333 332 332 332 331 331 331 330 329 328 327 327 327 327 325 324 324 323 322 322 321 321 320 321 320 320 319 317 315 313 312
317 317 316 317 318 320 323 325 326 327 328 330 331 331 331 331 331 331 331 330 330 330 329 329 329 328 327 326 325 325 324 323 322 321 321 321 320 319 318 317 315 314 312
316 316 315 315 315 318 319 321 323 325 327 329 330 331 330 330 330 331 331 330 330 330 330 330 330 329 329 328 327 326 325 324 323 322 321 322 321 318 316 315 314 314 315
317 316 316 315 315 316 317 318 320 321 323 326 328 329 330 329 329 329 330 330 330 330 330 331 330 330 330 329 329 328 326 325 325 323 320 321 320 321 321 319 318 317 316
319 319 317 315 315 315 315 315 315 316 318 321 325 328 328 328 328 328 328 328 329 330 330 330 330 330 330 330 329 329 327 326 324 323 322 317 316 316 317 322 321 319 318
320 318 316 316 315 315 315 316 315 316 317 318 320 324 326 327 327 328 328 328 328 328 328 330 330 330 329 329 329 328 328 326 323 322 322 322 321 319 313 316 319 320 319
320 318 316 315 314 313 313 313 315 316 319 321 323 323 325 327 327 328 328 329 329 329 328 328 329 329 329 329 329 328 327 325 323 322 322 322 322 322 318 319 320 321 319
319 317 315 314 313 312 312 312 312 313 314 317 321 324 325 327 327 328 328 329 329 330 330 329 329 329 328 328 328 327 327 325 323 322 322 322 322 322 323 320 320 322 320
318 316 314 313 313 312 312 312 312 312 312 312 313 317 321 324 326 327 327 328 329 329 330 330 329 329 329 328 328 327 327 326 325 323 322 322 323 323 323 323 321 322 324
316 314 314 313 313 312 312 312 312 312 311 311 312 313 313 315 318 321 323 325 326 326 327 328 329 329 328 329 328 328 327 327 326 324 323 322 323 323 322 321 321 320 321
314 314 314 313 313 313 313 313 313 313 313 312 312 312 313 313 314 315 317 319 320 322 323 324 325 326 327 327 328 328 327 327 327 326 324 324 323 323 322 320 318 317 317
314 315 314 314 314 313 313 313 313 313 313 312 312 313 312 312 313 313 314 315 316 317 319 321 323 324 325 326 326 327 327 327 327 326 326 325 324 323 323 320 318 318 317
316 316 315 314 314 314 313 313 313 313 313 313 313 313 313 313 313 313 312 312 313 315 316 318 319 321 323 324 325 325 326 326 327 326 325 325 325 324 323 322 320 318 317
315 315 316 316 315 314 314 313 313 312 313 312 313 313 313 312 312 312 313 312 312 313 313 315 316 318 320 322 324 325 326 326 326 326 326 325 325 324 324 322 321 320 319
315 314 313 313 313 314 313 313 312 312 312 312 312 312 312 312 311 312 312 312 313 313 313 313 314 316 318 320 322 324 325 325 325 326 325 325 324 324 324 322 320 320 321
312 313 313 313 313 314 313 312 312 311 311 311 311 311 311 311 311 311 312 312 312 313 313 314 314 314 317 318 320 321 323 324 324 324 325 324 324 323 323 322 322 320 319
311 312 313 314 314 314 310 310 310 310 310 309 310 309 309 309 309 309 310 311 312 312 312 313 313 314 314 315 317 319 321 322 323 324 324 324 323 322 321 321 320 320 319
311 312 313 314 313 308 307 306 306 306 307 308 306 306 305 305 306 307 307 308 309 310 311 312 312 312 313 314 314 317 320 321 321 322 323 324 324 322 320 318 316 316 315
312 313 309 306 305 304 303 302 303 303 304 304 303 302 302 303 303 304 305 305 306 307 308 309 310 311 312 312 312 313 317 319 320 321 322 323 323 323 318 317 310 305 304
306 304 302 301 300 300 299 299 301 301 302 300 300 300 300 301 301 302 302 303 304 305 306 307 309 310 310 311 312 312 315 318 319 320 320 321 322 322 317 314 305 299 297
303 300 299 299 298 296 295 296 296 297 296 295 295 296 296 297 297 298 300 301 302 303 304 305 307 308 309 309 310 309 311 315 317 318 319 319 319 320 315 313 309 305 295
299 297 297 296 295 295 294 294 294 294 294 293 294 294 293 294 295 295 297 299 300 301 302 303 304 305 306 307 306 307 308 309 313 316 317 317 318 316 313 307 304 299 295
296 295 294 293 293 292 291 291 291 290 291 291 291 291 291 292 293 293 293 297 298 299 299 300 302 302 303 304 304 304 307 306 309 311 314 316 316 311 305 303 300 296 291
292 292 291 290 290 288 288 288 288 289 289 290 290 290 289 290 291 291 291 293 294 296 297 298 298 300 301 301 303 302 301 303 306 308 311 311 308 304 300 298 295 291 290
290 289 288 288 287 287 287 287 287 287 288 288 288 289 288 289 290 290 290 291 292 294 295 296 296 298 298 299 299 299 300 301 303 304 303 302 299 297 297 293 289 289 289
288 287 286 286 286 286 286 286 286 286 286 287 287 287 288 288 289 289 289 290 291 293 292 293 295 295 295 296 297 298 300 302 304 301 300 297 296 295 292 290 289 288 287

GFSMW_925_thetae_003.txt.gz
Theta_e
320 319 320 321 322 323 325 326 326 326 329 332 333 334 333 333 333 333 332 332 331 330 329 328 328 329 327 325 326 325 325 325 324 323 323 323 321 321 321 321 320 319 316
319 318 318 318 317 319 321 323 325 326 327 330 331 333 333 333 333 332 332 332 332 331 331 330 329 330 330 329 327 326 327 326 325 324 323 323 322 321 322 322 321 320 319
320 319 319 318 318 319 319 320 322 325 327 328 330 331 332 332 332 332 332 332 332 332 331 331 331 331 331 331 330 329 328 327 326 325 324 323 323 321 320 319 317 316 315
320 320 320 318 318 318 318 319 320 322 324 327 328 330 332 333 332 332 332 332 332 332 331 331 332 332 332 332 332 331 329 328 327 327 324 323 322 323 323 319 318 316 316
320 319 319 318 317 318 319 319 318 318 320 322 325 328 330 332 332 331 330 330 331 332 332 332 332 333 333 333 332 332 331 330 329 328 326 324 323 323 323 323 321 320 319
320 319 318 318 317 317 316 316 317 319 321 321 320 321 325 327 328 328 328 329 329 330 331 331 332 333 333 333 333 333 332 330 329 329 328 324 321 319 319 320 320 320 320
320 318 319 318 317 317 316 315 316 315 316 318 322 325 325 325 326 328 328 328 329 330 330 330 331 332 333 333 333 333 333 332 331 330 328 326 325 323 321 319 320 321 320
320 318 318 318 317 316 316 316 316 315 315 315 315 317 321 325 327 328 328 329 330 330 331 331 330 330 332 332 332 332 332 332 331 330 328 326 324 324 323 322 319 321 321
318 317 317 317 316 316 316 317 317 317 316 315 315 315 315 315 318 321 323 326 327 329 329 330 331 331 331 331 331 331 331 331 331 330 328 326 325 324 323 323 323 321 323
318 317 317 317 316 316 316 316 316 316 316 315 315 315 315 314 315 315 316 317 319 320 323 325 327 329 330 331 331 331 330 330 330 330 328 326 325 325 324 323 323 323 322
318 317 317 316 316 316 316 316 315 316 316 315 315 315 315 315 315 315 314 314 315 316 317 318 320 322 324 327 329 329 330 330 330 330 329 328 326 325 324 324 323 323 323
317 317 317 316 316 316 316 315 315 315 315 315 315 315 315 315 315 315 315 315 314 314 314 315 316 317 319 322 324 326 327 328 329 329 329 328 326 326 325 324 324 323 322
317 317 317 317 316 316 316 315 314 314 313 314 314 314 314 314 314 314 314 314 314 314 314 314 314 315 316 318 320 323 325 326 327 328 328 328 328 326 325 325 324 323 321
316 316 316 315 314 314 315 314 313 313 313 313 313 313 313 313 313 313 313 313 313 313 314 315 315 315 315 316 317 319 321 323 325 326 327 327 327 327 326 325 324 323 321
316 315 314 313 312 312 314 314 314 313 312 312 312 312 311 311 310 310 311 311 312 313 314 314 314 315 315 315 315 317 319 320 322 324 325 326 326 326 326 325 325 324 322
314 313 312 312 312 313 314 312 312 310 309 309 309 309 308 308 307 307 308 308 309 310 311 312 313 314 315 315 315 314 315 316 319 320 322 324 324 324 325 325 324 324 322
313 311 311 311 313 313 311 309 307 305 306 306 307 306 305 305 305 305 306 306 307 307 308 309 310 311 312 313 314 313 313 314 315 318 320 321 322 324 323 323 324 323 322
311 311 312 311 309 308 306 304 303 304 304 304 304 303 303 303 303 303 303 303 304 306 306 307 308 309 310 311 312 312 312 313 314 316 317 319 320 321 323 322 322 319 319
311 310 308 307 305 304 302 300 299 300 300 300 299 298 298 299 299 300 299 300 302 303 304 305 306 307 308 309 310 310 310 311 313 314 315 316 319 319 321 321 320 318 316
307 305 303 301 301 300 298 297 297 297 298 297 296 296 296 297 297 297 298 298 298 301 302 303 304 305 306 306 307 306 307 307 309 310 312 313 315 317 319 320 318 308 304
304 301 300 299 298 296 296 295 294 294 293 293 293 293 294 294 294 294 296 296 296 297 300 301 301 301 300 301 303 303 304 306 306 308 307 310 312 315 317 319 318 312 302
300 298 297 296 294 293 292 291 291 290 290 290 291 291 292 292 292 292 293 294 294 295 297 298 298 298 298 298 299 300 303 302 302 303 303 306 307 309 314 317 316 308 298
296 294 293 292 291 290 289 288 289 288 288 288 289 289 289 290 290 290 291 292 293 293 294 295 295 295 295 296 297 298 298 299 299 300 301 303 305 307 310 313 310 301 295
292 290 290 289 288 288 287 287 287 287 287 287 287 288 288 288 289 289 290 291 291 291 293 292 294 294 294 295 296 295 295 296 297 299 300 301 302 304 307 306 300 296 294
289 289 288 287 287 287 286 286 286 286 286 286 287 287 287 287 287 288 288 290 289 290 290 291 293 292 294 295 295 294 294 295 297 299 301 302 302 300 300 299 294 292 292
288 287 287 286 286 286 286 286 286 286 286 286 286 286 286 287 287 287 288 288 288 289 289 290 290 292 293 293 293 292 293 294 297 301 303 301 298 297 297 292 291 291 291

GFSMW_925_thetae_006.txt.gz
Theta_e
315 318 318 319 318 318 320 326 327 329 330 330 332 334 334 334 334 334 333 332 331 329 328 327 327 327 326 324 324 324 324 324 323 323 323 323 322 321 320 319 319 319 319
316 316 318 318 318 319 319 319 322 326 328 330 332 333 334 334 333 333 333 333 332 332 330 329 328 328 328 328 325 325 325 325 324 324 322 322 322 322 322 321 320 320 320
317 316 316 318 318 319 318 319 320 321 325 327 330 331 333 333 333 333 333 333 333 332 332 331 330 329 328 328 329 326 325 325 326 325 324 322 322 316 320 320 320 321 321
316 317 317 317 318 318 318 318 318 320 322 324 327 329 330 331 332 332 332 332 332 333 332 332 332 331 330 330 330 330 328 327 326 326 325 324 322 321 320 320 320 320 319
316 317 317 318 317 316 316 316 318 319 319 319 320 322 327 330 330 331 332 331 330 331 332 332 332 331 331 331 331 331 330 330 328 327 326 325 324 323 322 323 321 319 319
316 316 318 317 317 316 316 316 315 315 315 318 322 323 322 322 322 324 326 327 327 329 330 331 332 331 331 332 332 332 332 331 330 328 328 327 325 324 323 322 322 321 321
316 316 317 316 317 316 317 317 316 316 315 315 315 315 316 319 324 326 327 328 328 329 329 330 330 331 331 332 332 332 332 332 331 329 328 328 327 325 323 322 321 320 320
315 316 316 316 316 317 317 316 316 316 315 315 315 315 315 315 315 315 316 317 320 323 325 328 330 330 330 331 332 332 333 332 332 331 330 329 328 327 326 323 321 322 321
315 316 316 316 316 316 316 316 316 316 315 315 315 315 315 315 315 315 315 315 315 315 316 317 319 323 327 330 330 331 331 332 332 331 331 331 330 328 326 325 324 323 324
315 315 315 316 316 316 316 315 315 315 315 315 315 315 315 315 315 315 315 315 315 314 314 314 315 316 317 320 323 328 330 330 330 330 330 330 330 329 326 325 324 323 323
315 315 315 316 316 316 316 315 315 314 314 314 314 314 314 314 314 314 313 313 313 314 314 314 314 314 314 315 317 319 322 326 328 329 329 329 329 328 326 325 324 323 323
315 315 315 316 316 316 316 314 313 313 313 313 313 313 313 313 312 313 313 313 313 313 313 313 313 314 314 314 314 315 317 320 322 324 326 326 326 327 327 326 324 324 323
316 315 314 315 314 314 315 314 313 314 313 313 313 312 312 312 311 311 310 310 310 310 311 312 313 313 314 314 314 315 315 316 318 320 321 322 324 325 326 326 326 324 323
315 314 313 310 312 311 313 314 313 313 312 311 310 310 310 309 308 307 307 307 307 308 308 309 309 310 311 313 313 314 314 314 315 316 317 319 321 323 324 325 325 325 324
315 312 310 309 310 312 314 312 311 309 306 306 306 307 308 306 305 305 304 305 305 306 306 306 307 308 309 310 311 310 311 312 312 313 314 315 317 319 321 323 324 324 324
312 311 310 308 311 312 311 309 307 305 305 305 304 305 304 304 303 303 303 303 303 303 303 304 305 305 307 307 307 309 310 310 311 312 312 313 315 317 318 320 322 323 323
311 309 309 310 309 308 308 305 303 301 302 302 301 301 299 298 299 299 299 300 299 299 301 301 303 304 304 305 307 307 307 308 308 309 310 311 314 315 316 318 318 320 322
310 309 308 307 306 305 304 300 299 298 298 298 298 297 296 296 296 296 296 296 296 298 297 298 301 302 303 304 303 303 303 303 305 306 306 308 310 311 314 315 316 317 319
307 306 305 303 302 301 298 297 297 296 296 295 293 294 294 294 294 294 294 293 294 295 295 295 297 300 301 299 299 298 300 301 302 304 304 305 305 306 308 310 313 313 317
305 302 301 300 299 297 296 295 294 293 292 290 290 290 291 291 291 291 291 291 292 292 293 293 295 297 297 296 295 296 298 298 300 299 298 301 302 303 304 306 308 312 313
301 299 298 297 295 294 293 291 290 289 289 288 288 288 289 289 289 289 289 290 289 291 291 292 293 293 294 293 294 294 296 298 296 295 296 297 300 300 301 302 304 305 310
299 296 295 293 292 290 289 288 288 288 287 287 287 287 287 287 287 288 288 288 288 289 291 291 291 292 290 292 293 293 295 295 294 294 294 295 297 298 300 301 303 304 307
294 292 291 290 289 288 288 287 287 287 286 286 286 286 286 286 286 287 287 287 287 288 289 289 289 289 289 291 291 293 294 294 293 293 294 295 297 299 300 301 302 304 304
291 290 289 288 287 287 287 286 286 286 286 286 286 286 286 286 286 286 286 286 286 288 288 288 288 288 289 289 291 292 293 292 291 293 294 298 300 302 302 302 303 305 299
289 288 287 287 287 286 286 285 285 285 285 285 285 285 285 285 285 285 285 286 287 287 288 288 288 288 289 290 291 292 291 291 291 294 296 297 296 298 299 298 295 294 294
288 287 287 286 286 285 285 285 285 285 285 285 285 284 285 285 285 285 285 285 286 286 287 287 288 288 289 288 290 290 290 290 292 293 295 294 294 294 295 294 291 291 290

GFSMW_925_thetae_009.txt.gz
Theta_e
313 316 317 317 318 318 318 318 322 327 327 329 330 332 332 333 333 333 333 332 331 330 329 327 326 326 326 326 325 322 322 323 323 322 321 322 322 322 322 321 320 319 319
314 314 316 316 317 318 318 318 319 320 326 327 328 330 332 333 333 334 334 333 333 333 332 330 329 327 326 326 326 324 322 322 323 322 321 322 323 322 322 321 321 321 320
315 314 314 315 316 316 318 318 317 319 322 326 329 330 332 333 333 333 333 333 333 333 333 332 331 329 327 326 326 326 324 323 323 323 323 323 322 314 320 321 321 321 320
314 314 314 315 316 315 315 316 318 319 320 320 321 327 329 329 330 331 331 332 332 332 332 332 332 332 330 328 327 327 327 324 325 324 323 324 323 321 321 320 320 319 319
314 314 314 316 316 315 315 315 315 315 316 320 321 321 322 323 324 324 325 325 326 326 327 328 331 332 331 331 330 329 328 328 327 326 326 324 324 324 323 324 322 321 322
313 313 315 316 316 316 316 316 315 315 315 314 315 315 315 315 315 316 316 317 319 322 324 325 327 331 331 331 331 330 330 330 329 329 328 326 324 324 323 324 323 322 322
313 314 313 314 315 315 316 315 315 315 315 315 315 315 315 314 314 314 314 314 314 314 314 315 316 318 327 330 330 330 330 331 331 330 330 329 327 326 326 324 324 324 322
313 314 313 314 315 315 315 315 315 315 315 314 314 314 315 315 314 314 314 314 314 314 314 314 314 314 314 317 325 329 330 331 330 331 331 330 329 328 327 326 325 325 323
313 314 313 314 315 315 315 315 315 314 314 314 314 313 313 314 313 313 313 312 311 311 311 311 312 313 314 314 314 315 319 324 327 328 329 329 329 329 328 328 327 325 326
313 312 312 314 315 315 315 314 313 313 313 313 313 313 313 312 312 312 312 311 309 309 309 309 310 311 312 313 314 314 314 315 316 321 324 325 326 327 328 328 327 327 325
313 312 312 315 315 315 313 313 313 313 313 312 312 312 312 311 310 309 308 307 307 307 308 308 309 309 311 312 312 313 313 314 315 315 317 319 321 323 324 325 326 326 325
312 312 312 314 314 313 313 313 313 312 311 310 310 309 309 309 307 306 305 305 305 305 306 306 307 307 308 308 310 311 312 312 313 314 315 317 318 319 319 322 323 324 324
313 312 311 310 309 312 312 312 310 308 307 306 306 306 307 305 304 304 303 303 303 304 304 305 305 305 306 306 308 308 309 308 310 311 312 313 314 315 315 317 319 321 322
313 311 308 307 310 311 310 310 308 306 305 304 304 303 304 302 301 300 300 300 300 301 301 301 300 302 304 304 306 305 305 307 309 309 310 310 311 312 313 314 315 317 318
311 309 306 306 309 309 308 306 304 303 302 301 301 301 298 298 297 297 297 297 297 298 298 297 299 298 300 303 302 304 306 307 307 307 305 306 308 308 309 312 314 315 316
309 307 309 307 306 306 304 301 299 299 298 298 298 297 296 295 295 295 295 295 295 295 295 296 296 296 300 298 301 303 301 300 299 300 302 304 305 306 307 309 310 313 314
309 309 306 305 304 303 299 298 297 297 296 296 294 293 293 293 293 293 293 293 293 292 292 295 293 295 295 296 299 298 296 296 296 300 299 302 302 300 303 304 305 307 309
306 304 302 302 301 298 298 297 296 295 294 293 291 290 290 290 290 290 290 290 290 290 291 290 291 292 292 295 297 294 294 295 295 298 298 299 295 296 299 302 303 302 304
303 301 300 300 298 297 296 295 294 292 290 289 289 288 288 288 288 288 288 288 288 289 288 289 290 290 291 293 292 291 293 294 294 296 297 294 293 295 296 298 299 300 301
301 300 299 298 296 294 294 292 290 289 288 288 288 287 287 287 287 287 287 287 287 287 287 287 288 290 290 291 289 289 293 292 293 295 294 293 293 293 295 297 297 298 299
299 298 297 295 293 292 290 288 288 287 287 287 286 286 286 286 286 286 286 286 286 286 286 286 287 288 288 287 287 289 290 291 293 293 293 292 292 293 295 297 299 300 300
297 295 293 292 290 288 288 287 286 286 286 286 286 285 285 285 285 285 285 285 285 285 285 286 287 287 287 287 288 289 290 291 292 292 292 291 291 294 296 298 301 302 302
294 291 290 289 288 287 287 286 286 285 285 285 285 285 285 285 285 285 285 285 285 285 285 286 286 287 287 287 288 289 289 290 290 290 290 291 293 295 295 295 296 298 297
290 289 288 287 287 286 286 285 285 285 285 285 285 284 284 284 284 284 284 284 284 285 286 286 287 287 287 287 288 288 289 289 289 289 290 292 292 293 293 293 294 293 293
288 288 287 286 286 285 285 285 285 285 285 284 284 284 284 284 284 284 283 284 284 285 286 286 286 286 287 287 288 289 288 288 289 289 290 290 290 291 291 292 292 292 292
287 287 286 286 285 285 285 285 284 285 284 284 284 283 284 284 283 283 283 284 284 285 285 285 286 286 286 287 287 287 287 288 287 288 288 287 288 290 290 291 291 291 290

GFSMW_925_thetae_012.txt.gz
Theta_e
313 314 315 316 317 317 318 318 319 322 325 327 328 329 329 331 332 332 332 332 332 331 329 328 328 328 326 326 325 324 323 321 321 320 320 320 321 321 320 320 320 321 320
313 312 314 314 315 316 317 317 318 321 323 325 328 329 330 330 330 331 332 333 333 333 333 332 331 330 328 327 325 324 323 321 322 321 321 323 323 323 322 322 321 320 319
314 312 312 313 314 313 314 315 318 320 320 325 327 328 330 331 332 331 331 331 331 332 331 332 332 331 330 328 327 325 324 323 324 322 322 324 325 316 321 321 321 321 321
313 312 312 313 313 314 314 314 314 315 316 319 320 321 321 322 322 323 322 322 323 324 324 325 327 329 330 328 328 327 326 324 324 325 323 323 324 325 326 324 321 321 321
313 313 312 314 314 315 315 314 314 314 314 314 314 314 314 314 314 314 314 314 314 314 314 314 315 317 325 328 328 327 327 326 326 326 326 324 322 323 324 326 324 323 323
313 312 313 315 314 315 315 315 314 314 314 314 314 314 314 314 314 313 313 313 313 313 313 313 313 313 315 319 326 328 329 328 328 328 328 327 325 325 324 325 325 324 324
312 312 311 313 314 314 314 315 314 313 313 313 313 314 313 313 312 312 311 311 310 309 308 308 308 308 310 312 313 315 321 327 328 328 328 328 328 327 327 326 327 327 325
311 312 311 313 314 314 314 314 313 313 313 312 313 312 312 312 311 311 310 309 307 307 307 306 306 306 306 306 309 311 312 314 318 320 323 324 324 326 328 327 327 328 327
312 312 311 313 314 314 312 312 312 312 312 312 312 312 311 310 309 307 306 305 304 305 304 305 306 306 306 306 308 309 310 311 312 313 314 318 319 321 323 324 325 327 328
311 311 311 313 314 312 312 312 312 312 311 310 309 309 309 307 306 305 304 303 303 303 303 304 305 305 305 305 306 307 308 310 311 311 312 313 314 316 318 320 321 322 323
311 311 311 313 312 311 312 312 310 308 308 307 306 306 306 305 304 303 301 301 301 301 302 303 303 303 303 303 305 305 306 308 307 307 309 310 311 312 313 315 316 317 318
310 310 310 310 310 311 311 309 307 307 305 305 304 304 303 302 301 299 298 298 298 298 299 299 299 298 300 302 302 303 305 303 304 306 308 309 309 309 310 311 312 313 314
311 309 306 307 310 310 309 306 305 304 303 303 302 302 299 298 297 296 295 295 295 296 296 296 295 296 298 296 299 303 300 302 304 306 307 306 305 305 306 308 308 309 310
311 307 304 307 309 308 306 303 302 301 300 299 299 297 296 295 293 292 291 291 292 293 293 292 292 295 294 294 299 297 300 303 302 303 299 298 301 302 304 305 306 308 310
309 306 307 306 307 305 302 301 300 299 298 297 296 294 292 290 290 290 290 290 290 290 291 290 290 293 290 293 293 294 297 301 297 296 295 296 299 298 302 302 298 302 305
306 309 306 304 303 302 300 299 298 297 295 295 292 290 289 288 288 288 288 288 288 289 288 289 289 289 289 292 291 293 296 293 293 293 293 294 296 298 299 294 295 298 301
308 306 303 302 301 299 298 297 296 294 292 290 289 288 288 287 287 287 287 287 287 287 287 288 287 287 289 289 291 294 292 290 290 292 292 292 294 296 293 293 294 296 296
305 303 301 300 299 297 296 295 293 290 289 288 287 287 287 286 286 286 286 286 286 286 286 286 286 286 286 288 290 291 288 288 289 291 291 292 294 294 293 293 294 294 294
301 300 300 299 297 294 293 291 289 288 287 287 286 286 286 286 285 285 285 285 285 285 285 285 285 285 286 288 288 288 288 289 289 290 291 293 292 292 293 292 292 293 294
300 299 299 296 293 290 289 288 287 287 286 286 286 285 285 285 285 285 285 285 285 285 285 285 285 285 286 287 287 288 288 289 289 290 291 290 290 291 291 292 292 294 295
299 297 295 292 289 288 288 287 286 286 285 285 285 285 285 285 284 284 284 284 284 284 284 284 284 285 286 286 287 288 289 289 289 289 289 289 289 290 291 292 293 296 295
295 293 291 289 288 287 287 286 285 285 285 285 285 285 284 284 284 284 284 284 284 284 284 284 285 285 286 286 287 288 288 289 289 289 288 288 289 290 291 291 293 294 293
292 290 290 289 287 287 286 285 285 285 285 285 285 284 284 284 284 284 283 283 283 283 283 284 285 285 285 286 286 287 288 288 288 288 288 288 288 289 289 290 291 291 290
289 289 288 287 286 286 285 285 284 284 284 284 284 284 283 284 283 283 283 283 282 283 284 285 285 285 285 286 286 287 287 287 287 287 287 287 287 287 287 288 289 290 290
288 287 286 286 285 285 285 284 284 284 284 284 283 283 283 283 283 283 282 282 283 284 285 285 285 285 285 285 286 286 286 288 286 285 286 285 285 285 286 287 288 289 289
287 286 285 285 284 284 284 284 284 284 283 283 283 283 283 283 283 282 282 282 283 284 284 284 284 284 284 285 285 285 287 286 284 284 284 284 284 285 286 286 287 288 289

GFSMW_925_thetae_015.txt.gz
Theta_e
311 312 313 314 315 316 317 318 319 322 323 325 327 327 328 328 329 329 329 329 330 329 328 328 328 328 326 327 325 324 323 322 322 319 320 320 320 321 320 321 320 320 320
311 311 312 312 313 313 315 317 319 321 324 323 326 328 329 329 329 329 329 330 330 330 330 329 329 329 328 327 326 325 323 322 322 322 322 323 324 323 323 322 321 322 322
312 311 311 312 312 313 313 314 315 317 319 325 326 328 329 325 321 319 318 317 318 317 317 317 318 321 325 326 326 325 324 323 324 323 322 324 326 320 324 323 322 322 322
312 311 311 311 312 313 313 313 314 314 314 314 315 314 314 314 313 313 313 313 313 313 313 312 313 313 314 318 324 326 325 324 323 324 324 322 324 326 328 325 324 322 321
312 312 311 312 313 313 313 313 313 314 314 314 314 314 313 313 312 312 312 311 309 308 307 306 306 306 307 309 310 313 322 325 325 325 326 326 323 322 323 326 325 325 323
311 311 312 313 313 313 313 313 313 313 313 313 313 313 312 312 311 310 309 307 306 306 305 305 305 305 306 305 306 307 309 311 318 322 323 324 325 326 325 325 325 324 324
311 311 311 311 312 312 313 313 312 312 312 312 312 311 311 310 308 306 305 304 304 304 303 303 304 304 305 304 304 305 306 307 310 311 315 318 319 320 321 322 321 323 324
310 310 310 311 312 312 312 312 312 311 311 311 311 310 309 307 306 305 304 303 302 302 302 302 302 302 302 302 303 305 305 306 307 309 310 311 313 316 317 319 319 319 319
310 310 310 312 311 311 311 311 311 310 310 309 308 308 306 306 304 303 301 300 299 299 299 300 300 300 299 299 301 303 303 304 306 308 307 306 309 311 312 313 315 316 317
310 309 310 311 310 310 311 311 310 308 307 306 306 305 304 303 301 300 298 297 297 297 296 297 297 297 297 298 299 300 301 303 304 302 303 305 307 308 308 309 309 311 313
310 309 309 310 310 311 310 308 307 306 305 305 304 303 301 299 298 295 293 292 292 293 293 294 294 292 294 297 294 295 299 301 299 301 303 304 307 306 304 303 304 306 308
309 309 308 308 310 309 307 306 305 304 303 302 302 299 297 295 293 291 290 290 290 290 290 291 290 290 291 294 291 293 297 294 298 300 302 304 299 298 298 300 300 304 304
309 308 306 307 308 307 305 303 302 301 300 299 298 296 293 290 289 289 288 288 288 288 288 288 288 289 290 291 289 294 292 293 294 300 299 295 295 295 298 297 298 302 302
310 306 306 306 307 305 303 301 300 298 297 297 294 292 289 288 288 287 287 287 287 287 287 287 287 287 288 287 289 291 291 293 294 292 292 293 293 293 295 297 298 296 294
307 305 306 304 304 302 300 298 297 296 295 293 290 288 288 287 287 286 286 286 286 286 286 286 286 286 286 287 289 290 291 293 290 289 288 289 291 291 292 294 297 295 294
306 307 305 302 302 300 298 297 295 293 292 289 288 287 287 286 286 286 286 286 285 285 285 285 285 285 285 286 288 290 291 290 288 287 288 290 289 290 292 294 294 294 294
307 305 302 301 300 297 296 294 292 289 288 288 287 286 286 286 285 285 285 285 285 285 284 284 285 285 285 286 288 289 289 288 287 288 288 288 289 290 292 291 291 292 292
304 301 300 299 297 295 294 292 289 288 287 286 286 286 285 285 285 285 284 284 284 284 284 284 284 284 284 285 287 288 287 287 288 288 288 289 289 290 289 290 290 290 290
301 300 299 297 295 294 292 289 287 286 286 285 285 285 285 285 284 284 284 284 284 283 283 284 284 284 284 285 286 287 287 287 288 288 288 289 289 289 289 289 290 290 290
300 298 297 295 294 289 288 287 286 285 285 285 285 285 285 284 284 284 284 283 283 283 283 283 283 283 284 284 286 287 287 288 288 288 289 288 288 288 289 289 289 291 292
298 297 296 290 288 287 287 286 285 285 285 285 285 285 284 284 284 283 284 283 283 282 282 282 283 283 284 285 285 286 287 287 288 288 287 287 287 288 288 288 289 289 291
295 294 291 288 287 286 286 285 285 285 284 284 284 284 284 283 283 283 283 283 282 282 282 282 283 284 284 284 285 286 286 287 287 287 287 287 287 286 287 286 286 288 290
292 290 289 288 286 286 285 285 284 284 284 284 284 283 283 283 283 283 283 282 282 282 282 282 283 284 284 284 284 285 286 286 286 286 288 285 285 285 284 284 286 287 287
290 289 288 287 286 285 285 284 284 284 284 283 283 283 283 283 283 283 282 282 281 282 282 283 284 284 284 284 284 285 285 285 286 287 285 283 283 283 283 283 284 285 286
289 287 286 285 285 284 284 284 284 283 283 283 283 282 282 283 282 282 282 282 282 282 284 284 284 283 283 284 285 285 285 285 287 285 283 282 282 282 282 283 283 284 285
287 285 285 284 284 284 284 284 283 283 283 282 282 282 282 283 282 281 281 281 282 283 283 283 283 283 283 283 284 284 284 285 284 283 282 282 282 282 282 282 283 284 284

GFSMW_925_thetae_018.txt.gz
Theta_e
310 311 311 312 315 316 318 319 322 322 321 323 325 325 326 327 327 327 328 328 328 328 328 328 327 326 326 326 325 323 322 322 321 319 321 321 322 323 323 324 322 322 322
311 310 311 312 312 312 314 316 318 324 324 324 326 327 328 322 318 316 317 316 315 315 314 313 314 315 317 319 322 324 323 323 323 321 322 324 325 325 325 324 324 323 322
311 310 310 310 312 312 312 313 314 316 321 324 325 324 317 314 313 312 312 311 311 310 309 309 308 308 308 309 310 316 321 322 323 324 322 325 326 325 325 325 324 323 322
311 310 310 310 311 312 313 313 313 313 313 314 314 313 312 311 310 309 308 307 307 306 305 305 305 305 305 305 305 306 308 312 319 322 323 322 322 323 324 324 324 325 324
310 311 310 311 311 312 312 312 313 313 313 313 313 312 311 310 308 307 306 305 304 304 303 303 303 303 303 303 303 303 304 306 309 313 316 317 318 320 322 322 321 320 322
310 310 311 311 311 311 311 312 312 311 311 311 311 310 309 307 306 305 304 303 303 302 302 301 301 301 301 300 301 302 303 304 304 306 308 311 313 314 315 315 315 316 317
309 309 309 309 310 311 311 311 311 310 310 310 309 307 306 305 304 303 302 301 300 300 299 299 298 298 298 297 299 300 300 300 303 304 306 308 309 309 310 312 312 313 313
308 309 309 309 309 310 311 310 310 310 309 308 307 306 305 304 302 300 299 298 297 296 295 295 294 293 292 294 298 297 296 299 301 304 301 302 303 305 308 309 310 310 309
309 309 309 309 309 310 310 310 309 307 306 306 305 304 302 301 299 297 295 293 292 291 291 290 291 289 289 290 296 294 292 295 300 297 299 300 302 303 306 307 305 305 305
309 308 308 308 308 310 309 308 306 305 304 304 303 301 299 297 295 293 291 290 290 289 289 289 288 288 288 288 293 290 289 295 293 292 297 298 301 302 301 297 299 300 301
309 308 307 308 309 308 306 305 305 304 303 302 300 298 296 293 291 289 288 288 288 288 287 288 287 287 287 287 290 288 290 292 290 292 294 299 299 294 294 294 297 297 296
308 307 306 307 308 305 304 303 302 301 299 299 297 294 291 289 288 288 287 287 287 287 286 286 286 286 286 287 287 287 290 290 291 292 293 292 292 292 292 293 293 294 295
308 306 305 306 305 303 301 300 299 298 298 296 293 290 288 288 287 287 286 286 286 286 286 286 285 285 286 286 286 287 288 289 290 292 290 288 288 288 290 291 291 292 294
308 305 305 305 304 301 299 298 297 296 295 292 290 288 287 287 286 286 286 286 286 285 285 285 285 285 285 285 286 287 288 289 290 289 287 287 287 288 290 289 290 292 294
306 307 305 302 301 299 297 297 295 294 291 289 288 287 286 286 286 286 285 285 285 285 285 284 284 284 284 285 287 288 288 288 288 287 287 287 288 288 289 290 291 291 291
305 306 303 301 299 297 296 295 293 291 289 287 286 286 286 286 285 285 285 285 284 284 284 284 284 284 284 285 286 287 288 287 287 287 287 287 287 288 289 289 289 290 290
306 304 302 300 297 296 296 294 290 289 287 286 286 286 285 285 285 284 284 284 284 284 283 283 283 283 283 284 286 287 287 287 287 287 287 287 288 288 288 288 289 289 289
304 301 299 297 296 295 293 290 288 287 286 286 285 285 285 284 284 284 284 284 283 283 283 283 283 283 283 284 285 286 286 286 286 287 287 287 288 288 288 288 289 289 289
300 299 299 296 294 292 290 288 287 286 285 285 285 285 284 284 284 284 283 283 283 282 282 282 282 282 282 283 285 286 286 286 286 287 287 288 287 286 287 289 288 288 288
299 297 296 294 292 288 287 287 286 285 285 284 284 284 284 284 283 283 283 283 282 282 282 282 282 282 282 283 285 285 285 286 286 286 287 286 286 287 288 287 287 287 285
297 295 294 290 288 287 287 286 285 284 284 284 284 284 284 283 283 283 283 283 282 281 281 281 281 282 283 284 284 285 285 285 286 287 285 285 286 288 285 285 285 285 286
295 293 290 288 287 286 286 285 284 284 284 284 284 283 283 283 283 283 283 282 282 281 281 281 281 282 283 283 283 284 285 285 286 285 285 285 286 284 284 284 284 284 285
292 291 289 287 286 285 285 284 284 284 284 283 283 283 283 283 283 283 282 282 281 281 281 281 282 283 283 283 283 283 285 285 285 285 286 284 284 283 282 282 283 283 282
290 289 287 286 285 285 284 284 284 283 283 283 283 282 282 282 282 282 282 281 281 280 281 282 283 283 283 283 283 284 284 284 284 286 284 283 282 281 281 281 281 281 282
288 287 286 285 284 284 284 284 283 283 283 282 282 282 282 282 282 281 281 281 281 282 283 283 283 283 283 283 284 284 284 284 285 283 282 281 281 281 280 280 280 281 281
286 285 285 284 284 284 284 284 283 282 282 282 281 281 282 282 281 281 280 281 281 282 282 282 282 282 282 283 283 283 283 284 282 281 281 281 280 280 280 280 280 280 281

GFSMW_925_thetae_021.txt.gz
Theta_e
311 310 310 312 314 316 318 322 323 322 323 324 325 325 325 322 320 320 319 317 316 314 313 312 312 312 315 316 317 319 320 321 322 322 321 322 323 323 323 324 323 322 322
312 310 310 311 311 313 315 318 322 325 326 326 327 320 316 313 312 311 310 309 308 308 307 306 306 306 306 306 307 311 312 315 317 320 321 323 322 322 323 323 323 323 323
313 311 310 310 311 311 312 313 314 319 324 319 317 314 313 311 309 307 306 305 305 304 304 304 303 303 303 305 305 306 307 308 309 311 315 319 320 321 319 320 322 322 323
312 311 310 310 310 311 312 312 313 313 313 313 313 312 310 308 306 305 304 304 304 303 302 302 302 301 302 303 303 303 305 306 307 307 309 309 310 313 315 312 315 315 318
312 312 310 310 310 311 311 312 312 312 312 311 311 309 306 305 304 304 304 303 303 301 300 299 298 298 300 300 300 301 302 303 303 305 306 307 308 309 313 312 311 310 311
312 311 310 309 309 310 310 310 310 309 309 308 307 306 305 304 303 302 301 300 300 298 295 294 294 295 295 296 297 299 299 299 301 302 304 306 305 305 307 309 309 310 309
312 311 311 309 309 309 310 309 309 308 307 306 305 304 303 302 301 299 298 297 296 295 292 291 292 292 291 292 293 296 295 294 296 300 303 299 300 300 302 305 306 307 307
312 311 310 309 309 309 309 309 308 306 305 305 303 302 301 299 297 295 293 292 292 293 290 289 290 289 288 290 290 294 291 290 295 299 294 294 296 298 301 303 305 301 303
311 311 309 308 308 308 308 306 305 305 304 302 301 299 297 295 293 291 290 289 289 290 288 288 288 288 287 288 289 291 289 290 294 291 291 293 296 299 298 299 296 298 298
310 310 309 307 307 308 306 305 304 303 301 300 298 296 294 292 290 289 288 288 288 287 287 287 287 287 287 287 288 288 288 289 290 290 291 293 294 293 293 293 292 293 296
311 310 308 306 307 305 304 303 301 301 299 297 296 295 292 290 288 288 287 287 287 286 286 286 286 286 286 286 287 286 287 288 289 289 290 292 290 289 289 288 290 292 292
310 309 307 306 304 302 302 300 299 299 297 295 294 290 289 288 288 287 286 286 286 286 285 285 285 285 285 286 285 286 287 288 288 289 290 290 288 287 287 288 289 290 290
309 307 306 306 303 300 299 298 297 297 294 292 290 288 287 287 286 286 286 286 285 285 285 285 285 284 285 285 285 286 287 288 288 288 289 288 287 287 287 288 289 290 290
309 307 307 304 301 298 297 296 296 294 292 290 289 288 287 286 286 285 285 285 285 285 284 284 284 284 284 284 285 287 287 287 288 287 287 287 287 287 288 289 289 290 290
307 307 306 303 299 296 296 295 295 292 290 289 287 286 286 286 285 285 285 285 284 284 283 283 283 283 283 284 286 287 287 287 287 287 286 286 287 287 288 289 289 289 289
307 307 305 301 298 296 296 294 292 290 289 287 286 286 285 285 285 285 284 284 284 283 283 283 283 283 283 284 286 286 287 287 286 286 286 286 286 287 287 288 288 288 289
307 307 303 299 296 296 295 292 289 288 287 286 285 285 285 285 284 284 284 283 283 283 282 282 282 282 282 283 285 286 286 286 286 286 286 286 286 287 288 287 287 288 289
306 303 300 296 295 294 292 290 288 287 286 285 285 285 284 284 284 284 283 283 283 282 282 282 282 282 282 283 284 285 286 285 285 285 286 286 286 286 286 287 288 287 286
302 300 297 295 294 292 290 288 287 286 285 285 284 284 284 284 283 283 283 283 282 282 282 282 282 281 281 283 284 285 285 285 285 285 285 286 285 285 286 288 287 286 285
298 296 295 293 291 289 288 287 286 285 285 284 284 284 283 283 283 283 283 283 282 282 281 281 281 281 282 282 284 284 285 285 285 285 286 285 285 285 288 286 285 285 284
295 295 293 290 288 287 287 286 285 284 284 284 284 283 283 283 283 282 283 282 282 281 281 281 281 281 282 283 283 284 284 285 285 286 285 284 285 287 285 284 284 283 284
294 292 289 288 287 287 286 285 284 284 284 283 283 283 283 282 282 282 282 282 281 281 281 281 281 282 283 283 283 283 284 284 285 285 284 285 286 284 283 282 282 283 283
292 290 289 287 286 285 285 284 284 283 283 283 283 282 282 282 282 282 281 281 281 281 281 281 282 283 283 283 283 283 284 284 284 284 285 284 282 282 281 281 282 281 281
289 289 288 286 285 285 284 284 283 283 283 282 282 282 282 282 282 281 281 281 280 281 281 282 283 283 283 283 282 283 284 283 284 285 282 281 281 281 281 280 280 280 280
289 288 286 285 284 284 283 283 283 283 282 282 282 282 281 281 281 281 280 281 281 281 283 283 283 283 283 283 283 283 283 284 284 282 281 280 280 281 280 280 280 280 280
287 286 285 284 283 283 283 283 282 282 282 282 281 281 281 281 280 280 280 280 281 282 282 282 282 282 282 282 283 282 283 284 282 281 280 280 280 280 280 280 280 280 280

GFSMW_925_thetae_024.txt.gz
Theta_e
316 315 316 316 317 319 321 323 326 326 327 328 328 328 323 320 317 315 313 313 312 312 312 312 311 310 311 310 309 310 310 311 312 310 313 313 315 320 318 322 324 321 321
317 316 316 316 316 317 318 321 325 328 328 328 323 321 317 315 313 311 309 308 308 308 308 308 308 308 308 308 307 308 308 308 308 310 309 312 312 313 313 310 311 315 315
317 317 316 316 315 315 316 318 321 320 321 318 317 315 314 312 311 309 308 307 306 306 306 306 306 306 306 305 305 305 305 306 306 306 308 312 311 312 308 309 309 311 313
317 317 316 316 315 315 314 314 314 315 315 315 315 314 313 310 308 308 307 307 305 303 303 302 302 302 301 301 300 300 301 301 302 302 303 305 306 309 309 307 306 306 309
317 317 316 314 314 314 314 313 313 312 312 311 311 310 309 308 307 307 306 305 304 301 298 298 298 297 297 297 296 298 298 298 298 299 301 302 304 304 305 307 304 302 303
317 316 314 314 313 313 313 312 310 310 309 309 308 308 308 307 306 304 303 302 301 299 296 295 295 294 294 294 294 296 297 295 295 296 299 302 301 299 301 302 303 304 302
317 316 315 314 313 313 312 311 310 309 308 307 306 306 305 304 302 301 299 298 297 296 294 293 293 292 292 292 292 294 295 293 293 296 298 295 294 295 296 298 303 303 301
318 317 316 314 313 312 311 310 309 307 306 305 303 302 301 300 298 297 296 295 294 293 292 292 292 291 291 291 291 292 293 291 292 295 293 293 293 295 296 299 300 300 299
318 317 315 314 313 312 310 309 308 306 304 302 301 299 298 296 295 294 293 292 292 291 290 290 290 290 290 290 290 290 290 290 291 291 292 292 292 294 295 293 293 295 296
317 316 315 313 312 311 308 307 306 304 302 300 298 296 295 293 292 292 291 291 290 290 290 289 289 289 289 289 289 289 289 289 290 290 290 291 292 293 292 291 290 290 291
317 316 314 312 311 309 307 305 304 302 300 297 296 295 293 291 291 290 290 289 289 289 289 288 288 288 288 288 288 288 288 289 289 290 290 290 291 291 290 289 289 289 290
317 316 313 312 309 308 306 304 303 301 298 295 294 292 291 290 290 289 289 288 288 288 288 287 287 287 287 287 287 287 288 288 289 289 289 289 289 289 288 288 289 289 290
316 315 313 311 309 307 304 302 301 298 296 294 292 291 290 289 288 288 288 288 287 287 287 287 287 286 286 286 286 287 288 288 289 289 289 288 288 288 288 288 289 289 290
315 314 313 311 308 305 302 301 299 297 294 292 291 290 289 288 288 288 287 287 287 287 286 286 286 286 286 286 286 286 287 288 288 288 288 288 287 287 287 288 288 289 290
315 314 313 311 307 303 301 299 297 294 292 291 290 289 288 288 287 287 287 286 286 286 286 285 285 285 285 285 285 286 287 287 287 288 287 287 287 287 287 288 288 288 289
314 313 312 309 305 302 300 297 295 292 290 289 288 287 287 287 287 287 286 286 286 286 285 285 285 285 285 285 285 286 286 287 287 287 286 286 286 287 287 287 287 287 288
313 312 311 307 303 301 298 296 293 290 289 288 287 287 286 286 286 286 286 286 286 285 285 285 285 284 284 284 284 285 286 286 286 286 286 286 286 286 287 286 286 287 288
312 311 308 303 300 298 296 292 290 288 287 287 287 286 286 286 286 285 286 285 285 285 285 285 284 284 284 283 284 285 286 286 286 286 286 286 286 286 286 286 287 289 287
310 308 304 300 298 296 292 290 288 287 287 287 286 286 285 285 285 285 285 285 285 285 284 284 284 283 283 283 284 285 285 285 285 285 285 286 286 285 285 287 287 286 286
305 302 299 297 296 292 290 289 287 287 287 286 285 285 285 284 285 285 284 284 284 284 284 283 283 283 283 284 284 285 285 285 285 285 286 285 285 285 286 286 285 285 284
300 298 296 296 292 289 288 288 287 287 285 285 285 284 284 284 284 284 284 284 284 283 283 283 283 283 284 284 284 284 284 285 285 286 285 285 285 286 284 284 284 283 284
297 296 294 292 289 288 287 287 287 285 284 284 284 284 284 284 284 284 284 284 283 283 283 283 284 284 284 284 284 284 284 284 285 285 285 285 285 283 283 283 283 283 283
295 294 293 290 287 286 286 286 285 284 284 284 284 284 284 284 284 284 283 283 283 283 283 283 284 284 284 284 283 283 284 284 284 284 285 285 283 282 281 282 282 282 282
294 292 291 289 287 286 285 285 284 284 284 284 284 284 284 284 284 283 283 282 282 283 283 284 284 284 283 283 283 284 284 284 284 284 284 282 282 281 281 281 281 281 281
292 292 290 289 287 285 284 284 284 283 283 284 284 284 284 284 283 283 282 282 282 282 283 283 283 283 283 283 283 283 283 283 284 284 282 281 281 281 281 281 281 281 281
291 290 288 287 285 284 284 283 283 283 283 283 284 283 283 283 282 282 282 282 282 282 282 282 282 282 282 282 283 282 283 284 282 281 281 281 280 281 280 280 280 280 280

GFSMW_925_thetae_027.txt.gz
Theta_e
320 319 319 320 322 324 327 328 328 328 329 329 330 329 324 320 316 314 313 312 311 311 311 311 310 310 310 310 309 309 309 309 309 309 310 310 310 312 313 310 308 310 312
320 320 319 320 320 323 326 329 330 330 328 327 325 322 319 316 313 311 310 309 308 308 308 308 308 308 307 307 306 305 305 305 305 306 306 309 309 310 306 304 308 308 309
320 320 320 319 319 320 323 323 324 323 322 320 318 316 314 313 312 310 309 308 306 305 305 304 304 303 303 302 301 301 301 302 301 301 303 306 305 306 305 305 306 305 304
320 319 319 318 318 318 318 318 318 318 318 318 317 315 313 311 310 310 309 308 305 302 300 300 300 299 298 298 298 298 299 299 299 298 299 300 302 305 306 302 301 302 302
319 319 319 318 317 317 316 315 315 314 313 313 312 311 311 310 309 309 308 306 304 301 298 297 297 296 296 296 296 296 297 298 296 297 298 299 302 302 300 299 300 299 299
319 319 317 317 317 316 315 313 312 311 311 311 311 310 310 309 308 306 305 303 302 299 296 295 295 295 294 294 294 294 296 296 295 295 296 299 299 297 298 298 298 299 300
319 318 318 317 316 315 313 312 311 310 310 309 308 307 307 305 304 303 301 300 299 297 295 294 294 293 293 293 293 293 293 294 293 293 294 296 295 295 295 296 298 300 297
319 318 317 316 316 314 313 312 310 309 308 306 305 304 303 302 300 299 297 296 295 294 293 293 292 292 292 292 292 292 292 292 292 292 293 293 293 293 294 295 298 296 295
319 318 317 316 315 314 313 311 309 308 306 304 303 301 299 298 297 296 295 294 293 292 292 292 291 291 291 291 291 291 291 291 291 291 291 292 292 293 292 294 294 294 293
319 318 317 316 315 313 312 310 309 306 304 302 300 299 297 295 294 294 293 292 292 291 291 291 290 290 290 290 290 290 290 290 290 290 291 291 291 291 292 292 292 291 292
320 318 317 316 314 312 310 309 306 304 302 301 299 297 295 294 293 292 291 291 291 290 290 290 290 290 289 289 289 289 289 289 289 290 290 290 290 290 290 290 290 290 290
319 318 317 315 313 311 309 308 306 303 301 299 297 295 294 293 292 291 290 290 290 290 289 289 289 289 289 288 288 288 288 288 289 289 289 290 290 289 289 289 289 289 289
319 318 316 315 313 311 308 307 304 302 299 297 296 294 292 291 291 290 290 289 289 289 289 289 288 288 288 287 287 287 287 287 288 288 289 289 289 289 288 288 288 288 289
319 318 316 315 312 310 307 305 303 300 297 295 294 293 291 291 290 289 289 289 288 288 288 288 288 287 287 287 287 287 287 287 287 288 288 288 288 288 288 288 288 289 289
318 317 316 314 312 308 306 304 301 298 295 293 292 291 290 289 289 289 288 288 288 288 288 288 287 287 287 287 286 286 286 287 287 287 288 287 287 287 287 288 288 288 288
317 316 316 314 311 307 304 302 298 295 293 292 291 290 289 289 289 288 288 288 288 288 288 288 287 287 286 286 286 286 286 286 286 287 287 287 287 287 287 287 287 288 287
317 316 315 313 309 306 303 301 297 294 292 290 289 288 288 288 288 288 288 288 288 288 287 287 287 286 286 285 285 286 285 286 286 286 286 286 287 286 287 287 287 287 287
316 315 314 310 306 303 301 297 294 291 290 289 289 288 288 287 287 287 287 287 287 287 287 286 286 285 285 285 285 285 286 286 286 286 286 286 286 286 286 286 287 287 286
314 313 310 306 303 300 296 293 291 290 289 289 288 287 287 287 287 287 287 287 287 286 286 285 285 285 284 284 285 285 286 286 285 285 285 285 286 286 286 287 287 285 285
311 308 304 301 300 296 293 292 290 290 289 288 287 287 286 286 286 286 286 286 286 286 285 285 285 284 284 285 285 286 286 285 285 285 286 285 285 285 286 286 285 284 283
304 302 301 299 295 293 292 291 290 289 287 287 286 286 286 286 286 286 286 286 285 285 285 284 284 284 285 285 285 285 285 285 285 285 285 285 284 286 285 284 283 283 284
300 300 298 295 293 292 291 289 289 287 286 286 286 286 286 286 286 286 286 285 285 285 284 284 284 285 285 285 285 285 285 285 285 285 284 284 286 284 283 283 282 283 283
299 298 295 292 290 289 289 289 287 286 286 286 286 286 286 286 286 285 285 285 284 284 284 284 284 285 284 284 284 284 284 284 284 284 284 285 283 282 282 282 282 282 281
297 296 294 292 289 288 287 287 286 285 285 286 286 286 286 286 285 285 285 284 284 284 284 284 284 284 284 284 283 284 284 284 283 284 284 282 282 281 281 281 281 281 281
296 295 294 292 290 288 287 286 285 285 285 286 286 286 286 285 285 285 284 283 283 283 283 284 283 283 283 283 283 283 283 283 284 283 282 281 281 280 281 280 280 281 281
295 294 292 291 288 287 286 285 285 285 285 285 285 285 285 285 284 284 284 283 284 284 283 283 283 283 283 283 283 283 282 283 282 282 281 280 280 280 280 280 280 280 280

GFSMW_925_thetae_030.txt.gz
Theta_e
317 319 320 322 324 327 327 328 328 328 330 330 329 323 317 314 312 311 310 309 309 309 309 309 307 307 307 305 304 303 302 303 302 302 302 301 306 305 305 300 303 304 303
316 318 320 322 325 329 329 330 329 328 328 327 323 319 316 312 310 308 308 307 306 306 305 304 303 302 302 301 299 299 300 301 300 301 300 301 302 303 299 301 304 302 302
317 317 317 320 324 324 325 324 323 323 321 320 318 315 312 311 310 309 307 305 304 301 301 300 299 298 298 297 297 297 298 299 298 297 298 300 301 299 301 301 302 299 297
317 317 316 318 319 320 320 321 320 320 318 317 315 314 311 310 309 309 307 305 303 301 298 297 296 296 295 295 295 295 296 298 297 296 296 296 297 299 300 301 296 296 296
317 317 316 318 317 317 316 315 314 313 313 313 311 310 310 309 309 307 305 304 301 299 296 295 295 294 294 293 294 293 294 295 296 295 295 295 297 298 295 294 294 294 295
316 316 318 318 317 314 313 312 312 311 311 311 311 310 309 307 305 304 302 301 299 296 295 294 294 293 293 292 292 293 292 293 293 294 293 293 296 295 294 294 293 294 294
317 316 315 316 315 313 312 311 310 310 309 308 307 306 304 303 301 299 298 297 296 294 293 293 292 292 292 292 291 291 291 291 292 292 291 292 292 292 293 293 293 293 292
316 315 314 315 314 313 312 310 309 307 306 305 303 302 301 299 297 296 295 294 294 293 292 292 291 291 291 291 290 290 290 290 290 290 290 291 291 291 292 292 292 291 292
316 315 314 315 314 313 311 309 307 306 304 302 300 299 297 296 295 294 294 293 292 292 291 291 290 290 290 290 290 289 289 289 289 289 290 290 290 290 291 291 291 291 291
316 315 314 314 314 313 311 308 306 304 302 300 298 297 295 294 294 293 292 291 291 290 290 290 289 289 289 289 289 288 288 288 289 288 288 289 289 290 290 290 290 289 289
316 315 314 314 313 312 310 307 304 302 301 299 297 295 294 293 292 292 291 290 290 290 289 289 289 289 288 288 288 288 288 287 288 287 288 288 288 289 289 289 289 288 288
316 315 313 313 311 311 308 306 303 301 299 298 296 294 293 292 291 291 290 290 289 289 289 289 288 288 288 288 287 287 287 287 286 287 287 287 288 288 288 288 288 288 287
316 314 313 312 311 310 308 306 303 300 298 296 295 293 292 291 291 290 289 289 289 288 288 288 288 288 287 287 287 287 287 286 286 286 287 287 287 287 288 287 287 287 287
316 314 313 311 311 309 307 304 301 299 296 295 294 292 291 290 290 289 289 289 288 288 288 288 288 288 287 287 287 287 287 286 286 286 286 286 287 287 287 287 287 288 288
316 314 313 310 310 308 306 303 300 297 295 293 292 291 290 289 289 289 288 288 288 288 288 288 287 287 287 287 287 287 287 286 286 285 286 286 286 287 287 287 287 287 287
316 314 313 309 307 306 304 301 297 295 293 292 290 290 289 289 288 288 288 287 288 288 287 287 287 287 286 286 286 287 286 286 285 285 286 286 285 286 286 286 286 287 288
315 314 312 309 307 305 302 298 295 293 292 290 289 289 288 288 288 287 287 287 287 287 287 287 286 286 285 285 286 286 286 286 285 285 285 285 285 285 285 286 286 287 287
314 312 310 307 305 303 301 297 293 291 290 289 289 288 288 287 287 287 287 287 287 287 286 286 286 285 285 285 285 286 286 286 285 285 285 285 285 285 286 286 286 287 286
311 310 307 305 302 299 295 293 291 290 290 289 288 287 287 287 286 286 286 286 286 286 286 285 285 285 284 285 285 286 286 285 285 285 285 285 285 285 285 286 287 285 284
308 305 302 301 298 294 293 291 290 290 289 288 287 287 287 286 286 286 286 286 286 285 285 285 284 284 284 284 285 286 286 285 285 285 285 284 284 284 286 286 285 284 283
302 301 300 297 294 293 292 290 290 288 287 287 287 286 286 286 286 286 286 286 285 285 285 284 284 284 284 285 285 285 285 285 285 285 284 284 283 286 285 284 283 282 284
300 299 294 293 293 293 291 290 288 287 287 286 286 286 286 286 286 286 285 285 285 284 284 283 283 283 284 284 284 284 284 285 284 284 283 283 285 283 283 282 282 282 282
298 295 293 292 291 290 290 289 287 286 286 286 286 286 286 286 286 285 285 285 284 284 283 283 283 283 283 283 283 283 284 284 284 283 284 284 282 281 281 281 281 281 280
296 293 291 289 288 289 288 288 286 286 286 286 286 286 286 286 285 285 285 284 284 283 283 283 283 283 283 283 283 284 284 283 283 284 283 282 280 280 280 280 280 280 280
295 293 291 290 288 287 287 286 285 285 285 285 285 285 285 285 285 284 284 284 284 284 284 284 283 283 283 283 284 284 283 283 284 283 281 280 279 279 279 280 280 280 280
295 294 292 290 288 287 286 285 285 285 285 285 285 285 284 284 284 284 283 283 283 283 283 283 283 283 283 283 283 283 283 283 282 281 279 279 279 279 279 279 279 279 280

GFSMW_925_thetae_033.txt.gz
Theta_e
314 318 320 322 324 325 326 326 326 330 332 328 324 321 314 314 313 312 311 309 308 308 308 306 304 303 302 300 298 298 297 298 298 299 296 298 302 300 298 296 302 298 301
315 316 320 324 328 327 327 327 328 329 328 326 320 317 312 310 309 308 307 306 306 304 303 301 300 299 298 296 296 296 297 298 297 296 296 297 299 300 294 298 298 300 297
316 315 316 323 325 325 324 325 326 326 324 322 318 312 310 308 307 306 305 303 302 300 299 298 297 296 295 294 294 294 294 297 296 295 296 295 297 295 298 297 299 296 294
315 316 316 317 320 321 321 322 321 320 319 318 314 310 309 309 308 306 304 302 300 299 297 296 295 294 294 293 293 293 293 293 295 294 295 293 293 295 297 297 293 294 293
316 316 315 316 316 317 317 317 317 316 314 313 311 310 309 308 307 305 302 300 299 297 295 294 294 293 292 292 292 292 291 292 294 292 293 292 292 293 293 291 292 292 292
315 315 315 315 313 312 312 312 312 311 312 311 310 309 307 305 303 301 299 297 296 295 293 293 292 292 292 291 291 291 290 291 291 291 291 290 291 292 291 291 291 291 291
316 315 314 312 311 311 311 310 310 308 309 309 307 306 304 302 300 299 297 296 295 292 292 292 291 291 291 290 290 290 290 289 290 289 289 289 290 289 290 291 290 290 291
316 315 313 311 310 310 309 308 307 306 306 305 303 302 301 299 298 296 295 293 292 292 291 291 290 290 290 290 289 289 289 288 288 288 288 288 288 288 289 289 290 289 289
315 314 312 311 310 309 308 307 305 304 303 302 301 299 298 297 295 294 293 292 291 291 290 290 290 289 289 289 288 288 288 287 287 287 287 287 287 288 288 288 289 289 289
314 313 312 311 310 309 307 305 303 301 300 298 297 296 295 295 294 293 292 291 290 290 290 289 289 289 289 288 288 287 287 287 287 286 286 286 286 287 287 288 288 288 288
314 313 312 311 309 308 306 304 302 300 298 297 296 295 294 293 293 292 290 290 290 289 289 289 289 288 288 288 287 287 287 286 286 286 286 286 286 286 286 287 287 287 287
314 313 311 310 308 306 304 303 301 299 298 296 295 294 293 293 292 291 290 289 289 289 288 289 288 288 288 287 287 287 286 286 286 286 286 285 286 286 286 286 287 286 286
313 312 310 309 307 304 303 302 300 298 296 295 294 293 292 292 291 290 289 289 288 288 288 288 288 288 287 287 287 286 286 287 286 286 286 285 285 285 286 286 286 286 287
314 312 310 308 307 305 303 301 299 297 295 294 293 292 291 291 290 289 289 288 288 288 288 288 287 287 287 286 286 287 287 287 286 286 285 285 285 285 286 286 286 287 286
313 312 310 308 306 304 301 299 297 295 294 293 292 291 290 290 289 288 288 288 288 287 287 287 287 286 286 286 286 287 287 286 286 286 285 285 285 285 285 286 286 286 286
314 312 310 307 305 302 299 297 296 295 294 292 291 290 289 289 288 288 287 287 287 287 287 286 286 286 285 285 286 287 286 286 286 286 285 285 285 285 285 285 285 286 287
313 312 310 307 304 301 297 295 294 293 292 291 290 289 288 288 287 287 287 287 286 286 286 286 285 285 285 285 286 286 286 286 286 285 285 285 285 285 285 285 285 286 286
313 311 307 304 301 298 296 294 293 292 291 290 289 288 288 287 287 286 286 286 286 286 285 285 285 284 284 284 285 286 286 285 285 285 285 284 284 285 285 285 285 286 285
311 308 305 300 298 295 294 294 292 291 290 289 288 287 287 287 286 286 286 286 285 285 285 285 284 284 284 284 285 286 285 285 285 284 284 285 284 284 284 286 286 284 283
304 301 298 295 294 293 294 293 290 289 289 288 287 287 286 286 286 286 286 285 285 285 285 284 284 283 283 283 284 285 284 284 284 285 284 284 283 283 286 285 284 282 282
299 297 295 293 292 293 293 290 289 288 288 287 287 286 286 286 286 286 286 285 285 284 284 283 283 283 283 283 284 284 284 284 285 284 284 283 283 286 284 283 281 282 283
296 294 293 292 292 292 292 289 288 287 287 286 286 286 286 286 286 286 285 285 284 284 283 283 282 283 283 283 283 284 284 285 284 284 283 283 285 282 281 281 281 282 282
293 292 291 291 292 291 290 288 287 287 286 286 286 286 286 286 286 285 284 284 284 283 283 282 283 283 283 283 283 283 284 284 284 283 284 283 281 280 280 280 281 281 280
292 290 290 289 288 289 289 288 286 286 286 286 286 286 285 286 285 284 284 283 283 283 283 283 283 283 283 283 283 284 284 283 283 283 281 280 279 279 279 279 279 279 280
291 290 289 288 287 288 287 286 286 286 285 285 285 285 285 284 284 283 283 283 283 283 283 283 283 282 283 283 284 284 283 283 283 282 279 279 279 279 279 279 279 279 279
291 290 289 288 287 287 286 285 285 285 285 285 285 284 284 284 283 283 282 282 282 283 283 282 282 282 283 283 283 283 283 282 281 280 278 279 279 279 279 279 279 279 279

GFSMW_925_thetae_036.txt.gz
Theta_e
313 316 318 320 322 323 323 323 323 326 330 328 323 319 313 315 316 315 314 312 309 308 306 304 302 301 299 296 296 295 295 297 296 295 294 296 300 298 297 297 297 296 298
314 314 319 322 324 324 325 326 326 325 324 323 320 318 312 310 309 308 307 306 305 303 302 301 299 297 295 295 294 294 293 295 295 294 294 295 296 298 293 297 294 297 293
315 314 317 323 325 325 326 327 327 324 323 320 317 312 309 306 305 304 302 301 302 300 299 298 296 295 294 293 293 293 292 292 294 294 293 291 293 292 294 293 295 291 293
315 315 317 318 321 322 324 326 325 323 320 318 315 311 307 305 304 303 301 300 299 298 297 295 294 293 292 292 292 292 291 292 292 292 293 293 292 292 292 294 291 291 290
315 318 317 317 319 319 320 321 320 319 317 317 314 309 307 306 303 301 300 298 297 296 295 294 293 292 292 291 291 291 290 290 290 290 291 290 290 290 291 290 289 289 290
316 315 314 313 313 315 316 317 316 314 314 312 309 308 307 305 302 300 298 297 296 294 293 292 291 291 290 290 290 290 289 289 289 288 288 288 289 289 288 288 288 288 289
316 314 312 309 308 309 311 312 312 310 310 309 308 307 305 303 300 298 297 296 294 293 292 291 290 290 290 289 289 289 288 288 288 287 287 288 287 287 287 288 288 288 288
315 314 310 308 308 307 308 308 309 307 308 307 305 303 302 300 298 298 296 294 293 291 290 290 290 289 289 289 288 288 288 287 287 287 287 286 286 286 286 287 287 287 287
315 312 309 308 307 306 305 306 305 304 304 303 301 300 299 299 297 296 294 292 291 290 290 289 289 289 289 288 288 287 287 287 286 286 286 286 286 285 285 286 287 287 287
314 311 309 307 306 305 305 305 304 302 301 300 299 298 297 296 295 293 292 291 290 289 289 289 289 289 288 288 287 287 287 286 286 286 286 286 285 285 285 286 286 286 286
314 311 309 307 305 304 303 302 301 299 298 297 297 296 295 294 293 292 290 290 289 289 289 289 289 288 288 287 287 287 286 286 286 286 286 285 285 285 285 285 285 285 286
313 311 308 306 304 302 301 300 298 297 296 296 295 294 293 293 292 291 290 289 289 288 288 288 288 288 287 287 286 286 286 286 286 286 286 285 285 285 285 285 285 285 285
312 310 307 305 303 301 300 299 298 296 295 295 294 293 292 292 291 290 289 289 288 288 288 288 287 287 286 286 286 286 286 286 286 286 285 285 285 285 284 285 285 285 286
312 310 308 305 303 301 299 298 297 296 295 294 294 292 292 291 290 289 288 288 288 288 287 287 286 286 285 285 285 286 287 287 286 286 286 286 285 285 285 285 285 286 285
312 310 308 305 302 300 298 297 296 295 294 293 293 291 290 290 289 288 288 287 287 287 287 286 286 285 285 284 286 287 287 286 286 286 286 285 285 285 285 286 285 285 285
312 310 308 304 302 299 296 295 295 294 294 293 291 290 290 289 288 287 287 287 287 286 286 285 285 284 284 284 286 286 286 286 285 285 285 285 284 284 285 284 285 285 286
312 310 308 305 302 298 296 294 294 293 293 292 290 289 288 288 287 287 287 287 286 286 285 285 284 284 283 285 285 286 286 285 285 284 284 284 284 284 284 284 284 285 286
312 310 307 304 300 296 295 295 294 293 292 290 289 288 287 287 287 287 286 286 286 285 285 284 284 283 283 284 285 285 285 284 284 284 284 284 284 284 284 284 285 284 283
310 308 305 299 296 294 294 294 292 291 290 289 288 287 287 287 287 287 286 286 285 285 284 284 283 283 283 283 284 285 284 284 284 284 284 284 284 283 284 286 284 283 281
304 300 298 295 293 292 294 292 290 290 289 288 287 287 287 287 286 286 286 285 285 284 284 283 283 283 283 283 284 284 284 284 284 284 284 283 283 284 286 284 282 281 281
297 296 295 293 291 292 293 290 290 289 288 287 287 286 286 286 286 286 285 284 284 284 283 283 283 283 283 283 283 284 285 284 285 284 283 283 283 284 283 282 281 281 284
294 293 292 290 291 292 293 289 289 288 287 287 286 286 286 286 286 285 284 284 283 283 283 283 283 283 283 283 283 284 284 285 284 284 283 283 283 282 281 281 281 282 282
293 292 291 289 291 292 293 288 287 287 286 286 286 286 286 286 285 284 283 283 283 282 283 282 283 282 282 282 282 283 284 283 284 283 283 282 281 280 279 280 281 280 279
290 290 289 288 288 290 290 289 287 286 286 286 286 286 285 285 284 283 283 282 282 282 283 283 282 282 282 282 282 283 283 283 283 283 281 280 279 279 279 279 279 279 279
289 289 288 287 287 288 288 287 286 286 286 285 285 285 285 284 284 283 282 282 282 283 283 283 282 282 282 282 283 283 283 283 282 281 279 278 278 278 278 278 279 279 279
289 288 287 287 286 287 286 285 285 285 285 285 284 284 284 283 283 283 282 282 282 282 282 282 282 282 282 282 282 283 283 282 280 279 278 278 278 278 278 278 278 278 278

GFSMW_925_thetae_039.txt.gz
Theta_e
313 315 316 318 320 320 322 323 329 330 332 329 324 319 315 318 318 317 316 315 310 306 305 303 302 300 299 296 295 294 293 294 293 293 294 296 297 297 297 293 295 294 295
313 313 315 318 321 321 322 322 326 327 327 326 321 318 313 311 311 308 306 305 304 303 303 301 299 297 295 294 293 292 292 292 293 293 293 292 293 296 296 293 293 295 291
313 312 314 319 322 323 323 323 324 324 323 323 318 313 310 305 303 302 301 301 302 301 300 299 297 295 293 292 292 291 291 291 291 292 291 289 289 290 292 293 294 292 291
313 313 315 319 322 323 324 324 322 321 320 318 316 313 306 302 300 300 300 299 299 298 297 296 294 293 292 291 291 290 290 290 290 290 291 290 291 289 289 291 290 289 287
313 314 318 320 321 321 322 322 319 317 316 316 316 312 305 302 299 299 299 298 297 296 295 293 292 291 291 290 290 290 289 289 289 288 288 288 288 289 288 288 287 286 287
313 315 316 316 315 317 318 318 316 313 314 315 313 311 305 300 299 298 298 296 295 294 292 291 291 290 290 290 289 289 288 288 287 287 287 287 288 288 286 286 286 286 286
315 315 314 311 309 311 313 314 314 311 312 311 309 307 305 303 301 299 298 296 294 292 291 290 290 289 289 289 289 288 288 287 287 286 286 286 286 285 285 285 285 285 286
316 316 314 310 309 309 310 310 310 308 308 308 307 306 304 302 300 298 296 294 293 291 290 289 289 289 289 289 288 288 287 287 286 286 286 286 286 285 285 285 285 285 285
316 315 309 308 307 306 307 308 306 306 306 305 303 301 300 299 297 295 294 292 291 290 289 289 289 289 288 288 288 287 287 286 286 286 286 286 286 285 285 284 285 285 285
314 310 308 306 305 305 305 305 305 304 303 301 300 298 298 297 295 294 292 291 290 289 289 289 289 288 288 287 287 287 286 286 286 286 286 286 286 285 285 285 284 284 284
311 309 306 305 303 302 302 301 302 300 298 298 297 297 295 294 293 292 291 290 289 288 289 288 288 288 287 287 286 286 286 286 286 286 286 286 285 285 285 285 284 284 284
310 307 305 303 301 299 299 298 298 297 297 296 296 294 294 293 292 291 290 289 288 288 288 288 288 287 286 286 285 285 286 286 286 286 286 286 285 285 285 284 284 284 284
309 307 304 303 300 298 297 296 296 295 295 295 294 293 292 292 291 290 289 288 288 288 288 287 287 286 285 285 284 286 286 287 286 286 285 285 285 285 284 284 284 284 285
309 307 305 302 300 297 296 295 294 295 294 294 293 292 292 291 290 288 288 288 288 288 287 286 286 285 285 284 285 286 287 286 286 285 285 285 284 284 285 285 285 285 284
309 307 305 301 299 297 295 294 294 293 294 293 293 291 290 289 288 288 287 287 287 287 286 286 285 284 284 284 286 287 286 286 285 285 284 284 284 284 285 285 284 284 285
310 308 305 301 298 296 294 293 293 293 294 293 292 290 289 288 288 287 287 287 287 286 285 285 284 284 283 284 286 287 286 285 285 284 284 284 283 283 284 284 284 285 286
310 308 305 301 299 296 294 293 293 293 293 292 290 289 288 288 287 287 287 287 286 285 285 284 284 283 283 284 286 286 286 285 284 284 284 283 283 284 284 283 284 285 285
310 308 304 301 298 295 294 294 293 293 292 290 289 288 287 287 287 287 287 286 285 285 284 284 283 283 283 284 285 285 285 284 284 284 284 283 284 284 284 285 286 283 283
309 306 304 299 295 294 294 293 292 292 290 289 288 287 287 287 287 287 286 285 285 284 284 283 283 283 283 283 284 285 284 284 284 284 284 284 284 283 285 285 283 282 281
306 301 298 295 294 293 294 292 290 290 289 288 288 287 286 287 287 286 285 285 284 284 283 283 283 283 283 282 284 284 284 284 284 285 283 283 283 284 285 283 282 281 281
299 297 296 294 292 292 292 290 290 289 289 288 287 286 286 286 286 286 285 284 283 283 283 283 283 283 282 282 283 284 284 284 285 283 283 283 283 284 283 282 281 281 283
296 294 291 290 290 291 293 289 289 288 288 287 286 286 286 286 286 285 284 283 283 282 282 283 282 282 282 282 282 284 284 284 283 284 283 283 283 282 281 281 281 282 281
292 291 289 288 290 292 293 289 287 287 286 286 286 286 286 286 285 284 283 283 282 282 282 282 282 282 282 282 282 283 284 283 284 283 283 282 281 280 279 279 280 280 278
290 290 290 288 288 291 291 290 287 286 286 286 286 286 285 285 284 283 283 282 282 282 282 282 282 282 281 282 282 283 283 283 283 282 281 280 279 279 279 278 278 278 278
290 290 289 287 287 289 288 287 286 286 286 285 285 285 285 284 283 283 282 282 282 283 283 282 282 281 281 282 283 283 283 283 282 281 279 278 278 278 277 278 278 278 278
288 287 287 286 286 287 286 286 286 286 285 285 284 284 284 283 283 282 282 281 281 282 282 282 282 281 281 282 282 282 283 282 281 279 277 277 277 277 277 277 277 277 277

GFSMW_925_thetae_042.txt.gz
Theta_e
315 316 317 318 317 318 320 324 328 330 332 332 328 323 322 319 320 320 316 316 319 307 305 303 302 300 300 296 295 294 293 293 292 293 294 295 294 295 296 294 292 293 293
313 311 314 314 317 318 320 322 326 328 328 327 324 320 317 313 314 313 312 306 304 303 302 302 300 298 296 294 293 292 292 291 291 292 291 290 292 293 293 293 294 292 293
316 311 311 315 318 319 320 322 325 325 324 325 320 316 312 309 305 303 301 300 300 301 301 300 298 295 293 292 291 291 290 290 290 292 290 288 288 289 290 291 291 292 289
314 312 311 315 319 320 321 322 323 322 321 320 317 317 310 303 299 299 298 297 298 298 298 296 294 293 291 291 290 290 289 289 289 290 288 289 289 287 287 290 289 288 286
315 312 312 316 319 321 322 321 320 318 317 316 314 311 305 302 298 296 296 296 296 295 295 293 292 291 290 290 290 289 289 288 288 287 287 287 287 288 287 286 286 285 285
313 311 313 317 318 319 320 318 316 314 314 314 312 311 309 300 297 295 295 295 294 293 292 291 290 290 290 289 289 289 288 288 287 287 286 286 286 286 285 284 285 285 285
310 313 314 314 312 314 315 314 314 310 311 311 310 308 303 299 298 297 296 294 293 292 290 290 290 289 289 289 289 288 287 287 286 286 286 286 285 285 285 285 284 284 284
311 314 315 314 312 311 312 310 310 308 309 309 307 304 301 300 298 297 295 294 293 291 290 289 289 289 289 288 288 287 287 286 286 286 286 286 286 286 285 285 284 284 284
313 315 314 312 310 309 309 309 308 307 308 306 303 301 300 298 296 295 294 292 291 290 289 289 289 289 288 288 287 287 286 286 286 286 286 285 286 285 285 285 285 284 284
314 314 312 309 308 306 306 307 307 305 304 303 302 299 297 296 295 294 292 291 290 289 289 289 289 288 288 287 286 286 285 285 286 286 286 286 286 285 285 285 285 284 283
314 311 308 305 303 302 302 301 302 301 300 299 297 296 294 294 293 292 290 290 289 289 289 288 288 287 287 286 285 285 285 286 286 286 286 286 285 285 285 285 284 284 283
310 307 304 302 301 298 298 297 297 298 297 296 295 294 293 292 292 290 289 289 289 288 288 288 287 286 286 285 285 285 286 286 286 286 285 285 285 284 284 284 284 284 283
307 304 303 301 299 297 295 294 295 295 295 294 294 292 292 291 290 289 288 288 288 288 288 287 286 286 285 285 284 286 286 286 286 285 285 284 284 284 284 284 284 284 284
307 305 302 299 297 295 293 292 293 294 293 293 293 292 291 290 289 288 288 288 288 288 287 286 285 285 284 284 285 286 287 286 286 285 284 283 283 284 284 284 285 285 284
307 305 301 298 296 293 292 292 292 293 293 292 292 291 290 289 288 288 287 288 287 287 286 285 285 284 284 283 286 287 287 286 285 284 284 284 284 284 285 285 284 284 285
307 304 301 297 295 293 292 291 291 292 293 292 291 290 289 288 287 287 287 287 287 286 285 285 284 284 283 283 286 287 286 286 285 284 284 284 283 283 284 284 284 285 286
307 304 300 297 295 293 292 291 291 292 292 291 290 289 288 287 287 287 287 287 286 285 285 284 284 283 283 284 285 286 286 285 284 284 284 284 284 284 283 283 284 285 284
307 303 300 297 295 293 292 292 292 292 291 290 289 288 287 287 287 287 287 286 285 285 284 284 283 283 283 283 284 285 285 284 284 284 284 284 284 284 284 285 286 283 282
306 303 300 296 294 293 292 292 291 291 290 289 288 287 287 287 287 287 286 285 285 284 284 283 283 283 283 283 284 285 284 284 284 284 284 284 283 283 284 285 283 282 282
304 301 297 295 293 292 292 291 290 290 289 288 287 287 287 287 287 286 285 285 284 283 283 283 283 282 282 282 283 284 284 284 284 284 283 283 283 284 285 283 283 281 281
299 297 296 294 292 292 292 290 289 289 289 288 287 286 287 287 286 285 285 284 283 283 282 282 283 282 282 282 283 283 284 284 284 283 283 283 283 284 283 282 281 281 283
296 295 292 290 290 291 292 289 289 289 288 287 286 286 286 286 285 285 284 283 283 282 282 282 282 282 282 282 282 283 284 284 283 283 283 282 283 282 281 281 281 282 281
293 292 290 289 289 291 292 289 287 287 286 286 286 286 286 285 285 284 284 283 282 282 282 282 282 282 281 281 281 283 283 283 284 283 283 282 281 280 279 279 280 280 278
290 290 289 288 287 290 290 290 287 287 286 286 285 285 286 285 284 283 283 282 282 282 282 282 281 282 281 281 281 283 283 283 283 282 281 280 279 278 278 277 277 277 278
290 290 289 287 286 289 288 287 286 286 286 285 285 285 285 284 283 283 282 282 282 282 283 282 282 281 281 281 283 283 283 283 282 281 279 277 277 277 277 277 277 277 277
288 287 285 285 285 286 286 285 286 286 286 285 284 284 284 283 283 282 282 281 281 282 282 281 281 281 281 281 282 282 282 282 280 279 277 277 277 276 276 277 277 277 277

GFSMW_925_thetae_045.txt.gz
Theta_e
315 316 317 318 317 318 318 320 323 327 331 333 332 327 328 327 325 324 324 322 317 316 312 304 300 301 302 298 296 295 293 293 293 294 295 294 293 296 296 293 292 293 291
314 315 315 316 316 317 317 319 323 327 330 329 326 322 320 313 313 314 313 315 315 306 301 301 301 300 298 295 294 293 292 291 291 292 293 296 295 293 293 292 291 290 291
311 313 314 315 316 316 317 319 323 327 326 326 325 319 314 309 306 306 308 305 301 300 300 299 300 297 295 293 292 291 291 292 291 290 292 294 294 291 291 291 291 291 288
310 310 313 314 315 317 317 319 322 324 323 323 322 318 311 307 302 300 298 297 298 298 298 297 296 294 292 292 291 290 290 290 290 289 289 288 290 291 291 290 290 288 287
308 309 311 314 316 317 318 320 321 320 319 318 319 313 308 303 299 298 296 296 295 295 295 294 293 292 291 290 290 290 289 288 288 288 288 288 288 288 290 289 289 287 287
308 310 312 313 316 317 319 320 318 316 315 315 314 313 309 301 296 294 294 293 293 292 292 292 291 291 290 290 289 289 288 287 287 286 286 287 288 288 287 288 288 287 287
310 312 313 315 315 315 316 315 315 311 311 311 311 309 304 298 296 295 294 292 291 291 290 291 290 290 290 289 289 288 287 287 286 286 286 286 286 286 286 286 287 287 286
310 312 314 316 315 314 312 311 310 307 308 307 305 303 300 298 296 297 294 293 292 291 290 290 290 289 289 289 288 287 287 286 286 286 285 285 286 286 286 286 286 288 288
307 312 314 315 315 313 311 309 307 305 305 304 302 300 300 300 296 295 294 292 291 290 289 289 289 289 288 288 287 286 286 286 286 286 286 286 286 285 285 285 285 286 287
306 312 315 314 313 311 308 306 305 304 302 301 300 299 298 296 294 293 292 291 290 289 289 289 289 288 288 287 286 286 285 285 286 286 286 285 285 285 285 285 285 285 285
310 314 313 311 308 305 304 302 301 300 298 298 298 297 295 294 293 292 291 290 289 289 289 289 288 287 286 286 286 285 285 286 286 286 285 285 285 285 285 284 284 284 284
313 312 308 305 304 302 300 299 297 296 295 295 295 294 293 292 292 290 289 289 289 288 288 288 287 286 286 285 285 285 286 286 286 286 285 285 284 284 284 284 284 284 284
308 305 304 304 301 299 297 296 294 292 293 293 293 292 291 291 290 289 289 289 288 288 288 287 286 286 285 285 284 286 286 286 286 286 285 284 283 283 283 284 284 284 284
306 305 303 301 298 296 295 293 291 291 291 292 291 291 291 290 289 288 288 288 288 288 287 286 286 285 285 284 284 286 287 286 286 286 284 284 284 283 284 284 285 285 284
306 303 300 298 295 294 293 291 290 290 291 291 291 290 290 289 288 288 288 288 287 287 286 286 285 285 284 284 286 287 287 286 286 285 284 284 284 285 285 285 285 284 285
305 302 299 297 295 293 292 290 290 290 291 291 290 289 288 288 287 287 287 287 286 286 286 285 285 284 284 283 286 287 286 286 285 284 284 284 284 283 284 284 284 285 286
303 300 298 296 294 292 291 290 290 290 291 290 289 288 288 287 287 287 287 286 286 285 285 285 284 283 283 284 285 286 286 285 284 284 284 283 283 284 283 283 284 285 285
303 300 298 295 292 291 291 290 290 290 290 289 288 288 287 287 287 287 286 286 285 285 284 284 283 283 283 283 284 285 285 284 284 284 283 283 283 283 284 284 286 284 283
302 300 296 293 292 291 290 290 289 290 289 288 288 287 287 287 287 286 286 286 285 284 284 283 283 283 282 282 284 284 284 284 284 283 283 283 283 283 284 285 284 283 282
301 297 295 293 291 290 290 290 288 289 288 287 287 286 287 287 287 286 286 285 284 284 283 282 282 282 282 282 283 284 284 284 284 284 283 283 283 283 285 284 283 282 281
298 296 294 293 291 290 290 289 288 287 288 287 286 287 287 287 286 286 285 284 284 283 282 283 282 282 282 281 282 283 284 284 284 283 283 283 283 284 283 283 282 281 283
297 295 292 290 290 290 291 289 287 287 287 286 286 286 286 286 286 285 284 284 283 282 282 282 282 282 281 281 282 283 284 284 284 284 283 283 283 282 281 281 281 282 281
294 293 291 289 289 290 291 288 286 287 286 286 286 286 285 285 285 284 284 283 282 281 282 282 282 282 281 281 281 282 283 283 284 283 283 282 281 280 279 279 280 280 278
291 290 290 290 289 290 289 288 287 287 286 286 285 285 285 285 284 284 283 282 282 282 282 282 282 281 281 281 281 282 283 283 283 282 282 280 279 278 278 278 278 278 278
290 290 289 286 286 287 287 287 287 287 286 285 285 285 284 284 284 283 282 281 281 282 282 282 281 281 281 281 282 283 283 283 282 281 280 278 278 277 277 277 278 278 278
288 286 285 285 284 286 286 286 286 286 286 285 284 284 284 283 283 282 282 281 281 281 281 281 281 281 281 281 282 282 283 282 281 279 277 277 277 277 277 277 277 277 277

GFSMW_925_thetae_048.txt.gz
Theta_e
319 319 319 320 322 322 322 322 323 326 331 333 335 337 336 330 323 323 323 316 316 321 319 313 305 301 300 298 298 298 298 297 296 298 299 299 297 299 299 297 296 295 294
313 316 317 319 320 321 321 322 323 326 331 333 332 331 326 315 318 318 314 313 310 312 312 304 301 299 297 297 296 297 297 296 295 296 298 301 299 298 298 296 295 294 293
312 312 313 317 319 320 321 321 323 328 331 330 329 322 313 311 310 309 307 308 310 306 304 301 299 298 296 295 295 295 296 296 295 294 296 299 300 296 295 296 294 294 292
312 312 312 312 316 319 321 321 323 327 328 325 320 318 320 313 306 305 304 303 301 300 299 299 296 295 295 295 293 293 294 294 294 294 292 292 293 295 295 294 294 292 291
312 312 312 312 312 316 321 321 323 325 323 322 322 323 319 308 303 302 300 298 298 298 297 296 294 294 294 293 293 293 292 292 292 292 292 291 291 292 293 294 294 292 292
312 312 312 312 312 314 321 322 322 321 320 321 321 322 312 304 299 297 296 296 296 294 293 293 293 293 292 292 292 291 291 291 290 290 290 290 291 291 291 292 292 292 291
310 312 312 313 314 315 320 321 320 319 319 320 320 315 309 304 301 298 295 294 293 292 292 292 292 292 291 291 291 291 291 290 290 289 289 289 289 289 289 290 291 291 290
311 311 311 313 314 317 319 319 319 317 317 318 316 311 302 300 297 297 296 293 294 293 292 291 291 290 290 290 290 290 289 289 289 289 288 288 289 289 289 289 289 290 290
311 312 312 315 315 318 320 319 317 315 314 313 310 304 300 298 295 295 294 293 291 291 291 291 290 290 290 289 289 289 288 288 288 289 289 288 288 288 288 288 288 288 289
315 315 313 313 316 318 319 318 315 313 311 308 305 301 296 297 295 294 292 292 291 291 290 290 290 289 289 288 288 288 288 288 288 288 288 288 288 288 287 287 287 287 287
316 316 316 312 315 318 317 315 312 308 306 304 301 298 295 294 294 293 293 292 291 291 290 290 289 289 288 287 287 287 287 288 288 288 288 287 287 287 286 286 286 286 286
314 315 315 315 316 315 313 311 308 306 303 299 296 294 294 293 293 292 292 291 290 290 289 289 288 288 287 287 287 287 288 288 288 288 287 287 286 286 286 286 286 286 286
314 314 315 314 314 311 309 307 304 300 298 296 293 292 292 293 292 291 290 290 290 289 288 288 288 287 286 286 286 287 288 288 288 288 287 287 286 286 286 285 286 286 286
312 312 312 312 311 308 306 302 297 294 294 293 293 292 293 292 291 290 290 289 289 288 288 287 286 286 285 285 286 287 288 288 288 287 287 286 285 285 285 286 286 286 286
311 310 310 308 306 301 298 294 292 292 292 292 293 292 291 290 290 289 289 288 288 287 287 286 286 285 285 285 287 288 288 288 287 287 286 285 285 285 285 285 285 285 285
307 306 304 302 299 296 293 292 292 292 292 292 291 290 290 289 289 289 288 288 287 287 286 286 285 285 284 284 287 287 287 287 287 286 286 285 285 285 285 285 285 285 286
305 303 301 299 296 294 293 292 292 292 292 292 290 290 289 289 288 288 288 287 287 286 286 285 285 285 284 284 286 286 286 286 286 285 285 285 285 285 284 284 285 285 286
304 301 299 297 295 294 293 292 292 292 292 291 290 289 289 288 288 288 287 286 286 286 286 285 284 284 284 283 285 285 286 286 285 285 285 285 285 284 284 285 285 286 285
302 300 298 296 295 294 292 293 292 292 291 290 289 288 288 288 288 287 286 286 286 286 285 284 284 284 284 283 284 285 285 285 285 285 285 285 284 284 284 285 286 284 284
302 299 297 295 294 293 293 292 292 292 290 289 288 288 288 288 286 286 286 285 285 285 284 284 284 283 283 283 283 284 285 285 285 285 285 284 284 284 285 285 284 284 283
298 296 295 295 293 293 293 292 292 290 289 288 288 287 287 287 286 286 285 285 285 284 284 284 284 283 283 283 283 283 284 285 285 285 284 284 284 284 284 283 283 282 283
297 296 294 292 292 293 292 292 291 288 287 287 286 286 286 286 286 286 285 284 284 285 284 284 284 284 283 283 282 283 284 284 284 284 284 284 284 283 282 282 281 282 282
298 296 294 293 293 293 293 289 286 286 286 286 286 285 285 285 285 285 285 285 284 284 284 284 284 284 283 282 282 283 284 284 284 284 283 283 283 281 280 280 281 281 281
296 294 293 293 292 290 288 287 286 286 286 286 285 285 285 285 285 284 284 284 284 284 284 284 283 283 283 282 282 283 283 283 284 283 283 282 281 280 280 280 280 280 280
294 294 294 293 290 287 286 286 286 286 286 285 285 286 285 285 284 283 284 284 283 283 283 283 282 282 282 282 282 283 283 283 283 282 281 280 280 280 280 280 280 280 280
292 291 290 289 287 286 285 286 286 287 286 286 286 285 285 284 284 284 283 282 281 280 280 281 281 281 281 282 282 282 283 282 281 280 280 279 279 279 279 279 279 279 279

GFSMW_925_thetae_051.txt.gz
Theta_e
320 319 320 321 322 323 324 324 325 325 326 332 336 338 338 338 338 338 335 330 326 317 311 310 307 305 304 303 303 301 301 300 298 300 301 301 300 301 300 300 298 298 296
316 318 319 319 321 323 324 324 324 325 327 332 335 336 337 334 331 327 323 319 313 312 315 312 306 302 301 300 300 300 300 298 297 298 300 304 301 300 300 299 298 297 295
316 315 315 318 320 321 323 324 324 325 328 332 334 333 329 318 317 316 315 311 312 309 308 308 304 303 300 299 298 298 298 298 297 295 297 302 303 297 297 297 297 296 295
315 315 316 315 316 320 322 323 324 325 328 332 333 327 321 317 311 310 308 305 305 304 303 300 300 300 298 297 296 296 296 297 297 296 294 294 294 297 297 297 296 295 293
315 315 315 315 314 315 321 323 324 325 329 332 332 325 321 318 308 305 303 301 300 300 300 300 301 300 296 295 295 295 295 294 295 294 294 294 294 294 294 295 295 294 294
312 313 313 313 314 314 317 323 324 325 329 331 325 323 324 310 304 301 299 297 297 297 298 297 296 295 295 294 294 294 293 293 293 292 292 292 293 293 293 294 293 293 293
312 312 312 313 313 314 314 320 324 326 328 326 325 325 315 308 305 301 299 297 296 296 296 297 295 295 294 293 293 293 293 292 292 292 291 291 291 291 291 291 292 292 291
312 312 312 312 312 314 315 318 323 325 324 324 325 322 313 308 302 300 298 296 296 295 294 294 294 293 293 293 293 292 292 291 291 291 291 290 290 290 290 290 290 291 291
313 313 312 313 313 313 315 318 322 323 322 323 322 316 309 303 299 298 297 295 295 294 294 293 293 292 292 292 291 291 291 290 290 290 291 290 290 290 290 289 289 290 290
316 315 316 315 315 314 316 319 321 321 321 321 315 308 303 297 296 295 294 294 293 293 293 293 292 291 291 290 290 290 290 289 290 290 290 290 290 289 289 289 288 288 288
315 315 315 315 315 315 317 320 320 319 318 315 307 303 296 295 295 295 295 293 293 293 293 292 292 291 290 289 290 289 289 289 290 290 290 289 289 288 288 287 287 287 287
316 316 316 316 316 315 319 320 317 315 312 308 303 298 294 294 294 294 294 293 293 293 292 291 291 290 289 289 289 289 289 289 290 290 289 289 288 288 287 287 287 287 287
315 315 316 315 317 317 319 317 313 310 307 304 299 295 294 294 294 293 293 292 292 291 291 290 290 289 288 288 288 288 289 289 290 289 289 288 288 287 287 287 287 287 287
313 315 316 316 317 317 315 312 308 304 301 297 296 295 294 293 293 293 292 292 291 290 290 289 289 288 287 287 287 289 289 290 290 289 288 288 287 286 286 286 286 286 286
312 313 314 314 314 312 310 305 302 300 297 295 295 294 293 292 292 291 291 291 290 289 289 288 287 287 287 287 287 288 289 289 289 288 288 287 286 286 286 286 286 286 286
310 311 311 311 310 306 301 297 297 295 295 294 293 292 292 291 291 291 290 290 289 288 288 288 287 287 286 285 286 287 288 288 288 288 287 286 286 286 286 286 286 286 286
307 307 307 303 300 298 296 294 294 294 294 292 292 292 291 291 290 290 289 289 289 288 288 287 287 287 286 285 285 286 286 287 287 287 286 286 286 286 286 285 285 285 286
304 303 299 297 295 294 294 293 293 293 292 292 292 291 291 290 290 290 289 288 288 288 288 287 286 286 286 285 284 285 286 286 286 286 286 286 286 286 286 286 285 286 286
302 300 296 295 294 293 293 293 293 292 292 292 291 290 290 290 289 288 288 287 288 288 287 286 286 286 285 284 284 285 285 285 286 286 286 286 286 285 286 286 286 285 284
299 296 295 294 294 294 294 294 293 293 292 291 290 290 289 289 288 287 287 288 288 287 286 286 286 285 284 284 284 284 285 285 285 285 285 285 285 286 285 285 285 284 283
298 297 296 296 295 295 296 295 294 292 290 289 289 289 288 287 287 287 287 287 287 286 287 286 286 285 285 284 284 284 284 285 285 285 285 285 285 285 285 284 284 283 283
297 296 295 295 295 296 294 293 291 289 289 288 287 287 287 287 287 287 287 286 287 287 287 286 286 285 285 284 284 284 284 285 285 285 284 284 284 285 284 283 282 283 283
296 294 294 293 294 294 293 291 289 288 287 287 287 287 287 287 287 287 287 287 286 286 286 285 285 285 284 284 284 284 284 284 284 284 284 284 284 283 282 281 282 282 281
299 297 296 295 295 292 289 287 287 287 287 286 286 287 287 287 286 286 286 286 286 285 285 285 284 284 283 283 283 283 283 283 284 284 283 283 282 281 281 281 281 281 281
297 296 295 294 290 287 286 286 287 287 287 286 287 287 287 286 286 285 286 286 285 283 283 283 282 282 282 282 283 283 283 283 283 283 282 281 281 280 280 280 280 280 280
296 296 292 288 287 286 286 286 287 287 287 287 287 287 286 286 286 286 286 284 282 281 281 281 281 281 282 282 282 282 283 283 282 281 280 280 280 280 280 280 279 279 280

GFSMW_925_thetae_054.txt.gz
Theta_e
315 318 320 320 320 322 326 327 326 325 327 335 339 340 339 338 337 336 335 333 333 329 322 317 311 310 308 304 303 302 301 299 297 300 300 301 300 301 300 300 299 298 297
314 315 318 319 320 321 321 324 325 325 324 327 335 339 338 338 338 337 336 333 330 324 318 313 309 306 304 303 301 301 300 298 296 297 299 299 299 299 299 300 298 297 296
313 313 312 317 319 320 321 323 324 325 324 326 333 337 335 333 330 332 331 326 321 317 314 309 308 308 306 306 305 301 299 298 296 295 297 297 298 294 298 300 298 296 296
313 312 312 312 315 319 320 321 324 324 325 327 333 335 330 325 323 320 317 315 315 315 310 309 309 308 306 300 298 297 297 298 296 295 294 294 294 293 292 295 296 295 294
311 311 311 313 314 315 319 320 322 324 324 328 333 330 326 322 319 315 314 313 310 309 308 308 305 301 300 298 296 295 295 295 295 295 294 293 294 294 292 291 293 294 293
311 311 312 314 314 314 313 315 322 323 324 330 333 328 323 319 312 308 307 305 305 302 301 299 299 299 298 296 295 294 294 293 292 292 292 292 292 292 291 289 290 290 291
309 309 309 309 312 312 313 313 319 323 324 332 328 324 322 318 310 306 304 301 299 298 299 299 298 297 296 294 294 293 292 292 292 292 291 291 291 291 291 290 290 289 290
308 309 311 309 311 313 313 313 315 324 326 330 325 322 320 311 307 305 303 299 298 298 298 297 297 295 294 293 293 292 292 291 291 291 291 290 290 290 290 290 290 288 288
310 312 312 310 312 312 314 314 317 323 327 326 323 317 313 308 303 302 300 298 297 297 295 295 295 293 293 293 292 291 291 290 290 290 290 290 290 290 290 289 289 289 288
312 312 312 312 314 314 314 315 317 323 325 324 315 311 308 305 301 299 297 298 297 295 294 294 293 292 292 291 291 290 290 290 290 290 290 290 290 289 289 288 288 288 287
314 314 313 314 313 315 315 315 319 322 323 314 308 305 302 299 297 296 296 295 294 294 293 293 292 291 291 290 290 290 289 289 290 290 290 290 289 289 288 288 287 287 287
314 313 313 313 313 314 315 318 320 321 310 305 303 299 296 295 294 294 294 294 293 293 292 292 291 290 290 289 289 289 289 289 289 289 289 289 289 288 288 287 287 287 286
312 311 311 312 313 314 314 319 318 310 305 300 298 295 295 295 294 294 293 293 293 292 292 291 290 289 289 288 288 288 289 289 289 290 289 289 288 288 287 286 286 286 286
310 309 312 313 312 314 317 315 310 305 299 296 295 295 295 294 294 293 293 292 292 291 290 290 289 289 288 288 288 289 289 289 289 289 289 288 288 287 286 286 286 286 286
310 311 313 313 315 313 311 306 302 299 296 295 295 294 293 293 292 292 292 291 291 290 289 289 288 288 288 287 287 287 288 288 288 288 288 288 287 287 287 287 287 287 286
309 309 312 311 308 304 302 299 297 296 296 295 294 292 292 292 291 291 291 290 289 289 289 288 288 288 286 286 285 287 286 286 286 287 287 287 286 286 286 286 286 286 286
308 308 303 300 299 298 297 296 295 295 294 293 292 292 291 291 290 290 290 289 289 288 288 288 287 287 287 286 284 286 285 285 286 286 286 286 286 286 286 286 286 286 286
305 301 296 295 295 295 295 295 294 293 293 292 292 291 291 290 290 289 289 289 289 288 288 287 287 287 286 286 285 286 285 285 285 285 286 286 286 286 286 286 286 286 285
300 297 295 294 294 294 294 293 293 293 292 292 291 291 290 290 289 289 289 288 288 288 287 287 286 286 285 285 285 285 284 284 285 285 285 285 285 285 286 286 286 285 284
295 294 294 294 293 293 293 293 293 292 291 291 290 290 289 289 288 288 288 288 288 287 287 286 286 286 285 285 285 285 284 284 284 284 285 285 285 285 286 286 285 284 283
295 295 295 295 295 294 294 293 292 291 291 290 290 289 289 288 288 288 288 288 287 287 287 286 286 286 285 285 285 285 284 284 285 285 284 284 284 285 286 285 284 283 284
297 296 295 296 296 296 295 292 291 290 289 288 288 288 288 288 288 288 287 287 287 287 287 286 285 285 285 284 284 285 285 285 285 284 284 284 285 285 284 283 282 283 283
296 296 297 297 297 295 291 289 288 288 288 288 288 288 288 288 288 287 287 286 286 286 286 285 285 284 284 283 283 284 284 284 284 283 284 284 283 282 282 281 282 282 280
294 294 294 293 292 290 288 287 288 288 288 287 288 288 287 287 287 287 286 286 286 285 285 284 283 282 282 282 282 283 283 283 283 283 283 282 281 281 280 280 280 280 280
295 295 292 289 287 288 287 287 288 288 288 288 287 287 287 286 286 286 286 285 285 283 282 282 281 281 281 282 283 283 283 283 283 283 281 280 279 279 279 279 279 279 279
295 291 288 287 286 286 286 287 287 288 288 287 287 287 286 286 286 286 285 284 283 283 282 281 281 281 281 282 282 282 283 283 282 281 279 279 279 279 279 279 278 278 278

GFSMW_925_thetae_057.txt.gz
Theta_e
311 314 316 318 319 319 321 326 327 338 339 341 341 340 338 340 336 335 334 330 329 331 330 327 322 317 314 312 308 305 304 300 298 300 299 300 300 301 300 300 299 298 297
311 312 315 316 316 317 319 323 326 332 338 338 340 340 339 338 338 335 334 331 330 331 330 326 319 313 312 307 305 305 302 299 296 297 298 299 299 299 300 300 300 298 297
309 309 309 314 316 317 319 320 324 326 333 337 338 339 337 336 335 335 334 331 331 330 327 321 314 311 309 307 303 302 301 298 296 295 297 296 298 294 297 299 298 297 295
308 308 308 309 313 316 318 319 320 322 324 326 334 337 334 329 330 332 332 329 326 326 323 317 310 309 308 306 303 300 299 298 297 296 294 294 294 292 291 295 296 295 294
308 309 308 311 313 313 315 318 319 320 323 323 326 333 331 330 328 325 322 318 316 316 314 315 310 310 308 305 299 298 297 297 296 296 294 293 294 293 291 291 292 294 293
308 308 310 312 312 312 313 314 317 318 322 324 327 330 332 327 319 313 313 311 312 311 311 311 309 306 301 298 297 296 295 294 294 293 292 292 292 292 291 289 289 289 291
307 307 309 306 310 312 312 313 313 314 320 323 328 329 329 327 322 314 310 307 306 306 306 308 305 301 299 297 296 295 294 293 293 292 292 291 291 291 291 290 289 288 290
304 306 308 307 309 310 311 312 312 313 321 325 327 326 325 321 315 311 308 306 304 304 305 301 299 299 297 295 294 293 292 291 291 291 291 291 290 290 290 290 289 286 287
310 309 308 309 308 309 311 312 312 313 325 325 324 321 320 320 315 310 308 305 304 302 299 299 299 298 295 294 293 292 291 291 291 290 290 290 290 290 290 289 289 288 286
312 311 310 311 313 313 311 313 313 315 325 323 320 317 317 314 311 307 304 301 299 297 298 298 298 295 294 293 292 291 291 290 290 290 290 290 290 289 289 289 288 288 287
311 311 312 312 313 314 314 312 314 316 321 315 313 314 312 310 306 303 301 299 296 298 297 295 293 293 292 291 291 290 290 290 290 290 290 290 289 289 288 288 287 287 286
311 310 309 310 310 310 312 312 313 319 313 312 311 307 304 302 300 299 297 296 295 295 296 293 292 291 290 290 290 289 289 289 289 289 289 289 289 289 288 288 287 286 286
310 309 307 307 308 310 311 311 315 308 306 307 303 299 298 298 296 295 294 294 294 294 292 292 291 290 289 289 289 289 289 289 289 290 289 289 289 288 288 287 286 286 286
309 309 310 310 309 311 312 313 305 302 301 299 297 296 296 294 294 293 294 293 294 292 292 291 290 289 289 289 288 289 289 289 289 289 288 288 288 287 287 287 287 287 286
309 309 311 306 303 308 308 303 299 298 297 297 295 295 294 294 293 293 293 293 292 291 291 290 289 289 289 288 288 287 287 287 286 286 286 287 287 287 287 287 287 287 287
308 303 302 302 300 298 298 297 296 296 296 295 295 293 293 293 292 291 291 291 290 290 289 289 289 288 287 287 286 286 286 285 285 286 286 286 286 286 286 286 286 287 287
305 299 297 296 296 297 296 295 295 294 293 293 293 293 292 291 291 291 291 290 289 289 289 289 288 287 287 286 286 285 285 284 285 285 285 285 285 285 285 286 286 286 286
299 296 295 294 294 294 294 294 294 293 293 293 292 292 291 290 290 289 289 289 289 289 288 287 287 287 286 286 285 286 284 284 284 284 285 285 285 285 286 286 286 286 286
296 294 293 293 293 293 293 293 292 292 292 292 291 291 290 289 289 290 290 289 288 288 287 287 287 286 285 285 285 285 285 284 284 284 285 285 285 285 286 286 286 285 285
294 294 293 293 293 293 292 292 292 291 291 291 290 291 289 290 289 288 288 288 288 287 287 287 286 286 285 285 285 285 285 284 284 285 285 284 284 285 286 286 285 284 283
295 295 295 294 293 293 293 292 292 290 290 290 290 290 290 289 288 288 289 289 287 287 286 286 286 285 285 285 285 285 285 285 285 284 284 283 284 285 285 285 284 283 284
295 295 295 294 293 293 293 292 291 291 289 289 289 289 289 289 289 289 287 287 287 286 286 285 285 285 284 284 284 285 285 285 284 283 283 283 284 284 283 283 282 283 283
294 295 293 293 292 293 294 292 291 292 291 290 289 288 288 288 287 287 287 286 286 286 285 284 284 283 282 282 282 283 284 283 283 283 284 284 283 281 280 280 281 281 279
297 297 297 296 294 292 291 290 290 288 287 287 288 288 287 287 287 287 286 286 285 284 283 283 282 281 281 281 283 283 283 283 283 284 283 282 280 279 279 279 279 279 279
295 295 294 290 288 287 287 288 287 288 288 288 287 287 287 286 286 286 285 285 284 282 282 281 281 281 281 282 283 283 283 284 284 283 280 278 278 278 278 278 278 278 278
292 290 288 287 286 287 287 287 287 289 288 287 287 286 286 286 285 285 284 284 283 282 282 281 281 281 282 283 283 283 283 283 281 279 278 277 278 278 278 278 277 277 278

GFSMW_925_thetae_060.txt.gz
Theta_e
311 313 315 316 317 319 319 319 322 338 339 339 338 337 337 338 337 334 333 331 328 327 327 328 326 323 323 321 315 311 305 301 299 300 299 300 300 300 300 300 299 298 298
308 309 313 314 314 315 317 319 319 330 338 338 338 338 338 338 336 334 332 332 329 327 328 328 325 322 319 314 312 308 303 300 297 298 299 299 299 299 300 300 299 298 297
309 307 307 311 314 314 316 316 316 319 335 338 338 338 337 335 336 335 331 332 331 328 329 328 326 321 317 315 309 305 304 300 297 296 298 297 298 294 296 298 299 297 295
306 307 306 308 312 313 315 316 317 318 326 337 338 337 335 332 334 336 333 331 329 328 329 327 324 318 313 312 306 304 303 302 298 295 295 295 295 293 293 294 295 294 294
306 306 306 308 311 312 313 314 316 318 321 329 336 335 334 334 333 333 332 328 325 326 325 322 315 314 312 307 306 304 301 299 297 296 294 293 293 293 291 291 292 293 293
305 306 307 309 310 311 312 313 314 315 318 320 326 334 333 332 328 326 325 321 318 317 316 314 312 309 308 308 305 300 298 297 296 294 293 293 293 292 291 289 289 289 290
303 302 303 303 307 310 312 312 313 314 315 318 322 329 333 332 332 327 320 315 313 310 309 308 307 308 310 306 301 299 296 294 294 293 292 292 291 291 291 290 288 288 289
308 309 309 308 308 308 308 310 312 312 312 315 320 325 329 328 325 323 321 314 312 311 308 308 308 306 305 301 298 295 294 293 292 292 291 291 291 290 290 290 289 287 286
310 310 309 310 312 312 313 309 309 311 312 313 321 324 324 324 323 318 315 312 310 308 307 306 304 302 299 297 295 294 293 292 291 291 291 291 290 290 290 289 289 288 286
309 309 309 310 312 312 313 313 314 311 312 319 320 320 319 320 318 315 312 309 308 306 304 302 300 297 297 296 294 292 291 291 291 290 290 290 290 290 289 289 288 288 287
309 309 309 310 310 310 310 311 312 312 316 319 318 315 312 313 312 308 308 308 306 304 301 299 297 296 294 293 292 292 291 290 290 290 290 290 289 289 289 288 288 287 286
309 308 307 308 308 308 308 309 310 311 315 316 315 314 312 308 308 306 306 304 302 298 298 298 296 294 292 291 291 290 290 290 290 289 289 289 289 289 288 288 287 287 286
309 307 305 305 305 305 307 309 310 310 314 310 311 308 306 304 302 300 299 298 296 296 296 295 294 292 291 290 290 290 289 289 289 289 289 289 289 288 288 287 287 286 286
308 306 307 303 299 299 306 308 310 310 307 304 302 299 298 299 298 296 295 294 294 294 293 292 291 290 289 289 289 289 290 289 289 288 288 287 287 287 287 287 287 287 286
309 305 303 303 298 297 297 299 299 299 299 298 297 296 295 295 294 293 293 292 292 293 292 290 289 289 289 289 289 288 287 287 286 285 286 286 286 287 287 287 287 287 287
305 299 298 300 299 296 295 296 297 297 297 296 295 294 294 293 293 292 291 291 292 291 292 291 289 289 288 289 287 287 286 285 285 285 285 285 285 285 286 286 286 287 287
301 297 295 295 296 296 296 295 295 295 294 294 293 293 292 291 290 291 291 291 291 291 289 289 290 288 288 288 287 286 285 284 284 284 284 284 284 284 284 285 286 286 286
298 295 294 294 294 294 293 293 293 293 292 292 291 291 291 291 292 293 291 290 289 289 290 290 288 287 287 287 286 285 285 284 284 284 284 285 284 284 285 286 286 286 286
295 294 293 293 293 293 293 292 292 292 292 291 291 292 292 292 292 292 289 289 290 288 287 287 287 287 286 285 285 285 285 284 284 285 285 284 284 284 286 286 286 285 284
294 293 293 292 292 292 292 291 291 291 291 291 291 293 292 290 289 288 290 290 290 288 287 286 286 285 285 286 285 286 285 285 285 285 284 283 284 285 286 286 285 283 283
295 294 294 293 292 292 292 291 290 290 290 291 292 292 291 289 289 288 287 287 287 287 286 286 285 285 285 284 285 286 285 285 285 284 283 283 284 285 285 284 283 282 283
295 294 294 294 293 293 292 291 289 290 292 292 291 290 290 289 287 289 290 287 286 286 285 285 284 284 283 283 284 285 285 285 284 283 283 284 284 284 282 281 281 282 282
295 294 293 294 293 293 292 290 289 291 291 291 289 288 288 289 291 289 286 286 285 285 284 284 283 282 281 281 282 284 284 283 284 284 284 283 282 280 279 279 281 280 279
295 294 294 294 293 293 292 292 291 292 291 290 290 290 290 287 286 286 286 285 285 284 283 282 281 281 281 282 283 283 283 283 284 283 281 280 279 278 279 278 278 278 278
297 296 295 293 291 292 292 292 292 291 288 287 287 288 286 286 285 285 285 284 282 282 282 281 281 281 281 282 284 283 283 283 283 281 279 278 277 277 277 277 278 278 278
297 294 290 288 288 290 289 288 288 287 288 291 289 286 285 285 285 285 284 284 283 282 282 282 282 282 282 283 283 283 282 282 281 279 277 277 277 277 277 277 277 277 277

GFSMW_925_thetae_063.txt.gz
Theta_e
310 310 312 313 315 316 315 317 321 330 339 338 337 336 336 336 335 335 335 333 329 328 328 327 325 327 325 323 319 315 312 305 301 299 299 300 300 300 300 300 299 299 297
308 306 310 312 313 315 315 315 316 321 335 338 337 336 336 336 336 335 335 335 334 329 328 327 326 326 324 319 317 316 308 301 299 298 298 298 298 300 299 299 299 298 297
309 307 306 310 312 312 315 315 314 316 326 336 337 336 336 335 335 335 334 335 334 330 328 327 326 326 324 321 317 313 311 302 299 298 299 297 297 296 296 298 298 298 296
306 305 305 306 309 311 313 313 314 314 317 326 337 335 334 332 334 335 335 334 330 328 327 327 327 326 321 319 315 311 307 305 301 296 296 296 296 293 292 294 295 295 294
304 304 304 305 308 309 311 312 313 313 315 325 335 335 334 333 334 334 334 333 329 327 326 326 325 322 317 314 313 306 304 305 302 298 295 294 293 293 291 290 292 293 293
304 304 305 306 306 308 308 308 311 313 313 318 332 335 333 333 331 331 331 331 329 327 326 324 322 318 315 313 308 305 305 304 300 298 296 295 293 292 291 289 289 289 291
307 308 307 307 310 311 309 308 309 311 313 315 320 333 334 333 332 331 330 328 325 322 323 321 318 312 311 308 307 304 303 300 298 296 294 293 293 292 291 290 288 288 289
307 308 308 308 310 312 313 313 310 309 310 312 316 320 329 332 331 329 326 325 322 320 320 316 313 309 308 306 304 301 298 296 294 293 293 292 291 291 291 290 289 286 286
308 308 308 309 311 312 312 312 313 313 312 309 314 316 321 326 327 326 323 318 318 317 313 311 309 307 306 305 300 298 295 294 292 291 291 291 291 290 290 290 289 288 286
307 307 307 309 310 309 309 310 310 311 312 312 312 318 320 323 324 322 318 316 314 312 309 307 306 305 304 299 297 294 292 292 291 291 291 291 290 290 289 289 288 288 287
307 307 307 307 307 308 308 308 309 311 310 311 313 317 318 320 319 316 314 311 310 309 308 306 306 303 299 296 294 292 291 291 291 290 290 290 289 289 289 289 288 287 287
308 307 305 305 305 302 301 302 304 307 309 310 313 314 314 314 312 311 310 307 307 306 305 302 300 297 296 293 292 292 291 290 290 290 289 289 289 289 288 288 288 287 287
309 306 304 304 299 297 297 299 304 305 308 310 311 309 308 309 307 306 306 305 302 300 298 297 295 294 293 291 290 290 289 289 290 290 289 289 289 288 288 287 287 286 286
310 306 305 300 296 296 296 297 300 305 306 306 306 304 303 302 302 302 300 299 297 295 295 295 294 292 290 289 290 291 291 290 289 288 288 287 287 287 286 287 287 287 287
308 301 300 299 297 296 296 297 297 298 299 298 298 297 298 297 296 296 294 293 292 291 292 291 290 290 291 289 289 290 290 288 286 285 286 286 286 286 287 287 287 287 286
302 299 298 297 298 296 296 296 295 295 295 295 294 294 294 293 292 291 290 290 290 291 290 289 289 288 291 294 293 289 286 285 285 285 284 284 285 285 285 286 286 287 287
299 296 295 295 295 296 296 295 294 293 293 293 293 292 291 291 290 290 290 290 289 290 290 291 292 290 290 290 289 287 286 284 284 284 284 284 284 284 284 285 286 286 286
296 295 294 294 294 293 293 293 293 293 292 292 291 291 291 291 291 291 291 292 291 291 290 291 291 292 290 289 288 285 285 284 284 284 284 284 284 284 285 285 286 286 285
294 294 293 293 293 293 292 293 292 292 292 292 292 292 292 291 291 291 292 291 292 292 292 289 287 287 288 287 286 285 285 285 285 285 284 284 283 283 285 286 286 284 284
294 293 292 292 292 292 292 292 292 292 291 291 290 291 291 291 290 290 291 291 291 288 286 285 286 286 286 287 286 286 285 284 285 284 283 283 284 285 286 286 284 282 282
294 293 293 292 292 292 291 291 291 290 290 290 290 291 292 292 292 292 292 291 287 286 285 285 285 285 284 285 286 286 285 285 285 284 283 283 284 285 285 284 282 281 283
295 294 294 294 293 292 291 290 289 290 290 290 290 290 290 290 291 288 287 287 286 285 284 284 284 284 283 283 284 285 285 285 284 284 283 284 284 283 282 281 281 282 282
295 294 294 293 293 292 290 290 289 291 291 290 290 290 291 290 290 289 286 285 285 285 284 284 283 282 281 281 283 283 284 284 284 284 283 282 281 280 279 279 280 280 279
294 294 294 294 294 292 291 291 291 291 291 290 290 290 290 289 287 285 285 285 285 284 283 282 281 281 281 282 283 283 283 283 283 282 281 279 278 278 278 278 279 278 278
295 294 294 293 292 292 291 291 291 292 292 291 290 289 287 285 285 285 285 284 282 282 282 281 281 282 282 283 284 284 283 283 282 281 279 278 277 277 277 277 278 278 278
296 296 294 290 291 291 291 293 293 292 289 288 288 286 285 285 285 284 283 284 283 283 282 282 282 282 282 283 283 283 282 281 281 279 277 277 277 276 276 276 277 277 277

GFSMW_925_thetae_066.txt.gz
Theta_e
310 311 311 313 314 314 315 316 320 331 339 337 336 336 335 334 335 335 334 333 330 324 324 327 328 328 328 326 326 317 313 309 305 301 300 300 300 300 301 302 301 299 298
307 307 310 310 311 313 313 314 315 320 335 337 337 336 336 334 335 335 335 334 332 329 325 326 327 327 326 325 323 318 311 307 302 300 298 298 299 299 299 299 299 298 298
308 307 305 309 309 310 311 312 313 315 323 335 336 336 336 334 333 334 335 335 334 332 329 328 328 327 325 325 322 317 314 305 300 300 302 298 300 296 297 298 298 297 297
303 304 304 305 306 308 309 310 312 313 316 329 336 334 334 333 333 334 335 335 334 334 332 329 328 327 325 324 321 315 312 311 303 299 298 299 298 295 293 294 296 297 296
302 303 302 304 305 306 307 308 308 309 311 318 334 334 333 333 333 333 333 333 334 333 333 332 327 326 324 322 320 315 312 311 310 301 296 295 294 294 292 292 292 293 293
307 307 308 310 310 311 309 307 308 309 310 311 327 333 332 333 332 332 332 331 331 331 330 329 326 325 323 320 318 315 313 311 309 306 300 297 295 293 292 290 290 290 292
307 307 307 307 310 311 312 312 311 309 309 312 315 330 332 332 332 332 331 328 327 328 329 327 325 324 321 318 316 314 311 308 305 302 299 296 294 294 293 291 288 288 290
306 307 306 308 309 310 310 310 310 311 312 310 310 316 330 332 332 331 330 329 326 327 326 322 321 318 316 313 311 310 308 306 301 298 295 293 292 292 292 291 289 287 286
306 307 307 308 308 308 309 309 309 310 310 311 312 310 314 323 329 331 329 326 324 321 318 319 318 315 313 311 310 307 303 299 295 294 293 292 291 291 292 292 290 289 286
307 307 306 306 307 307 306 306 307 307 309 309 310 311 312 316 321 325 325 323 321 319 315 313 312 312 309 308 306 301 297 294 292 292 291 291 291 290 290 290 289 289 288
308 307 305 305 305 302 301 302 303 304 308 309 309 310 312 316 319 320 319 317 315 313 311 310 309 307 305 303 299 295 293 292 291 291 291 291 290 290 289 289 288 288 287
308 306 303 303 299 297 298 299 300 303 306 306 307 309 312 313 313 312 312 312 311 308 307 306 304 301 299 296 294 291 291 291 290 290 290 290 290 289 289 288 288 287 287
308 304 302 299 296 296 297 297 298 301 305 306 307 307 307 309 309 309 308 306 305 303 301 300 298 296 295 293 294 295 292 290 289 289 290 291 291 289 288 287 287 286 286
307 301 300 300 296 296 296 296 297 299 302 304 303 303 304 305 305 304 303 302 300 298 296 295 294 294 292 291 289 289 290 292 291 291 290 288 287 286 286 286 287 287 287
304 299 299 300 296 296 296 295 296 297 298 300 300 298 299 298 298 298 295 294 294 292 292 292 292 290 289 290 292 292 292 291 288 288 288 286 285 286 287 287 287 287 286
301 298 297 298 296 295 295 294 294 294 294 294 294 293 292 292 292 291 290 290 290 291 291 290 290 290 290 291 292 291 290 288 286 285 284 284 284 284 284 285 286 287 287
299 297 295 295 293 295 295 293 293 293 292 292 292 291 291 291 290 290 290 289 289 290 290 290 291 293 292 292 292 291 290 287 284 284 284 284 284 284 283 284 285 286 286
296 295 294 294 293 293 293 293 293 293 292 292 292 292 291 291 291 290 290 289 290 291 292 292 293 292 290 290 286 285 284 284 284 284 284 284 284 283 284 285 286 286 285
293 294 293 293 293 293 293 293 293 293 292 292 292 291 291 290 290 290 290 291 292 292 291 291 290 289 288 288 286 285 285 285 284 285 284 283 283 283 286 286 286 284 283
293 293 292 292 292 292 293 292 292 292 291 290 290 290 290 290 290 291 291 291 291 290 290 288 288 287 287 287 286 286 285 285 284 284 283 283 284 285 286 286 284 283 282
293 293 293 292 292 292 292 291 291 290 290 290 290 290 291 291 292 291 291 291 290 289 286 285 284 284 285 286 287 286 285 285 285 284 284 283 284 285 284 283 282 281 283
294 294 294 293 292 291 291 290 290 289 290 291 291 291 291 291 291 291 288 286 285 284 284 284 284 284 284 284 285 285 285 285 284 284 283 283 283 282 281 281 281 282 282
294 294 293 293 292 291 291 290 289 290 291 291 290 290 291 291 290 288 286 285 285 284 284 283 282 281 281 282 283 283 284 284 284 283 283 281 280 279 279 279 280 280 279
294 293 294 293 292 291 291 290 290 291 291 290 290 290 290 288 286 285 285 285 284 284 283 282 281 281 282 283 284 284 283 283 282 282 281 279 278 278 278 279 279 279 278
294 294 294 293 291 291 291 291 292 291 291 290 290 289 287 285 285 285 284 284 282 282 282 281 281 282 282 283 284 284 283 283 281 281 279 278 277 277 278 278 278 278 278
295 294 293 292 292 292 292 292 292 291 291 290 287 285 285 285 284 284 284 285 284 283 282 282 283 282 283 283 283 283 282 281 280 278 277 277 277 277 277 277 277 278 278

GFSMW_925_thetae_069.txt.gz
Theta_e
312 312 313 313 313 314 314 315 320 327 337 337 334 335 334 335 334 335 333 332 330 327 326 327 327 327 329 328 325 323 318 311 308 303 300 300 300 300 301 302 302 301 300
310 310 310 310 311 313 313 313 315 318 331 336 336 335 335 334 334 333 334 334 333 331 330 326 325 327 327 327 326 323 315 310 307 303 301 305 301 299 299 301 301 300 299
308 308 308 308 308 309 311 312 312 314 318 332 335 335 334 334 333 331 332 335 335 334 332 329 324 324 327 327 326 324 320 309 304 303 305 303 307 299 298 298 299 298 298
303 304 305 305 305 306 308 309 311 311 313 321 334 334 334 333 332 332 332 332 335 335 333 332 327 324 326 327 326 324 320 315 308 300 301 301 300 301 299 295 297 297 297
308 308 307 306 307 305 306 307 308 309 310 312 330 333 332 332 332 331 332 333 332 333 333 332 330 327 326 327 326 323 317 313 313 309 301 297 299 299 295 299 293 294 295
309 308 308 309 310 310 310 309 307 307 308 308 314 332 331 331 331 332 331 330 331 330 330 329 330 329 327 327 326 323 318 312 313 312 310 305 298 295 293 294 294 294 293
309 309 309 309 308 308 309 309 310 311 310 309 310 314 330 331 330 330 328 328 328 327 330 329 328 328 328 325 323 321 318 312 312 311 309 306 299 296 294 294 292 291 290
308 309 309 307 307 307 307 307 307 308 309 310 311 310 314 326 328 330 330 329 328 329 327 327 326 323 322 320 317 315 312 310 308 305 305 299 296 296 296 293 292 290 289
309 309 308 306 306 305 304 305 306 306 308 309 310 311 311 311 321 326 328 328 328 327 324 323 320 318 316 314 314 313 311 309 306 302 299 296 293 293 293 293 292 293 291
310 309 307 305 304 302 302 303 304 305 307 309 309 310 311 311 312 317 323 325 324 323 321 319 316 315 312 312 311 309 307 304 300 295 292 292 291 291 291 290 290 289 289
309 308 305 304 300 300 300 300 301 303 306 307 307 308 309 310 312 315 317 318 318 318 316 314 312 310 309 307 306 304 300 296 292 291 291 291 291 290 290 289 289 289 289
309 306 304 301 298 297 297 298 298 299 303 305 305 306 308 309 311 312 313 313 314 313 312 310 307 305 303 301 299 295 293 291 290 290 290 289 290 290 290 290 288 288 287
309 304 301 300 298 296 297 296 297 299 302 303 304 304 306 306 307 308 310 310 308 306 304 303 301 299 296 295 294 292 291 291 292 292 293 291 291 291 290 288 287 286 286
306 301 300 300 297 296 296 295 295 297 300 303 303 304 304 305 305 303 302 301 300 299 297 295 294 294 293 293 292 293 294 293 291 291 291 290 290 289 287 286 286 286 287
304 299 300 300 297 296 295 294 294 294 296 296 297 297 297 298 298 298 297 296 297 293 293 293 292 292 293 292 291 291 291 291 291 291 291 289 287 286 287 287 287 286 286
302 299 298 297 297 295 294 294 293 293 293 292 291 292 292 293 291 291 292 292 292 292 292 291 290 290 290 291 293 294 293 293 293 290 285 284 284 284 285 286 286 287 287
300 297 296 295 294 295 294 294 293 293 292 292 292 291 291 290 290 290 291 291 291 291 291 291 292 292 292 293 293 293 292 289 285 284 284 284 284 284 283 284 285 286 286
297 296 295 294 293 293 294 294 293 293 293 292 292 291 291 291 290 290 291 291 291 291 291 291 292 291 290 290 289 287 284 284 284 284 285 284 283 283 285 286 286 286 285
294 294 293 293 293 293 293 293 292 293 292 292 291 291 291 290 290 290 290 290 291 292 292 291 291 290 287 286 285 285 284 284 284 284 284 284 283 284 286 287 285 284 283
293 293 292 292 292 292 293 292 292 291 291 290 291 291 290 290 289 290 291 292 292 291 290 289 288 288 287 287 287 285 285 285 284 284 283 283 284 285 286 285 283 282 282
293 292 293 292 292 292 292 291 290 290 290 290 291 290 290 291 291 292 291 291 290 290 288 287 286 285 286 288 287 286 285 285 284 284 283 283 284 284 283 283 281 281 283
294 294 293 293 292 292 291 290 289 290 290 290 290 291 291 291 292 292 291 290 287 284 283 283 283 284 285 285 286 286 285 285 284 283 283 282 282 281 281 280 281 282 281
294 294 293 292 291 291 291 290 290 291 291 291 291 291 291 291 289 287 285 284 284 284 283 282 282 281 282 283 284 284 284 284 283 282 282 281 280 279 279 279 280 280 279
293 293 293 292 292 291 291 291 291 291 292 291 291 291 291 288 287 285 285 284 284 283 283 281 281 281 282 283 284 283 283 283 282 282 281 278 278 278 278 279 279 279 278
294 294 294 293 291 291 291 291 292 292 292 291 291 289 286 285 284 284 284 283 283 283 282 281 282 282 282 284 284 284 283 282 281 280 278 278 278 277 278 278 278 278 278
294 294 293 292 291 291 292 292 292 293 292 291 289 286 284 284 284 284 285 285 284 282 282 283 283 282 283 283 283 283 282 281 280 278 277 277 277 277 277 277 277 277 277

GFSMW_925_thetae_072.txt.gz
Theta_e
318 317 317 317 316 317 317 318 323 332 337 337 335 336 335 335 337 336 335 333 332 330 330 329 329 329 329 328 325 322 319 316 314 310 308 306 305 304 305 306 306 304 302
317 316 316 315 315 315 316 316 317 323 332 337 338 338 337 334 335 335 334 334 333 332 331 330 329 328 328 329 327 322 318 318 311 315 316 316 308 304 303 305 305 304 302
314 314 314 313 313 313 314 314 315 316 321 332 334 336 336 335 334 334 333 334 333 332 332 331 330 328 327 328 328 322 319 317 311 312 319 318 320 308 304 302 303 302 301
309 309 309 310 310 311 311 311 312 313 315 323 329 333 333 334 334 334 334 333 333 333 332 332 330 329 327 326 326 323 321 320 314 308 306 306 308 311 308 300 300 300 299
313 313 313 312 311 309 308 308 309 309 311 314 324 330 331 332 333 334 334 333 331 331 331 331 331 329 327 325 325 321 320 320 319 313 308 306 304 301 305 312 298 295 296
314 314 313 313 312 312 312 312 309 309 309 310 314 325 329 331 332 332 333 333 331 329 328 329 329 329 328 325 324 321 319 319 319 314 311 308 307 306 303 304 301 299 295
315 315 315 314 313 312 311 310 311 312 311 311 311 312 323 328 330 330 331 330 330 327 327 328 328 327 327 325 323 320 318 317 316 314 310 310 308 304 302 301 298 294 292
315 315 313 312 312 310 309 308 309 309 310 311 312 312 313 320 326 328 329 329 329 327 326 326 326 326 325 323 321 319 317 315 314 312 308 309 304 298 296 297 296 294 293
315 314 312 312 310 307 306 305 306 307 308 309 310 311 312 313 318 323 325 326 327 327 327 324 323 323 322 319 317 315 314 312 309 306 308 306 299 298 299 294 293 295 297
315 314 312 310 307 305 305 305 304 305 305 307 308 309 311 312 313 315 320 321 322 323 323 322 320 319 318 316 315 312 310 308 304 302 298 296 294 293 293 294 292 291 290
313 314 311 308 305 304 303 303 303 304 306 307 308 308 309 311 312 313 314 315 316 318 318 317 316 314 313 312 310 308 305 302 299 297 294 291 290 291 290 290 290 291 292
312 312 309 306 304 303 303 302 302 303 304 304 306 307 307 308 309 310 310 312 313 314 314 312 310 308 306 305 305 302 299 299 295 292 292 291 291 291 291 293 293 292 290
313 310 306 305 304 302 302 301 300 301 303 304 304 305 306 306 307 307 308 309 308 306 305 303 302 301 301 299 297 297 294 293 291 291 291 291 292 293 292 292 291 289 287
313 309 306 305 303 302 300 299 299 299 301 301 301 301 302 302 302 301 300 300 298 298 298 297 295 295 294 294 293 292 291 291 291 292 293 293 293 292 291 290 288 286 287
311 307 306 304 302 302 300 298 297 297 297 296 295 294 294 295 295 295 294 294 294 293 293 293 292 292 292 291 291 291 292 293 292 291 292 292 292 290 287 287 288 288 288
309 303 302 300 301 301 299 298 297 296 296 294 293 292 291 291 292 293 292 292 292 292 292 292 291 291 292 292 292 292 291 291 292 292 291 288 285 286 287 287 287 287 288
306 302 299 298 298 298 298 297 296 296 295 293 292 292 291 291 292 293 293 293 293 292 292 292 292 292 292 292 292 293 292 291 288 285 284 286 285 284 284 284 286 287 287
303 300 298 296 296 297 298 296 295 294 294 293 292 292 291 291 292 291 291 291 291 292 292 292 292 291 291 290 289 287 285 284 284 285 285 284 284 284 285 287 287 287 287
299 297 296 295 295 296 296 297 296 295 293 293 292 291 291 291 290 290 291 291 292 292 291 291 290 289 287 286 285 285 285 285 285 284 284 285 285 285 287 287 287 286 285
295 295 295 294 294 294 295 296 295 294 293 292 291 291 290 291 290 290 291 291 291 290 289 289 289 289 288 287 286 285 285 286 286 285 284 284 285 286 286 285 284 284 283
294 294 295 294 294 294 294 294 293 292 292 291 290 290 290 290 291 291 291 291 290 289 288 287 286 287 288 288 287 286 286 286 285 285 284 284 284 284 283 283 283 282 283
295 294 294 293 293 293 293 292 290 290 291 290 290 290 291 291 291 291 290 289 288 286 285 285 285 285 286 287 286 286 286 285 285 284 283 283 282 281 281 281 282 282 282
296 295 294 293 293 292 292 290 290 290 290 291 291 290 291 291 291 289 287 286 286 285 285 284 284 283 283 285 285 285 284 284 284 283 282 281 280 280 280 280 280 281 281
296 295 294 293 293 292 292 291 291 292 292 291 291 291 289 287 286 286 286 286 286 285 285 284 283 283 284 284 285 284 284 283 283 282 281 279 279 279 279 280 280 280 280
295 295 294 294 293 292 292 292 292 292 292 292 291 289 287 286 286 285 285 285 284 284 284 283 283 284 284 284 284 284 284 283 282 281 279 279 280 280 280 280 280 280 280
295 296 295 294 293 292 292 292 292 292 292 292 289 286 286 285 285 286 285 284 283 282 282 283 283 283 283 283 283 283 282 281 280 279 279 280 280 280 280 280 280 280 280

GFSMW_925_thetae_075.txt.gz
Theta_e
318 317 317 319 321 321 322 323 330 338 342 341 338 339 339 340 340 339 337 336 334 333 330 329 328 328 327 328 327 326 326 324 323 319 313 313 311 309 308 309 310 308 307
318 318 317 318 319 319 319 320 320 323 331 337 338 337 336 336 337 339 339 337 336 334 332 331 330 330 329 329 329 327 325 323 322 318 317 319 314 309 307 308 308 308 306
317 317 317 317 317 317 318 318 318 319 321 329 337 338 338 338 336 334 336 336 337 335 334 332 332 331 330 329 330 328 325 323 320 318 321 323 325 313 309 306 307 307 305
316 315 314 314 315 315 316 316 317 317 318 320 327 334 337 338 337 337 335 334 334 336 335 334 332 332 331 330 330 330 327 323 321 316 318 318 313 318 310 306 305 305 304
313 312 312 312 312 312 312 312 313 313 315 316 319 325 330 334 334 334 334 335 334 333 334 333 332 332 332 331 329 329 329 323 323 316 314 313 311 309 308 312 302 302 301
315 315 315 314 314 314 314 314 311 311 311 312 314 318 324 329 332 332 333 334 335 334 331 331 331 330 331 331 329 328 328 324 324 321 317 313 313 311 306 308 304 302 299
316 316 316 315 315 314 313 312 313 313 313 312 312 313 316 324 328 330 331 332 333 333 331 328 329 329 330 330 329 327 327 323 323 322 318 314 312 310 309 307 299 298 294
317 316 316 315 314 312 311 311 310 311 311 312 313 313 313 314 318 327 329 330 330 328 328 326 326 327 328 328 328 326 325 322 321 320 319 313 307 306 305 303 297 296 295
317 316 315 314 312 311 309 309 309 309 309 310 311 312 313 313 314 318 324 327 327 327 327 326 325 325 325 326 326 325 323 320 319 318 315 307 301 299 299 300 300 301 302
317 316 315 313 310 309 308 308 308 308 308 309 310 311 311 312 313 314 315 319 322 322 324 325 324 323 323 323 323 321 319 317 315 312 309 302 300 298 296 295 295 296 295
316 316 314 311 309 308 307 307 306 306 308 308 309 310 311 312 313 314 315 316 316 315 317 318 318 317 316 315 316 315 313 311 308 304 302 298 295 293 294 295 296 295 294
313 315 312 310 308 307 306 305 304 305 306 306 306 307 308 309 310 311 312 311 312 312 313 313 313 312 311 310 310 309 305 304 300 296 296 295 294 295 294 292 292 293 293
312 313 310 309 307 306 304 303 302 304 305 304 304 305 306 306 306 307 307 308 308 307 306 304 302 299 300 301 300 300 297 296 294 294 294 293 293 292 292 293 292 292 291
312 313 310 308 306 305 303 302 301 301 301 300 299 298 299 299 298 298 298 298 298 297 296 295 294 293 293 293 293 293 292 292 291 291 291 291 292 293 293 292 291 289 287
313 312 310 308 305 304 302 301 300 300 299 297 295 294 294 294 294 294 294 293 294 293 294 294 293 293 294 292 292 292 292 291 292 292 292 292 292 292 290 288 288 289 289
314 311 307 304 304 304 302 300 300 299 297 295 294 293 293 293 293 293 293 293 293 293 293 292 292 292 292 292 293 293 292 292 292 291 289 288 287 288 288 288 288 288 288
312 307 305 302 301 301 301 300 299 298 295 295 293 293 293 294 294 294 294 293 293 292 292 292 292 292 292 292 292 292 291 290 289 288 286 286 285 285 284 284 286 287 288
309 305 302 300 299 300 300 299 298 296 295 294 293 292 293 293 293 292 293 293 292 292 292 292 292 291 290 291 292 291 290 286 286 286 286 286 285 285 285 287 288 288 288
306 302 299 298 298 299 300 299 298 296 295 294 293 292 292 292 291 291 291 291 291 291 291 291 290 290 289 287 287 286 287 286 285 284 284 286 286 286 287 287 287 287 286
298 298 297 297 297 297 299 299 298 297 295 293 292 291 291 292 291 291 291 291 291 290 290 289 289 289 288 287 286 286 286 286 286 285 285 284 285 286 286 285 284 284 284
296 296 296 296 295 295 296 297 296 294 293 292 290 291 291 291 291 291 290 290 290 289 289 288 288 289 288 288 287 286 287 286 286 285 285 284 284 284 283 283 283 282 283
296 296 295 295 294 294 295 294 292 292 291 290 290 290 290 291 291 291 291 291 291 289 288 287 287 287 287 287 287 286 286 285 285 284 284 284 283 282 282 282 282 283 283
297 296 295 294 294 293 293 291 291 291 291 291 291 292 292 292 292 292 290 288 287 287 287 286 285 284 285 286 285 285 284 284 284 284 283 281 281 281 281 281 281 281 282
298 297 296 296 294 293 292 291 291 291 291 291 292 292 291 291 289 288 288 288 288 287 286 285 285 284 285 285 285 285 285 284 284 283 283 280 280 280 280 281 281 281 281
298 297 296 295 294 293 292 292 293 293 293 293 293 291 288 288 287 287 287 287 286 286 285 285 284 285 285 285 284 284 284 283 282 281 280 280 280 281 281 281 281 281 281
298 297 296 296 294 294 293 293 294 294 294 294 291 288 288 287 287 286 285 284 283 283 283 283 284 284 284 283 283 283 282 282 281 280 280 280 281 281 281 281 281 281 281

GFSMW_925_thetae_078.txt.gz
Theta_e
316 318 321 322 323 325 326 335 341 342 341 340 339 340 341 342 340 339 337 335 333 332 330 329 325 325 325 326 326 326 327 325 323 320 316 314 313 312 311 312 312 311 310
315 316 317 318 319 322 322 322 325 335 343 342 340 338 337 339 340 341 339 337 335 334 332 329 327 327 326 326 327 326 326 326 324 321 314 312 312 311 310 309 310 310 309
315 315 315 317 318 319 319 320 320 321 322 336 341 338 338 336 336 337 339 339 337 336 334 332 330 329 329 328 328 328 327 325 324 323 317 317 317 310 310 309 308 309 308
315 315 314 313 315 316 317 317 317 318 319 320 334 338 336 337 337 336 335 335 337 338 336 334 332 331 331 330 329 329 328 326 323 322 319 320 316 311 307 308 307 308 307
312 312 310 312 312 312 313 314 315 315 316 317 318 321 336 338 338 337 337 337 335 334 334 336 335 333 332 331 330 329 329 327 324 320 318 317 317 314 308 303 303 305 306
312 313 314 314 315 314 314 313 312 312 312 313 314 315 316 320 330 335 334 334 335 335 334 332 333 333 332 331 332 330 329 329 326 322 319 317 316 313 308 306 301 302 302
313 313 313 313 314 313 312 312 313 313 313 312 312 312 313 314 318 325 331 331 332 334 334 332 330 329 330 329 329 331 330 329 328 323 322 318 316 315 313 310 303 300 296
314 314 313 314 313 311 310 310 310 310 310 311 312 313 313 313 313 315 321 328 330 330 331 329 327 327 327 327 327 328 329 329 327 325 323 319 316 314 311 309 303 297 296
314 314 313 312 311 310 309 309 308 308 309 309 310 311 312 313 313 314 315 319 324 327 327 325 326 325 324 325 326 327 328 328 326 324 322 320 313 308 307 304 302 303 302
315 313 312 311 309 309 308 307 307 307 308 309 309 310 311 311 312 313 314 315 319 323 322 322 325 325 324 324 324 325 325 324 322 319 318 313 308 303 301 301 302 303 301
314 312 311 309 308 308 307 306 305 306 307 307 307 308 309 311 311 313 314 315 316 317 316 316 317 319 319 318 318 318 317 316 314 311 308 304 301 300 299 299 299 298 298
313 311 309 309 307 306 305 304 303 305 306 305 306 306 306 307 308 309 311 311 312 311 312 312 312 312 312 312 312 312 310 308 305 303 301 299 296 296 296 296 295 295 295
312 310 308 307 306 305 303 302 302 303 303 302 303 302 303 303 303 304 306 308 307 306 306 305 304 302 302 302 301 301 300 299 298 296 296 295 295 294 293 293 293 292 292
310 310 307 305 305 303 302 301 301 300 299 298 297 297 297 297 297 298 299 301 301 301 300 300 299 298 297 297 297 297 296 294 294 294 294 293 293 292 292 292 291 290 288
311 310 307 304 305 303 302 301 300 299 297 295 295 294 295 295 296 296 296 297 297 297 297 296 295 294 294 294 295 294 293 292 292 291 292 292 291 291 290 289 288 288 289
311 309 305 304 304 303 301 300 299 297 296 295 294 294 294 295 294 294 294 294 294 294 293 293 293 293 293 292 292 292 292 292 292 291 290 290 289 289 289 288 288 288 288
311 306 303 302 302 302 301 300 298 296 295 294 293 294 295 295 294 294 294 293 293 293 293 293 293 293 293 292 293 293 293 292 291 290 289 287 285 285 284 285 286 287 288
308 304 300 301 301 301 300 299 297 295 294 293 293 294 294 294 294 294 293 292 293 293 292 292 291 292 292 291 292 291 289 287 286 286 286 285 285 285 286 287 288 288 287
303 301 300 299 299 300 300 298 296 295 294 294 293 293 293 293 292 292 292 292 292 291 291 291 290 289 288 288 287 286 286 286 285 284 285 286 286 287 287 286 286 285 285
298 298 298 298 298 299 300 299 297 295 294 293 292 292 292 292 291 291 291 291 291 290 290 289 288 287 287 287 286 286 286 286 286 285 285 285 285 286 285 284 284 283 283
297 297 297 297 297 297 298 298 296 294 293 292 291 292 292 291 291 291 290 290 290 290 289 289 289 288 286 287 287 287 286 286 286 285 284 284 284 284 283 283 282 282 283
296 296 296 295 295 295 296 295 293 292 292 291 291 291 291 290 291 291 290 290 290 288 288 288 288 288 288 287 287 286 285 285 284 284 284 283 283 282 282 282 282 283 283
296 296 295 294 294 294 295 292 291 292 291 291 291 291 291 292 292 292 291 289 288 287 286 286 286 286 286 285 285 285 284 284 283 283 283 282 281 281 280 281 282 282 281
297 296 295 294 294 293 293 292 291 291 291 292 292 292 293 293 292 289 288 287 287 286 285 285 284 284 285 285 285 285 285 284 283 283 282 281 281 281 281 281 281 281 281
298 297 296 295 294 293 292 292 291 292 292 293 293 292 292 289 288 288 288 287 287 286 285 284 285 285 285 285 285 284 283 283 282 282 280 280 280 280 281 281 281 281 281
298 297 296 295 294 293 292 292 292 292 293 293 292 290 288 287 287 286 286 285 285 285 285 284 284 284 284 284 283 283 282 282 281 280 279 280 280 280 281 281 280 280 281

GFSMW_925_thetae_081.txt.gz
Theta_e
314 318 322 325 338 339 339 341 341 340 339 338 339 340 341 339 337 335 334 333 333 332 331 330 329 325 325 325 326 327 327 328 327 323 319 317 315 314 314 315 314 314 314
313 314 318 322 325 335 339 339 340 340 340 339 338 340 341 341 340 338 336 335 334 333 332 331 330 327 325 325 325 326 326 327 326 321 315 311 312 313 313 312 313 312 312
311 312 313 317 319 320 322 326 333 338 340 340 339 339 339 339 340 340 340 337 335 334 333 333 331 329 326 325 325 325 326 326 325 323 319 313 314 310 312 312 311 311 311
312 312 310 311 314 315 317 318 318 318 325 339 340 339 338 336 336 335 338 339 338 337 334 332 332 331 329 326 326 326 326 326 325 323 321 319 318 311 310 309 310 309 309
310 308 309 312 312 312 314 315 316 316 316 315 335 338 337 337 336 334 332 332 334 334 336 336 334 331 330 329 328 328 327 327 325 324 323 319 318 315 307 306 305 307 307
310 310 312 313 314 313 313 313 313 313 313 314 313 314 319 324 325 333 337 336 336 335 334 334 333 334 334 332 331 330 329 329 328 325 323 321 319 315 309 305 302 304 303
312 311 311 311 312 312 312 312 312 312 312 312 312 312 312 312 313 316 323 331 333 333 333 334 333 330 330 331 331 331 330 330 327 326 323 321 320 319 317 313 304 302 298
312 312 310 311 311 310 310 310 310 310 310 311 311 312 312 313 313 313 314 319 327 330 330 330 330 328 328 328 327 327 327 328 328 328 325 323 320 318 316 315 308 301 296
312 312 311 310 309 309 308 308 308 308 309 309 310 311 311 312 312 313 313 314 319 326 327 327 326 325 324 323 323 325 326 327 327 327 326 322 319 314 311 310 309 307 302
311 311 309 308 308 308 307 307 307 307 308 308 309 310 310 311 311 312 313 314 317 321 322 322 322 323 324 324 324 324 323 324 324 323 320 314 309 306 305 304 303 304 305
311 310 307 307 307 306 305 305 305 306 306 306 307 307 308 309 311 312 313 314 315 315 316 317 317 318 320 320 320 319 318 317 315 312 310 308 304 303 302 302 302 302 301
310 307 306 306 305 304 303 303 304 305 305 305 305 306 306 307 308 309 310 311 311 311 312 312 313 312 312 312 312 312 310 310 309 307 305 303 301 300 299 298 298 297 297
309 306 304 304 303 302 302 301 302 302 302 302 303 303 304 304 305 306 307 308 308 308 308 308 308 307 306 307 307 307 305 303 301 300 299 297 296 295 295 295 294 294 294
310 306 304 302 303 302 301 300 300 299 299 299 299 299 299 300 300 301 302 303 303 303 303 303 303 303 302 302 301 300 299 299 297 296 295 295 295 294 293 293 292 291 289
309 307 304 301 302 301 300 300 298 298 298 297 297 296 297 297 297 297 297 297 298 298 298 297 297 296 296 296 296 296 296 295 293 293 292 292 292 292 291 291 289 288 288
309 307 304 302 301 300 300 299 298 297 297 296 295 295 295 296 296 295 295 296 295 295 295 294 294 293 293 293 293 293 292 292 292 291 291 291 290 290 289 289 289 289 288
310 306 303 302 301 300 300 298 297 296 295 295 295 295 295 295 294 294 294 294 294 294 294 293 293 293 293 292 293 293 293 293 292 292 291 291 287 285 285 286 287 287 288
307 304 302 301 301 300 299 298 297 295 295 294 295 295 295 294 294 293 293 293 293 292 292 292 292 292 292 293 293 293 291 289 287 286 285 285 285 285 287 287 287 288 287
301 300 301 301 301 300 298 297 296 295 294 294 294 294 294 294 293 292 292 292 292 292 292 292 291 290 289 288 286 286 286 285 284 285 285 286 286 287 287 286 285 285 284
299 299 299 300 300 299 298 297 295 294 294 293 294 293 293 293 292 291 291 291 291 290 290 289 288 288 288 288 286 286 286 285 285 285 285 286 285 285 285 284 283 282 282
297 298 298 298 299 299 299 296 295 294 294 293 293 293 292 292 291 291 291 290 290 289 288 288 287 287 287 288 288 286 286 286 285 285 284 284 284 284 283 283 282 282 284
297 297 297 296 296 297 298 296 295 294 293 292 292 292 292 291 291 291 290 290 289 289 289 288 288 287 287 287 287 286 285 284 284 283 283 283 283 282 282 282 282 283 283
296 296 296 295 295 295 296 295 293 293 292 292 291 291 292 291 290 290 290 289 288 288 287 287 287 286 286 286 285 285 285 284 283 283 283 283 281 281 281 280 282 282 281
296 295 295 294 294 294 294 294 293 292 292 291 291 291 292 292 292 291 290 288 287 286 285 285 284 284 285 285 285 285 285 284 284 283 282 281 281 281 281 281 281 281 281
296 295 294 293 293 293 293 293 292 292 292 292 292 292 293 292 291 288 287 287 287 286 285 285 284 284 284 285 285 284 283 282 282 282 280 280 280 280 280 281 281 281 281
297 295 295 294 293 293 292 292 292 292 292 293 293 293 293 290 287 287 286 286 286 286 285 285 285 285 285 285 284 283 282 282 282 281 279 279 279 280 280 280 280 280 280

GFSMW_925_thetae_084.txt.gz
Theta_e
313 316 325 339 339 340 340 341 342 340 340 339 340 338 338 334 332 332 331 331 331 331 332 331 330 326 325 325 327 327 327 327 327 325 322 321 319 316 315 315 315 316 317
312 313 316 323 336 338 340 340 341 341 339 339 339 339 339 339 336 334 333 332 332 332 332 331 331 330 327 324 325 326 326 326 327 323 315 314 317 318 316 314 314 314 315
313 310 311 317 326 335 338 339 340 341 340 339 338 338 339 339 340 338 335 334 333 332 332 332 332 331 330 328 325 324 325 326 326 326 323 312 314 311 314 314 313 312 313
311 310 309 311 317 325 331 336 339 340 340 339 338 338 337 338 338 340 339 338 336 335 333 332 332 331 331 329 328 325 324 325 325 323 324 321 318 313 313 311 312 311 310
310 309 308 311 311 313 315 318 322 323 331 339 339 339 338 338 338 337 337 336 337 338 338 336 333 331 330 329 328 327 325 324 324 324 324 320 316 314 311 314 309 309 309
308 307 311 312 312 312 312 312 312 313 314 318 333 337 336 337 336 336 335 335 334 333 333 334 335 335 333 331 330 329 327 326 326 325 324 323 321 317 312 308 306 307 306
309 310 310 310 311 311 312 311 312 311 312 312 312 313 318 320 320 318 321 327 333 336 335 334 333 333 332 330 332 331 330 330 328 327 326 325 322 322 320 316 308 306 302
309 310 309 309 309 309 310 310 310 310 310 311 311 311 312 312 312 312 313 316 323 329 333 333 331 331 331 327 329 329 328 327 328 328 328 328 326 323 319 317 312 302 299
309 310 309 308 308 308 308 309 309 309 309 310 310 310 311 311 312 312 313 313 316 324 328 329 331 331 328 326 324 323 323 322 325 325 325 324 322 318 316 315 314 312 308
310 309 307 307 307 307 307 307 308 308 308 308 309 310 310 311 311 311 312 314 315 321 324 325 326 326 325 324 322 322 323 323 322 321 320 317 315 312 309 307 307 307 307
309 306 305 306 306 306 306 306 306 307 307 307 307 308 308 309 310 311 312 314 315 316 317 318 319 319 319 320 321 320 319 317 315 313 311 309 306 305 304 303 303 303 303
308 305 304 305 304 304 304 304 305 305 305 305 306 306 306 307 308 309 311 311 312 312 313 313 313 313 314 314 313 313 312 311 309 307 305 303 302 301 300 300 299 299 298
307 304 302 302 302 302 302 303 304 303 303 304 304 304 305 305 305 305 306 307 308 308 308 308 308 307 308 308 309 308 307 306 304 302 301 299 299 298 296 296 295 295 294
308 304 302 301 301 301 301 301 300 300 300 301 301 301 301 301 302 302 303 304 304 305 304 304 305 305 304 304 304 303 302 300 299 298 298 297 296 295 294 294 293 293 292
308 306 303 300 300 300 300 299 299 298 298 298 298 298 297 298 298 299 299 299 300 300 300 300 299 299 299 299 299 298 298 297 295 294 293 293 293 294 294 293 292 291 289
310 307 303 301 299 299 299 299 298 297 297 297 296 296 296 296 296 296 296 296 296 296 296 295 295 295 295 295 296 296 295 294 293 292 292 292 291 292 291 290 289 288 288
306 307 303 301 300 300 299 298 298 297 296 296 295 295 295 295 295 295 295 295 295 295 294 294 293 293 292 293 293 293 293 293 292 292 291 290 287 285 285 287 287 288 288
307 305 302 301 301 300 299 298 297 296 296 295 296 296 295 295 294 294 294 294 294 294 293 293 293 293 293 293 294 293 293 291 289 286 285 285 285 286 287 287 287 287 287
303 303 303 302 300 299 299 297 296 295 295 295 295 295 295 294 293 293 293 293 293 293 293 293 292 292 291 291 290 288 286 285 285 285 285 285 287 288 287 285 285 285 285
300 301 302 301 300 299 298 297 296 295 294 295 295 295 295 294 293 292 292 293 293 292 291 290 289 289 288 287 285 285 285 285 285 285 286 285 285 285 285 284 283 282 282
299 300 300 300 299 299 298 296 295 294 294 295 294 294 294 293 293 292 292 291 290 289 289 288 288 288 288 289 287 286 285 285 285 284 284 284 285 284 283 283 282 282 283
298 298 298 298 298 298 298 296 295 295 294 294 293 293 293 292 292 292 290 289 289 288 287 287 287 287 288 288 287 286 284 284 284 283 283 283 283 282 283 282 282 283 283
297 297 297 297 296 297 298 296 295 294 293 293 292 292 292 292 292 291 291 290 289 288 288 287 287 287 286 287 286 286 285 284 283 283 283 283 282 281 281 281 282 282 281
296 296 295 295 295 295 296 296 295 294 293 292 291 291 291 291 291 291 290 288 288 288 287 287 286 286 285 285 285 285 285 285 283 283 282 281 281 281 281 281 281 281 281
296 295 295 294 294 294 294 295 294 293 292 292 292 291 292 291 291 291 290 289 287 287 286 285 285 284 284 285 285 285 283 283 282 283 280 280 280 280 280 280 280 281 281
297 295 295 294 294 293 293 293 293 292 292 292 292 292 292 292 291 289 287 286 286 286 286 285 285 284 284 285 285 284 283 283 283 281 280 279 279 279 279 280 280 280 280

GFSMW_925_thetae_087.txt.gz
Theta_e
313 314 330 339 339 339 339 341 342 340 337 336 338 338 336 334 335 337 337 332 333 336 333 332 329 328 325 325 325 326 327 326 326 326 325 325 324 323 321 318 317 316 317
312 313 314 322 338 339 339 339 339 340 339 337 337 336 335 334 333 332 331 330 331 332 332 331 330 329 328 326 325 326 327 326 325 325 318 316 321 322 322 319 316 315 315
311 310 311 314 323 336 338 339 340 340 340 339 338 338 337 337 336 333 332 332 331 331 331 331 331 331 330 329 327 324 325 325 325 325 324 314 316 312 317 317 316 314 313
310 309 309 310 315 327 335 338 339 340 340 338 338 338 338 338 338 338 336 334 332 331 331 331 331 331 331 330 329 327 325 324 324 323 324 324 319 316 317 314 314 315 315
309 308 308 310 312 315 324 333 337 338 339 338 338 337 337 337 338 338 338 338 336 335 335 333 333 331 330 330 329 328 327 325 324 323 324 322 319 316 315 322 318 313 311
308 306 310 311 311 312 314 318 322 327 334 337 338 337 337 337 336 336 336 335 335 335 335 335 335 335 334 333 331 329 327 326 324 323 323 323 321 318 314 312 316 311 312
306 307 309 309 310 311 311 311 312 312 312 319 331 335 335 333 333 334 334 332 332 333 334 334 334 333 334 333 333 331 331 330 327 325 325 325 323 323 322 317 315 309 308
306 308 308 309 309 310 310 311 311 312 312 312 312 312 313 315 316 318 318 318 319 323 328 333 335 334 333 332 330 328 329 330 329 327 326 326 325 324 322 320 316 305 303
308 309 307 308 307 308 308 309 309 309 310 310 310 311 311 311 312 312 312 312 313 315 321 327 330 332 332 331 330 328 326 323 323 322 323 322 322 320 318 317 315 314 309
308 307 305 306 306 307 307 308 308 308 308 309 309 310 310 310 311 311 312 312 313 316 321 324 327 329 330 329 326 324 322 321 320 320 319 319 317 316 312 311 310 309 309
307 305 304 305 305 306 306 307 307 307 307 307 308 308 308 309 310 311 312 313 315 316 319 321 324 325 324 323 322 320 320 319 316 315 314 313 310 309 307 307 306 306 305
306 304 303 303 304 304 305 305 306 306 306 306 306 307 307 307 308 309 311 312 312 313 314 315 316 316 316 316 317 316 314 312 312 311 309 307 305 304 303 303 302 302 301
304 302 301 301 302 302 303 304 304 304 304 304 304 304 304 305 305 306 307 308 309 309 309 309 309 309 309 310 309 309 308 309 307 305 304 303 302 301 299 299 298 297 297
305 302 301 300 301 301 302 303 302 301 302 302 302 302 301 302 302 303 303 304 304 304 305 304 304 304 305 305 305 305 305 303 302 300 300 299 298 298 296 295 294 294 294
306 304 302 299 299 300 300 300 300 300 300 300 300 299 299 299 299 300 300 300 301 301 301 301 301 301 301 301 302 302 300 300 297 296 295 294 294 294 294 294 292 292 290
308 305 303 300 299 299 299 299 299 299 299 299 299 298 298 297 297 297 297 298 298 297 298 298 298 298 298 298 298 299 297 295 295 292 292 292 292 292 292 290 288 288 288
308 306 303 301 300 300 300 299 298 298 297 297 296 296 296 296 296 296 296 296 296 296 295 295 295 294 294 294 294 295 294 293 292 292 292 291 289 287 287 288 287 288 289
305 306 303 301 301 301 300 299 298 297 296 296 296 296 296 296 295 295 295 295 294 294 294 293 293 293 293 292 293 294 293 293 291 290 287 285 286 286 286 286 287 287 287
305 304 304 302 301 300 299 298 297 296 296 296 296 296 296 295 295 294 294 294 294 294 294 294 294 294 292 293 293 292 289 286 285 285 285 286 287 288 286 284 284 284 285
301 302 302 302 300 299 299 297 296 296 295 296 296 296 296 295 294 294 293 293 294 293 293 292 292 291 289 287 286 285 285 285 285 285 286 285 285 285 285 283 282 282 281
300 301 301 300 300 299 298 297 296 295 296 295 295 295 295 294 294 293 293 293 292 291 289 289 288 288 287 286 286 285 285 285 285 284 284 284 285 284 284 284 283 281 283
299 300 300 299 299 299 298 297 296 296 295 295 294 294 294 294 293 293 292 291 290 289 288 287 288 288 288 288 287 285 285 284 284 283 283 283 283 283 283 282 282 283 283
298 298 298 298 298 298 298 297 297 295 295 294 293 293 292 293 292 292 291 289 289 288 287 287 287 287 287 287 287 287 286 283 283 283 283 284 284 282 281 281 282 282 282
298 298 296 296 296 297 297 298 297 295 294 293 292 292 292 292 292 291 291 290 288 288 286 286 286 286 286 286 286 286 285 285 284 283 282 281 282 281 280 280 281 281 281
297 296 296 296 295 295 296 296 296 295 293 292 292 291 292 291 291 291 291 290 290 289 288 288 287 286 285 285 285 285 284 283 282 282 282 280 280 280 280 280 280 280 281
297 296 295 295 295 294 294 294 294 294 293 292 292 292 292 291 292 291 290 289 288 287 287 286 285 285 284 284 285 285 284 283 284 282 281 280 279 279 279 279 280 280 280

GFSMW_925_thetae_090.txt.gz
Theta_e
318 316 317 336 337 337 340 340 341 341 340 341 341 341 340 340 339 337 337 337 337 336 337 335 332 331 328 327 324 325 326 326 326 325 325 326 327 327 327 325 322 319 318
314 314 315 318 337 337 338 340 341 340 339 340 340 339 339 340 339 336 336 337 337 337 335 336 334 332 329 327 325 324 325 325 326 325 321 319 322 324 325 324 322 320 317
312 312 312 314 316 335 337 338 339 340 340 338 336 336 337 338 336 334 333 334 334 332 332 333 334 332 330 328 328 326 324 325 325 325 324 315 319 315 319 320 321 321 320
310 309 309 311 313 315 333 337 338 338 339 338 336 336 337 336 335 335 333 331 330 330 330 332 333 331 330 329 329 327 326 324 324 323 323 324 322 319 320 319 319 317 316
310 310 308 310 311 313 317 335 336 337 338 338 338 337 336 337 336 336 337 336 334 332 330 330 330 330 329 330 330 329 327 325 323 323 323 322 320 318 318 322 322 318 318
308 308 309 310 311 311 315 325 333 335 337 337 337 337 337 337 336 336 336 336 337 336 335 334 334 333 333 332 331 330 328 327 325 324 323 323 321 317 314 315 318 317 317
307 306 308 309 310 311 312 318 325 327 329 334 335 335 334 335 335 334 334 334 334 334 334 334 333 333 332 332 333 333 331 328 326 326 324 323 323 322 322 319 316 314 313
305 305 308 309 309 310 310 311 314 316 314 317 323 328 331 331 331 330 328 327 325 324 324 326 330 333 334 333 333 333 332 330 329 328 326 325 325 324 322 320 318 308 306
304 306 307 308 308 308 309 310 310 310 311 311 312 312 312 312 312 312 312 312 313 313 314 317 322 328 333 333 332 331 330 328 327 324 323 322 322 321 321 319 317 315 310
306 305 305 306 306 307 307 308 308 309 309 310 310 310 310 311 311 311 311 312 312 313 315 318 320 324 327 329 329 329 328 325 321 320 319 318 317 318 316 314 315 313 312
305 304 302 304 305 305 306 307 307 308 308 308 308 309 309 310 310 310 311 312 313 314 316 319 320 320 322 325 325 324 322 319 318 316 317 315 313 312 311 310 309 308 307
305 303 302 302 303 304 305 306 306 306 306 306 307 307 307 307 308 309 310 311 312 313 314 315 316 318 318 319 319 319 317 316 314 312 312 310 309 307 306 306 305 304 304
303 301 300 301 301 303 304 305 305 305 305 305 305 305 305 305 305 306 308 309 309 309 309 309 310 311 311 312 313 312 312 310 309 308 307 306 305 303 301 301 300 300 299
304 302 300 299 300 302 303 304 303 303 303 303 303 303 303 303 303 303 303 304 304 305 305 306 306 306 306 307 307 307 306 305 303 302 303 301 300 300 298 297 296 295 295
304 302 301 298 299 300 301 301 301 301 301 301 301 301 301 301 301 302 301 302 302 303 303 303 303 303 303 303 303 303 302 300 300 299 297 296 295 295 295 294 294 293 292
306 303 302 300 299 299 300 300 300 299 300 300 300 299 299 299 299 299 299 299 299 299 299 299 300 299 299 300 300 300 299 298 296 294 293 293 293 293 292 290 289 288 288
307 305 302 301 301 300 301 300 299 299 299 299 298 298 298 297 297 297 297 297 297 297 297 297 297 296 295 295 297 297 296 295 293 293 293 292 291 290 289 289 288 289 289
307 306 304 303 303 302 301 300 299 298 298 297 297 297 297 297 296 296 296 296 295 295 295 294 294 294 293 293 294 294 294 293 292 291 288 286 286 286 286 286 286 287 287
303 303 307 305 303 302 300 299 298 298 297 297 297 296 296 296 296 295 295 295 295 294 294 294 294 293 292 292 293 294 292 288 286 285 286 287 288 287 285 284 284 284 284
301 303 303 303 302 300 300 298 297 297 296 297 297 297 296 296 296 295 294 294 294 294 294 293 293 292 291 291 289 287 286 285 285 285 285 285 285 285 285 283 282 282 281
300 301 301 300 300 300 299 298 297 296 297 297 296 296 296 295 295 295 294 294 293 293 292 291 290 288 287 286 285 285 285 285 285 285 285 285 285 284 284 284 283 282 282
300 300 300 299 299 299 299 298 297 298 296 296 296 295 295 294 294 293 293 293 292 291 289 288 288 287 287 288 287 285 285 284 284 284 283 283 283 283 282 282 281 283 283
299 299 299 299 298 298 299 298 298 297 296 295 295 295 294 293 293 293 292 291 290 289 288 287 288 288 288 288 288 287 285 283 283 283 283 284 284 283 282 281 282 283 282
298 298 298 297 297 298 298 298 297 296 295 294 294 293 293 292 292 292 292 291 289 288 287 287 287 287 286 286 287 287 285 285 284 283 283 282 281 281 281 280 280 281 280
301 299 298 297 297 297 297 297 297 296 294 294 293 292 292 292 291 291 292 291 291 290 288 287 286 286 286 286 286 285 285 284 283 282 282 281 280 280 280 280 280 280 280
298 296 296 296 296 296 296 296 296 295 294 293 292 292 292 292 291 291 291 291 291 290 289 288 287 286 286 285 285 285 285 283 283 283 282 281 280 280 279 279 279 279 280

GFSMW_925_thetae_093.txt.gz
Theta_e
322 318 317 331 336 337 337 337 337 339 339 342 340 342 340 340 340 339 339 337 336 335 334 334 332 330 331 328 327 325 325 325 326 325 325 325 325 326 326 327 326 325 323
321 319 317 318 335 336 337 335 336 336 336 337 338 338 339 340 340 339 338 337 337 336 336 335 335 334 332 330 327 326 324 324 325 326 322 327 324 324 324 325 325 325 324
319 319 314 314 319 331 336 337 335 332 330 335 334 337 337 337 338 339 338 336 336 337 337 336 335 335 334 331 329 327 325 324 324 324 326 323 327 320 322 322 322 322 322
312 311 312 312 321 326 325 335 334 335 337 338 337 337 336 335 336 337 338 335 334 335 334 335 333 332 334 332 330 327 325 324 324 323 324 325 322 321 323 321 320 319 318
311 311 310 311 312 314 317 322 335 337 336 338 337 336 335 336 336 336 335 334 333 331 330 330 330 331 332 331 329 329 327 326 324 324 323 322 322 320 319 323 324 321 320
312 311 312 311 311 311 312 315 330 336 337 337 337 337 336 335 335 335 336 336 336 335 334 331 330 330 330 330 330 329 328 327 327 325 324 323 322 318 316 317 319 321 320
312 312 310 310 310 311 311 314 326 333 335 336 336 336 336 336 335 335 335 335 334 334 335 334 334 334 334 334 333 331 330 329 327 326 325 324 323 323 321 319 319 316 316
308 309 308 309 310 310 311 313 319 325 327 331 334 334 334 334 333 333 332 332 330 329 329 328 330 332 332 332 332 332 332 332 329 327 325 325 324 323 322 321 319 311 310
305 306 307 308 309 309 309 311 313 315 317 320 324 326 327 327 328 325 319 317 316 316 316 317 319 321 325 330 331 332 331 331 329 328 326 325 324 323 322 321 319 317 312
306 306 307 306 307 307 307 308 309 309 309 310 310 311 311 311 311 311 311 311 312 312 312 313 315 316 318 323 328 329 330 329 327 326 324 322 319 317 316 316 316 315 314
307 306 305 304 305 306 307 307 308 308 308 308 308 309 309 309 310 310 310 311 312 312 313 314 315 317 318 320 323 326 327 325 325 320 317 316 314 315 314 312 312 311 309
305 304 303 302 303 305 306 306 306 307 307 308 308 308 308 308 309 309 310 311 311 312 313 314 315 315 317 318 320 321 320 319 316 316 314 312 310 310 309 308 307 307 306
304 302 302 302 302 303 304 305 305 305 306 306 306 306 306 306 307 307 308 309 309 310 310 310 311 312 313 314 315 316 315 314 312 310 308 307 306 306 304 303 303 301 301
305 303 302 301 300 302 303 303 303 303 304 304 304 304 304 304 304 304 305 305 306 306 307 307 307 308 308 309 309 309 309 307 306 305 304 303 303 302 301 300 299 297 297
305 304 303 301 299 300 302 302 302 302 302 303 303 302 302 302 302 302 302 302 302 303 303 303 304 304 305 305 306 305 305 304 302 300 300 299 298 298 297 297 295 295 295
307 304 303 301 299 300 301 302 301 301 301 302 302 301 301 300 300 300 300 300 300 300 300 300 301 300 301 301 302 302 301 299 298 296 295 295 294 294 294 293 292 291 290
308 306 304 302 301 301 302 301 300 300 300 300 300 299 299 299 299 299 299 298 298 298 298 298 298 298 297 296 299 299 298 297 296 295 294 293 293 292 291 291 290 289 287
308 307 305 303 304 303 301 301 300 299 299 299 299 298 298 298 298 298 298 297 297 297 296 296 296 296 294 294 296 296 295 294 293 293 293 291 288 287 286 286 286 286 286
303 304 306 306 305 304 302 300 299 298 298 299 298 298 298 298 297 296 297 296 295 295 295 294 294 294 292 293 294 294 293 292 289 287 286 287 287 286 285 284 284 284 285
301 302 303 303 304 303 301 300 298 297 297 298 298 298 298 297 297 296 296 295 295 294 294 294 294 293 292 293 293 293 290 286 285 286 287 287 286 286 284 283 282 282 281
300 301 301 301 301 301 300 298 298 297 299 298 298 297 297 296 296 295 295 294 294 294 293 293 292 292 291 289 287 286 286 286 285 285 286 286 285 284 284 283 282 282 282
300 301 300 299 298 299 299 298 298 299 298 297 297 297 296 296 295 295 294 293 293 293 291 291 289 288 287 287 286 285 285 285 285 285 284 284 284 283 283 282 281 284 284
299 299 300 299 298 298 299 299 299 298 297 296 296 296 296 295 295 293 293 292 292 291 290 288 287 287 288 288 288 286 285 284 284 283 283 283 283 283 282 281 282 283 283
299 298 298 298 298 298 299 299 299 297 297 296 295 295 294 294 294 293 292 292 291 290 289 288 287 288 288 288 288 287 286 284 283 283 284 283 282 282 281 281 281 281 281
302 301 299 299 299 299 299 298 298 297 296 295 294 294 294 293 293 292 292 292 292 292 290 289 288 287 287 286 287 286 286 285 284 283 282 282 280 280 280 280 280 280 280
299 299 298 298 298 298 297 297 297 296 295 294 294 294 293 293 292 292 291 291 292 292 291 290 288 287 286 286 286 286 285 284 284 283 282 281 281 280 280 280 279 279 280

GFSMW_925_thetae_096.txt.gz
Theta_e
323 321 320 319 330 338 338 337 337 337 342 341 339 339 337 338 337 338 338 337 335 333 333 333 331 330 330 330 330 329 328 327 327 327 328 327 327 327 327 326 326 325 324
324 324 319 319 323 335 337 339 335 335 339 339 338 338 337 339 339 339 339 339 337 335 334 333 333 332 331 331 330 329 328 327 327 327 328 329 329 327 326 326 325 324 323
322 324 324 319 317 328 336 338 335 332 332 335 335 335 335 335 335 335 336 338 337 337 335 334 334 333 332 332 331 329 328 328 327 326 327 330 332 328 325 323 323 322 321
323 323 319 318 317 317 331 335 333 332 328 328 327 331 330 330 330 330 331 334 336 336 336 336 335 334 332 332 331 329 329 328 328 326 325 327 326 329 329 323 320 320 319
320 321 318 318 319 316 316 326 331 331 328 325 324 327 330 331 331 329 333 332 331 331 331 333 333 333 333 331 331 329 328 327 327 328 327 326 326 324 324 327 327 320 319
317 318 318 317 317 320 314 317 328 333 333 333 326 323 328 329 331 332 332 333 332 331 331 331 329 330 329 330 331 329 328 328 327 327 328 327 325 324 322 324 324 323 322
318 317 316 314 313 313 312 313 319 328 332 333 334 334 333 334 333 332 332 334 333 332 331 331 332 331 330 329 328 329 328 328 327 327 326 326 326 325 322 321 323 323 320
318 317 316 316 315 315 314 314 318 326 329 330 333 333 333 333 332 333 331 332 330 331 331 332 333 332 333 332 332 331 331 329 327 327 327 327 326 325 324 323 323 316 315
315 315 315 314 314 314 313 314 316 319 320 324 330 330 331 331 331 330 331 330 328 328 327 326 325 325 326 328 332 331 329 329 329 328 326 325 325 324 323 323 321 320 320
311 312 313 313 312 311 311 312 313 314 313 314 316 316 321 322 322 321 317 314 313 313 313 315 316 318 318 320 324 326 326 327 328 327 326 325 325 323 321 319 317 318 317
312 311 312 312 310 309 310 310 310 310 310 310 310 310 310 310 310 311 311 311 311 312 312 313 314 315 316 316 318 320 324 327 327 327 325 323 320 318 315 314 314 314 312
312 311 310 309 309 310 309 309 309 309 309 308 308 308 308 308 308 309 309 310 310 311 312 313 313 314 315 317 317 319 321 322 322 320 316 316 315 314 311 310 309 309 308
310 309 309 310 310 309 309 308 308 307 306 305 306 306 306 307 306 306 306 307 307 307 309 310 310 312 314 314 315 315 317 315 315 313 312 312 310 308 307 305 305 304 304
310 310 309 309 309 308 308 307 306 305 305 305 305 305 304 304 304 304 304 304 305 305 306 306 307 308 309 310 311 312 312 311 309 309 306 306 305 304 303 302 301 299 299
311 310 310 309 307 307 306 306 305 304 304 304 304 303 302 302 302 302 302 302 302 303 303 303 303 304 304 306 307 307 304 303 304 303 303 303 302 301 300 299 296 296 296
312 311 309 307 307 307 306 305 303 302 302 303 303 301 301 301 301 301 301 301 301 301 301 301 301 300 302 303 304 305 304 302 301 299 298 297 296 296 295 296 296 294 294
313 312 311 309 307 306 305 305 303 301 301 302 301 300 300 300 300 300 299 300 300 299 299 299 299 299 299 299 300 301 301 300 298 297 296 294 293 293 293 292 290 289 288
313 313 311 310 308 306 304 304 302 300 301 301 300 300 300 300 299 299 299 298 298 298 298 297 297 297 297 296 297 298 297 296 295 294 294 293 291 292 289 288 287 287 287
312 312 311 311 310 307 305 303 301 300 300 301 300 300 299 299 298 299 298 296 295 297 297 296 296 296 295 294 294 296 294 293 291 291 289 289 288 286 286 286 286 286 286
305 306 306 306 307 307 305 303 302 301 301 300 300 299 298 298 298 297 297 297 295 295 295 294 294 294 293 292 292 293 290 288 287 288 288 288 288 284 283 284 284 284 284
304 303 304 305 304 304 303 302 302 301 300 299 298 298 298 298 297 296 296 296 295 294 294 294 293 293 292 291 292 291 288 287 287 288 287 287 287 286 284 283 284 283 282
304 303 304 302 300 300 301 302 301 299 299 298 298 298 297 296 296 295 293 294 294 293 293 292 292 291 290 289 288 286 286 286 287 286 286 287 285 284 284 283 282 284 284
302 302 303 302 300 300 300 301 299 299 298 297 297 297 296 296 296 294 293 293 293 292 291 290 289 288 287 288 288 286 285 285 285 284 284 284 284 283 283 282 283 285 284
303 300 300 300 300 299 299 299 300 299 298 297 296 296 295 294 295 293 293 292 292 291 290 289 288 287 287 288 289 288 287 285 283 283 284 285 285 284 283 282 283 283 283
305 303 301 299 299 299 299 299 299 299 297 296 295 295 295 294 294 293 292 292 293 293 291 290 289 288 288 288 288 288 287 285 284 284 284 283 283 283 282 282 281 281 281
301 301 301 300 300 299 299 298 298 297 296 295 295 295 294 293 294 293 291 292 292 292 292 292 291 289 288 287 287 287 286 285 285 283 283 283 282 282 282 281 281 281 281

GFSMW_925_thetae_099.txt.gz
Theta_e
323 324 325 326 328 336 337 337 339 341 338 339 341 340 340 340 339 339 338 337 336 334 334 334 331 330 331 332 332 331 329 329 329 328 328 328 328 328 328 328 328 327 326
323 324 323 324 326 328 338 337 338 339 338 340 340 340 340 339 337 337 338 338 338 336 334 335 335 332 331 332 332 331 330 329 328 328 329 331 330 329 328 328 328 327 326
324 323 324 324 323 323 333 336 337 338 337 336 339 338 337 335 336 336 335 339 338 337 336 335 335 335 333 333 333 332 330 330 329 328 329 332 332 330 328 327 327 325 325
323 323 324 323 322 321 322 335 334 335 332 333 335 334 333 334 332 331 331 332 334 336 337 336 335 335 334 333 334 332 331 330 331 329 328 328 329 331 332 326 324 322 321
323 323 323 323 321 319 319 325 333 333 331 328 329 328 327 329 330 329 327 328 330 331 331 333 333 334 335 334 334 333 331 331 330 330 329 327 327 328 328 330 325 321 321
322 322 324 322 320 320 317 318 329 331 329 327 326 325 325 325 325 325 329 327 329 329 329 329 330 331 332 333 331 330 331 330 329 329 330 330 329 329 327 326 326 327 322
321 322 323 321 320 320 321 315 316 326 328 326 325 323 325 326 326 323 323 326 329 329 329 326 326 325 325 326 329 329 328 330 330 329 329 330 330 328 325 325 324 323 322
320 320 320 321 317 317 320 318 317 319 329 327 327 330 327 324 323 321 321 323 326 327 328 328 328 326 325 326 328 329 329 329 329 329 328 328 328 327 326 324 324 320 320
320 320 319 318 318 317 317 318 316 318 325 331 329 330 333 332 333 331 330 330 329 327 327 328 331 331 332 331 330 330 330 329 328 327 328 328 328 327 326 324 324 322 320
318 319 319 318 317 316 317 315 316 319 321 325 324 324 325 324 324 325 324 324 322 320 321 321 323 322 323 324 326 326 326 326 326 327 328 328 327 326 324 323 321 321 320
314 315 317 317 315 314 313 314 316 315 314 317 316 317 316 315 315 315 315 314 314 314 314 315 316 317 318 318 319 320 321 322 323 325 326 326 326 323 322 319 317 316 316
314 314 314 314 313 312 313 313 313 314 313 313 312 311 311 312 312 312 311 311 311 311 311 312 312 313 314 314 315 316 317 317 319 321 320 322 317 317 316 315 313 313 312
313 313 313 313 313 313 312 311 311 311 310 310 310 310 310 310 310 309 309 309 309 309 309 310 310 311 312 313 312 313 314 315 316 315 314 316 314 311 311 311 309 308 308
313 312 312 313 312 312 312 311 310 309 308 308 308 309 309 308 308 307 307 307 307 307 307 307 307 307 307 308 309 310 311 311 312 312 309 310 308 309 307 307 305 304 303
313 312 312 312 311 311 310 310 309 308 307 307 307 307 306 305 305 305 304 304 304 304 304 304 304 304 304 304 305 306 306 307 306 305 306 304 304 304 303 302 301 300 300
313 313 312 311 310 310 309 308 307 307 306 306 306 305 304 304 304 304 303 303 303 303 303 302 302 302 302 304 304 304 304 304 303 302 301 300 300 300 299 299 297 297 298
314 313 312 311 310 310 309 308 306 305 305 306 305 304 303 303 303 303 302 302 302 302 302 301 301 301 300 300 301 302 302 302 300 299 298 296 296 295 295 294 293 294 294
315 314 313 312 311 309 308 308 306 304 304 304 304 303 303 303 302 302 302 301 301 300 300 299 299 300 299 297 297 299 299 298 296 296 296 295 293 293 292 290 289 288 287
314 314 314 313 312 310 308 307 305 304 304 304 304 303 302 302 302 302 301 300 299 298 298 297 297 298 297 296 295 296 296 295 294 294 293 292 291 289 288 287 287 287 286
308 309 308 308 310 311 309 307 306 305 304 304 303 303 301 301 301 301 299 299 297 297 297 296 295 295 295 294 293 294 294 293 291 290 290 289 289 286 286 286 286 286 285
307 307 307 308 307 307 308 307 307 305 304 303 302 300 300 299 299 299 298 296 295 295 295 294 294 294 294 293 292 292 291 290 289 289 289 288 288 285 284 285 284 284 284
307 306 307 305 304 303 305 305 305 303 302 301 300 299 299 298 298 298 296 295 294 294 293 293 293 293 293 292 291 289 288 289 289 288 288 288 287 286 285 284 283 283 285
306 305 305 304 303 303 303 304 303 301 300 300 299 298 298 297 297 296 295 295 293 293 293 292 292 291 291 290 289 288 287 288 287 287 287 287 286 285 284 283 284 285 285
306 304 303 302 302 301 300 301 301 299 299 298 298 297 297 296 296 295 295 294 293 292 292 291 290 290 289 288 288 288 288 287 285 285 285 285 285 284 284 283 283 284 285
306 306 305 303 300 299 299 300 300 300 299 298 297 296 296 295 295 295 295 294 294 293 292 292 292 290 289 288 289 289 288 286 284 284 285 285 284 284 283 283 283 283 282
303 303 303 303 301 300 300 300 300 299 298 297 296 296 296 296 295 293 294 294 293 293 292 292 293 292 291 289 289 289 289 287 285 285 284 284 283 283 283 283 282 282 282

GFSMW_925_thetae_102.txt.gz
Theta_e
322 326 326 327 330 336 339 339 342 341 340 340 341 340 340 339 339 339 338 335 333 332 331 331 330 330 330 331 331 330 329 329 328 328 326 326 326 328 328 328 328 328 327
319 324 326 328 332 335 336 339 340 341 341 340 340 339 339 339 339 339 338 337 336 334 333 334 333 330 330 331 332 332 330 329 329 328 328 326 328 328 328 328 327 328 327
318 323 322 325 326 335 338 338 339 339 340 338 338 338 338 339 339 338 337 337 337 336 334 334 334 333 331 331 331 331 331 330 328 328 328 326 326 328 328 328 328 327 326
319 318 321 323 323 328 336 336 337 338 338 336 336 336 336 335 336 336 336 336 336 336 336 335 335 335 334 333 332 333 332 330 330 329 328 328 328 326 326 327 326 326 324
320 319 320 322 322 322 334 334 335 336 334 334 335 334 333 332 329 329 328 329 328 330 331 333 335 335 334 334 333 333 333 331 330 331 329 328 328 327 326 325 324 323 321
318 319 321 321 320 319 320 329 334 333 331 328 325 328 328 327 326 326 328 329 326 326 329 331 329 330 330 331 331 330 330 329 331 330 330 330 328 327 327 323 325 324 319
316 318 320 319 319 318 318 323 331 331 329 328 325 324 325 326 326 324 325 324 325 326 326 328 327 326 326 326 325 325 327 328 329 329 329 329 329 329 328 327 324 324 320
314 318 318 319 321 320 319 318 319 325 327 327 326 325 325 325 324 325 325 325 325 324 325 325 327 326 326 326 325 325 328 328 329 330 330 329 329 329 329 327 324 320 320
314 316 317 321 319 320 320 319 319 319 321 328 326 325 325 325 325 324 324 323 322 323 324 323 321 321 322 324 327 327 326 327 328 329 329 329 329 327 328 327 326 323 316
314 315 315 318 318 317 319 318 319 317 317 322 329 327 327 328 329 328 325 325 325 325 324 325 325 327 327 327 328 328 328 328 328 328 328 327 328 328 328 327 326 324 322
312 314 314 317 317 317 317 317 317 318 319 324 324 323 323 323 323 321 320 321 324 322 322 320 320 320 320 320 320 321 321 322 321 323 324 324 325 327 326 325 324 323 321
311 310 311 314 314 314 314 315 316 317 317 318 318 316 315 316 316 316 317 315 314 314 314 314 315 315 315 314 315 315 315 315 315 316 318 321 323 324 321 322 320 318 317
311 311 310 310 311 313 313 313 314 314 313 313 312 311 311 311 311 310 310 310 310 310 310 311 311 311 312 312 313 313 313 314 315 315 316 317 317 318 318 314 314 312 313
311 310 309 309 312 312 312 311 311 311 310 310 310 310 310 309 309 308 308 308 308 308 308 308 308 308 308 309 309 310 310 310 311 312 312 312 312 312 312 311 311 309 308
310 310 310 309 311 311 311 310 309 308 308 308 308 308 308 307 307 306 306 306 306 306 306 306 305 305 306 306 306 306 307 307 308 308 307 308 308 308 308 307 306 305 304
311 310 310 309 309 310 309 309 308 307 307 307 307 306 305 305 305 305 305 304 305 304 304 304 304 304 304 305 305 305 305 305 304 305 304 304 303 303 302 302 301 301 301
311 310 308 308 309 309 309 308 307 306 306 306 305 305 304 304 304 304 304 303 303 303 303 303 302 302 302 303 304 303 303 303 303 302 301 299 298 299 298 297 298 298 298
312 311 309 310 310 309 308 307 306 305 306 305 304 304 304 303 303 303 303 302 302 302 301 301 301 300 300 299 299 301 300 300 299 298 297 296 295 294 295 294 293 293 293
310 310 312 311 310 309 308 307 305 304 305 304 304 303 303 303 303 302 302 302 301 300 300 300 299 299 297 297 296 298 297 296 296 295 294 294 294 293 292 290 289 287 287
308 307 308 309 311 309 308 307 305 304 304 304 304 303 303 302 302 302 301 301 299 299 299 298 297 297 296 295 295 296 295 294 293 292 292 291 292 290 288 287 287 287 286
307 307 307 306 306 307 308 307 306 305 304 304 303 303 302 301 301 300 300 299 297 296 295 295 296 295 295 295 294 293 293 293 291 290 290 289 289 287 286 285 285 285 285
306 306 305 304 304 304 305 306 306 305 304 303 302 301 301 300 300 300 299 297 297 296 295 294 293 294 294 293 293 292 291 290 290 289 289 289 288 287 284 284 284 285 284
305 304 304 303 303 303 303 304 303 303 302 301 300 300 299 299 299 298 298 297 296 295 294 293 293 294 293 292 292 291 289 289 289 288 288 288 287 286 286 284 284 285 285
305 304 303 301 301 301 301 302 302 301 300 300 299 299 298 298 297 297 297 296 295 294 293 293 293 293 292 291 291 290 289 288 287 287 287 288 286 285 284 284 284 285 285
304 305 305 303 301 300 300 300 300 300 299 298 298 297 297 297 297 296 296 296 296 295 294 294 294 293 292 292 290 289 288 288 286 285 285 286 286 285 285 284 283 283 285
302 302 302 302 301 300 300 300 300 300 299 298 298 298 297 297 296 296 294 294 294 294 294 293 293 293 293 293 291 290 289 288 287 285 285 285 285 284 284 283 283 283 283

GFSMW_925_thetae_105.txt.gz
Theta_e
321 332 336 339 340 339 338 339 340 342 342 341 339 340 338 339 337 337 336 336 334 333 333 332 332 332 332 332 331 330 329 329 328 327 327 326 324 324 325 323 325 327 327
321 323 329 334 337 339 338 339 340 340 340 340 341 340 340 339 337 338 337 335 334 333 331 331 331 330 330 330 330 330 330 329 329 328 327 325 327 327 327 327 327 328 327
321 321 323 328 331 335 338 338 339 339 339 339 338 339 338 339 338 339 338 336 334 333 331 331 332 330 330 330 331 332 331 329 329 328 327 323 325 326 328 328 328 327 327
318 322 321 325 332 334 336 338 339 340 340 339 338 338 337 336 337 338 338 337 337 336 335 333 334 334 331 330 330 331 331 331 329 328 328 328 328 325 326 326 327 327 326
316 320 320 322 330 335 336 337 338 340 339 338 337 336 335 335 335 335 335 334 334 335 335 336 334 334 334 331 332 332 332 331 330 329 329 328 327 327 326 324 324 322 321
316 320 320 322 326 333 335 336 337 336 336 336 334 333 332 329 328 329 328 329 328 328 330 332 332 332 333 333 333 332 332 332 331 330 329 329 328 327 326 323 324 322 321
314 318 317 319 321 329 334 335 335 334 334 333 331 328 328 329 329 328 328 329 327 326 326 329 328 327 327 327 327 326 326 327 327 325 326 327 328 328 328 327 324 324 322
311 317 317 316 317 322 331 333 333 331 328 325 324 323 323 324 326 325 324 325 325 325 322 326 326 327 326 324 324 323 323 324 326 325 325 327 327 329 328 329 326 320 320
310 315 316 316 317 317 325 331 331 330 328 326 325 324 324 325 324 324 324 324 324 325 325 324 326 325 321 322 322 323 322 323 326 327 328 328 328 329 329 329 328 325 322
310 313 317 317 318 318 318 320 323 327 327 327 325 324 324 324 324 324 324 324 323 322 324 324 324 323 322 323 324 325 326 329 329 328 328 328 328 327 327 328 328 327 324
310 312 314 316 318 320 318 318 318 319 321 325 326 326 326 327 327 327 327 325 324 323 323 324 324 324 325 324 325 325 325 325 324 323 323 324 325 326 326 326 327 326 323
308 310 310 312 314 316 318 317 317 319 322 326 326 325 324 324 324 325 324 324 323 323 323 322 322 324 322 321 320 319 318 317 316 316 316 315 318 319 320 322 324 323 322
308 308 309 309 311 313 314 315 315 316 317 319 319 318 317 318 319 318 317 316 315 315 314 314 314 314 314 313 313 313 313 313 313 313 314 316 315 316 317 319 320 318 319
309 307 307 307 310 311 312 313 313 313 313 314 314 313 312 312 311 311 311 310 310 310 310 310 310 310 310 309 310 310 310 311 310 310 312 313 314 314 315 315 315 315 313
309 308 307 307 308 310 310 311 311 311 311 310 310 310 310 310 309 308 308 308 308 308 307 307 307 307 306 306 306 306 306 307 307 307 307 308 309 310 311 311 311 310 309
310 309 308 308 307 309 309 309 309 309 309 309 308 308 308 307 307 306 305 305 305 305 305 305 305 304 304 304 304 304 305 305 305 305 305 305 305 305 306 306 306 307 306
309 309 308 307 308 308 309 308 307 307 307 307 307 306 306 305 305 305 304 304 304 304 304 303 303 303 303 303 304 304 303 303 304 303 303 303 302 301 302 301 300 301 301
309 308 307 308 308 308 308 307 307 306 306 306 305 305 305 304 304 304 304 303 303 303 303 302 302 302 302 302 302 303 301 301 301 301 300 299 298 297 297 298 297 297 297
307 308 309 309 309 308 307 307 306 306 305 305 305 304 304 304 303 303 303 303 302 302 302 302 302 301 301 298 297 299 298 298 298 298 297 296 295 295 294 294 293 292 292
306 307 308 309 307 307 307 306 305 305 305 305 304 304 303 303 303 303 302 302 302 301 301 300 299 298 298 296 296 295 296 296 295 294 294 294 294 293 292 291 290 288 288
306 306 306 305 305 306 306 306 305 304 305 304 304 303 303 303 303 302 302 302 300 298 297 297 297 296 297 296 295 294 295 294 294 293 292 292 292 291 290 287 287 287 286
305 305 304 303 304 304 306 305 304 305 304 304 303 303 302 302 302 301 301 300 299 297 296 296 295 295 295 294 294 294 293 292 292 292 291 290 290 288 287 286 285 285 285
303 303 303 302 302 303 303 304 303 303 303 302 302 301 301 300 300 300 299 298 297 296 296 295 294 294 294 294 294 293 292 290 290 290 290 289 289 288 286 285 285 286 285
304 304 303 301 300 301 301 302 302 302 302 301 300 300 300 299 299 298 298 298 297 296 295 295 294 294 294 293 293 293 292 290 290 289 288 288 288 287 286 285 286 286 285
303 304 303 302 301 300 300 300 300 300 300 300 299 299 298 298 298 297 297 296 297 296 296 296 295 294 294 294 294 292 291 290 289 287 287 288 288 286 285 284 284 284 285
301 301 300 300 300 299 300 300 300 300 299 298 298 298 298 297 297 296 296 295 294 295 295 295 294 295 294 294 293 293 290 289 288 286 286 286 287 286 285 285 284 283 283

GFSMW_925_thetae_108.txt.gz
Theta_e
318 320 334 338 338 339 340 341 340 340 342 341 340 339 337 336 336 336 335 334 334 333 333 333 334 334 334 333 332 331 331 330 329 328 327 327 327 325 324 323 322 325 325
318 320 332 337 337 338 339 340 339 340 340 340 339 338 336 336 336 335 336 334 333 334 334 334 333 332 333 332 332 331 330 329 328 327 326 323 325 326 324 324 325 324 326
318 318 326 333 336 337 338 338 338 338 340 339 338 333 330 337 337 336 336 335 334 333 332 332 332 331 331 332 331 331 330 329 329 328 326 322 323 324 327 327 326 327 327
316 316 323 327 334 336 337 338 338 335 333 339 335 337 337 337 337 337 336 335 334 334 331 331 331 331 329 329 330 330 331 331 329 328 328 327 327 324 326 326 326 327 327
318 317 322 327 333 335 337 337 338 338 337 337 336 337 336 336 336 337 336 336 335 335 334 331 332 333 333 329 330 330 331 331 330 329 328 327 327 326 325 324 323 323 324
314 316 320 324 329 333 335 336 337 338 338 338 337 336 335 335 335 335 335 336 336 335 335 336 335 334 333 333 331 330 330 331 330 330 329 328 327 326 325 322 323 322 320
313 316 318 322 329 333 334 336 337 336 336 337 336 335 334 333 331 331 331 331 330 328 330 331 331 332 332 332 331 329 329 330 331 330 329 328 328 328 328 326 324 322 322
314 317 318 321 328 332 333 335 335 335 335 334 333 332 331 330 329 328 328 328 328 327 327 329 329 328 327 327 326 325 324 324 325 326 327 325 325 325 325 326 325 320 320
314 315 315 317 323 330 333 334 333 334 334 333 331 328 325 327 328 328 326 326 325 325 325 323 324 326 326 323 325 324 324 324 324 323 324 324 324 324 326 326 326 326 323
310 314 314 315 320 329 332 332 332 332 331 328 324 323 324 324 325 325 324 323 324 324 324 325 324 324 325 323 322 322 323 323 323 324 326 326 327 327 326 326 327 327 326
309 316 315 315 317 324 328 330 330 329 327 325 324 324 324 324 324 324 324 324 324 324 323 323 324 324 324 324 324 325 325 325 327 326 324 324 325 325 325 325 326 326 325
307 314 315 315 316 316 320 324 326 327 327 326 325 325 324 325 325 326 326 326 326 324 324 324 324 325 325 324 322 321 320 319 318 317 316 315 315 315 315 319 321 321 322
307 308 308 311 312 315 316 317 317 318 319 322 324 324 325 324 323 322 321 321 320 320 319 319 319 319 318 317 317 315 313 313 312 312 312 312 312 313 314 315 317 318 318
307 307 307 306 309 312 314 315 317 319 321 322 322 321 318 318 317 316 316 315 313 314 313 313 313 313 312 311 310 310 310 310 309 309 309 309 310 310 312 313 314 315 315
308 307 307 305 308 310 311 312 313 314 315 315 314 314 313 313 312 311 310 310 309 309 309 309 309 308 308 307 307 307 306 306 306 306 306 306 307 307 308 310 311 311 310
308 307 307 306 307 308 309 310 310 311 311 311 310 310 310 309 309 308 308 308 308 307 307 306 306 305 305 305 305 305 305 305 305 305 305 304 305 305 306 306 307 307 307
308 308 307 307 308 309 309 308 308 308 308 308 307 307 307 307 306 306 306 306 305 305 305 305 305 304 304 304 304 304 304 304 303 303 302 302 303 302 302 302 303 303 303
308 307 307 307 308 308 308 308 307 307 307 307 306 306 306 305 305 305 304 304 304 304 304 304 303 303 302 302 302 302 302 302 301 301 300 299 300 300 299 299 299 299 299
307 307 308 308 307 307 307 307 306 306 306 306 305 305 305 305 304 304 304 303 303 303 303 302 302 301 301 300 298 298 300 299 298 298 298 297 297 296 296 295 295 295 294
306 307 308 307 307 307 307 306 305 305 305 305 305 304 304 304 304 303 303 303 302 302 301 300 300 299 299 298 296 296 298 297 297 297 296 295 294 294 294 293 291 290 290
305 305 306 305 305 306 306 305 305 304 305 305 304 304 303 304 303 303 302 302 302 301 300 300 300 299 299 298 297 296 296 296 296 295 295 294 294 293 292 291 288 288 287
304 304 303 302 303 305 305 304 304 304 304 304 304 303 303 303 302 302 302 301 300 299 298 298 297 297 297 296 296 295 295 294 293 294 294 293 292 292 290 289 287 286 286
302 303 302 301 302 302 303 304 303 304 303 303 303 302 302 301 301 301 300 299 299 298 297 297 296 297 297 296 295 295 295 294 292 292 291 291 290 289 288 287 285 287 286
303 302 301 301 300 300 302 302 302 302 302 301 301 301 301 300 300 299 299 299 298 298 297 297 296 296 296 296 296 295 294 294 292 291 290 290 289 290 288 286 287 286 286
302 302 302 301 300 300 300 300 300 301 300 300 300 299 299 299 299 298 298 298 298 298 297 297 296 295 295 296 296 295 294 293 292 290 288 288 289 288 287 286 285 285 285
300 300 300 299 299 299 299 300 300 300 300 299 299 298 298 298 298 298 298 297 297 296 295 295 295 295 295 295 294 294 293 292 292 289 287 287 288 288 287 286 284 284 284

GFSMW_925_thetae_111.txt.gz
Theta_e
317 317 318 325 334 337 341 342 342 341 340 339 338 337 337 336 336 330 332 332 335 334 334 334 333 333 333 332 331 331 329 329 329 328 327 327 327 326 326 323 322 323 324
317 316 318 326 334 336 337 340 340 340 340 339 338 337 337 336 336 334 332 333 334 335 334 334 334 334 334 333 332 331 330 330 329 327 325 323 323 326 326 325 324 323 322
317 316 316 318 333 336 338 338 338 338 339 339 338 337 336 335 334 333 333 333 333 334 333 333 333 334 333 333 332 331 331 330 329 327 327 321 322 322 326 326 324 324 325
318 316 315 318 327 335 335 337 338 338 338 339 338 336 334 332 335 335 334 333 332 333 333 333 333 332 332 332 331 331 331 330 329 327 327 326 327 324 325 325 326 326 326
318 318 316 319 325 333 332 336 337 337 337 337 336 334 333 330 333 335 335 335 335 334 332 332 331 331 330 330 330 330 330 329 329 329 328 327 326 326 325 324 324 324 326
319 316 317 317 323 330 332 332 334 334 330 330 333 329 330 331 331 334 335 335 333 334 333 331 331 331 331 331 329 329 330 329 330 329 328 328 326 325 324 322 323 323 324
318 317 318 320 325 329 333 334 335 334 332 330 331 333 331 332 334 334 334 333 333 334 334 334 332 332 332 333 332 332 331 329 330 330 329 329 328 328 327 326 325 323 325
316 313 316 321 326 329 332 334 333 334 335 334 334 334 333 333 332 332 331 331 331 332 332 331 331 331 331 331 331 330 327 327 325 326 326 326 326 326 326 325 325 323 321
312 315 316 322 327 329 331 333 333 332 333 334 334 333 332 331 331 330 329 329 329 328 327 327 329 328 327 327 326 325 325 324 324 324 324 324 324 324 323 323 324 324 323
311 314 314 318 325 329 331 331 331 331 332 332 332 331 330 328 328 327 327 327 326 326 325 324 324 324 325 325 324 322 322 322 323 324 324 324 324 325 325 325 325 324 323
310 314 313 316 323 328 329 330 330 330 330 330 330 328 325 325 326 326 325 323 323 323 324 323 323 324 324 325 325 324 324 324 324 325 323 323 323 323 322 321 320 321 322
308 313 313 314 316 322 326 328 328 328 327 325 324 323 323 324 324 324 324 323 323 324 324 323 323 324 324 324 323 323 322 321 319 318 316 314 313 313 313 313 314 315 318
306 311 312 313 314 318 322 324 324 326 326 325 324 324 323 324 324 324 324 323 322 322 322 322 322 322 322 320 319 317 315 313 312 311 311 310 309 309 310 310 311 312 314
308 308 310 310 312 313 315 317 318 319 322 324 325 324 323 323 322 320 319 319 317 316 316 315 315 314 313 311 310 310 309 308 307 307 307 306 306 307 307 308 309 310 311
307 307 307 307 309 311 312 313 315 317 319 321 321 320 319 317 316 316 315 313 311 311 310 310 309 308 308 307 307 306 306 306 305 305 305 305 304 304 305 304 306 307 309
307 306 306 307 306 309 310 311 312 313 314 315 314 313 313 312 311 310 309 308 308 308 307 306 306 305 305 305 305 305 305 305 305 304 304 304 304 303 303 304 305 305 305
307 307 306 306 307 308 310 310 310 310 311 311 310 310 310 309 308 307 307 307 306 306 305 305 305 305 304 305 305 305 304 304 304 303 302 302 301 301 300 301 302 302 302
307 306 305 306 307 308 308 308 308 308 308 307 307 307 307 307 306 306 305 305 305 304 304 304 304 303 303 302 303 303 303 303 302 301 299 299 299 299 298 298 298 298 298
305 306 307 307 307 307 307 307 306 306 306 306 306 306 305 305 304 304 304 303 303 303 303 303 303 302 302 301 301 301 300 299 299 299 298 298 298 298 296 296 295 295 294
305 306 306 306 306 306 306 306 305 305 305 305 305 305 304 304 304 303 303 303 303 303 302 302 301 301 300 299 298 297 298 298 297 297 298 297 296 295 294 294 293 291 292
303 304 304 304 304 305 305 304 304 304 305 305 304 304 304 304 303 303 303 302 302 302 301 300 300 300 299 299 298 297 297 296 296 296 296 296 295 294 294 293 291 289 288
303 303 303 302 303 304 304 304 304 303 304 304 304 303 303 303 303 302 302 302 301 300 300 299 299 299 299 298 298 296 296 296 295 294 294 294 293 293 293 291 290 287 287
302 302 301 301 301 303 304 303 303 304 304 303 303 303 302 302 302 302 301 301 300 299 299 298 298 299 298 298 297 296 296 296 295 294 293 292 292 291 291 289 288 287 287
302 302 301 301 300 301 302 302 302 302 302 302 302 301 301 301 300 300 300 300 299 299 298 297 297 297 297 297 297 296 296 296 295 294 292 291 291 290 290 289 287 287 287
302 302 301 300 300 300 300 300 301 301 301 300 300 300 300 300 299 299 299 298 298 298 297 297 296 296 297 297 296 296 296 296 294 293 291 291 289 289 289 289 287 286 286
300 300 299 299 299 299 299 299 300 300 299 299 299 299 299 298 298 298 298 298 298 297 297 296 296 296 295 296 295 296 295 295 293 291 291 290 288 288 288 288 287 286 284

GFSMW_925_thetae_114.txt.gz
Theta_e
315 317 317 320 331 335 334 341 341 340 339 337 336 336 335 335 334 333 333 331 331 330 330 328 322 320 320 323 328 329 329 329 328 327 328 328 328 327 326 324 322 322 324
317 317 316 316 333 328 336 337 340 340 339 338 336 336 334 334 333 333 333 334 334 333 332 331 328 328 328 328 329 330 330 329 328 328 325 323 324 325 326 326 325 323 322
317 317 315 316 321 334 335 336 331 340 339 338 337 336 335 334 333 333 332 334 334 334 334 333 333 332 332 332 332 332 331 330 329 328 327 321 322 321 325 325 325 324 323
317 316 316 315 319 330 335 334 336 338 339 338 337 335 335 334 334 333 332 330 331 332 335 334 333 333 333 333 333 332 331 330 330 327 327 327 325 325 325 325 325 325 323
317 317 316 316 321 329 335 335 336 336 337 336 337 335 333 333 335 334 332 331 332 333 332 333 332 331 332 333 332 331 331 330 329 328 328 327 326 325 324 325 324 323 325
316 316 316 316 322 331 332 332 332 335 334 335 332 328 324 324 330 333 333 333 333 332 332 332 332 331 331 331 330 330 329 329 329 329 328 328 326 325 324 323 323 324 325
316 318 315 314 324 328 324 327 324 323 330 329 331 329 326 324 326 330 330 330 333 334 332 331 331 331 331 330 330 330 328 329 329 329 329 328 328 327 325 324 324 323 324
317 318 315 313 324 328 327 325 324 324 325 329 330 329 328 328 328 330 327 329 330 330 329 328 329 331 331 330 331 331 330 328 327 326 325 325 325 324 325 323 324 322 321
318 315 314 314 323 327 329 330 328 327 328 329 328 330 330 330 331 329 328 331 331 330 331 331 330 330 331 330 328 326 326 325 325 323 323 323 323 323 324 324 324 324 323
315 314 314 316 323 327 329 329 329 328 328 328 329 329 330 330 329 330 330 329 328 327 328 327 327 327 327 326 325 323 323 322 323 324 325 324 324 324 323 323 323 323 324
312 312 314 316 323 325 328 327 329 329 328 328 329 328 327 327 327 327 327 326 325 325 324 323 323 324 324 324 324 324 323 323 323 322 322 321 319 317 316 315 315 316 318
309 312 313 314 319 323 326 327 327 327 328 327 326 325 325 325 325 325 323 323 323 323 323 323 323 324 324 324 324 324 322 322 321 319 316 313 311 311 310 310 310 310 312
306 311 312 312 316 319 322 324 325 325 326 326 324 323 323 323 323 322 322 323 323 323 323 323 322 323 322 322 321 319 317 315 312 310 309 308 307 306 306 307 308 308 309
307 308 310 310 311 314 317 319 322 324 324 323 322 322 322 323 323 323 323 322 321 320 320 319 319 318 318 317 315 312 310 308 307 306 306 305 305 304 304 304 304 305 307
308 307 308 307 308 311 313 314 315 318 322 323 322 322 321 320 319 318 317 316 315 315 314 314 313 311 310 309 308 306 306 305 305 305 304 304 304 303 303 303 303 303 303
307 307 306 307 307 309 309 311 313 315 317 318 317 316 315 314 314 313 312 310 309 309 308 308 307 306 305 305 305 305 305 304 304 304 304 303 303 303 302 302 302 301 302
306 306 306 306 307 308 310 311 311 312 312 312 311 311 311 310 309 308 308 307 306 306 305 305 304 304 304 304 304 304 304 304 303 303 303 302 302 301 301 300 300 300 300
306 305 304 305 306 307 307 308 308 309 309 309 309 309 308 308 306 306 305 305 304 303 303 303 303 302 301 301 303 304 303 303 303 302 301 301 300 299 298 298 298 297 297
303 304 305 306 306 306 306 306 306 306 306 306 306 306 306 306 305 305 304 304 304 303 303 303 303 302 302 302 303 303 302 301 301 300 299 299 299 298 299 298 296 294 294
303 304 305 305 305 305 305 306 305 305 305 305 305 305 305 305 304 304 303 303 303 302 302 301 301 301 301 300 301 299 300 299 298 297 297 297 298 297 296 296 295 293 292
303 303 303 303 303 304 305 305 304 304 304 304 304 304 304 304 303 303 302 302 302 301 301 301 300 301 301 300 298 297 297 298 297 297 297 296 295 295 295 294 294 292 289
302 303 302 301 302 304 304 303 303 303 304 304 304 303 303 303 303 302 302 301 301 301 300 300 300 300 299 298 298 297 297 297 297 297 296 294 293 293 293 293 292 290 288
301 301 301 301 301 302 303 303 302 303 303 303 303 302 302 302 302 302 301 301 300 300 299 298 297 299 298 298 298 298 297 297 296 296 296 294 293 292 292 292 290 288 287
302 301 301 300 300 300 302 302 301 302 302 301 301 301 301 301 301 300 300 300 299 299 298 298 298 298 298 298 298 297 297 296 296 296 295 294 292 291 291 290 288 287 287
301 300 300 299 299 299 299 300 300 301 301 300 300 300 300 300 300 299 299 299 299 299 299 299 298 298 297 297 296 296 296 296 295 294 294 293 291 291 290 290 289 288 286
300 300 299 298 298 298 298 298 299 299 299 299 299 299 299 299 299 299 298 298 298 298 298 297 297 296 296 295 295 295 294 294 294 293 292 292 292 290 289 288 288 288 287

GFSMW_925_thetae_117.txt.gz
Theta_e
314 314 314 316 318 324 323 336 340 339 336 335 334 333 333 329 326 325 326 327 328 327 327 327 326 325 325 324 325 326 325 327 327 326 327 328 328 328 327 326 325 322 322
315 315 316 316 317 323 324 334 340 338 336 335 336 336 336 332 331 328 326 325 325 326 326 325 325 325 325 324 323 325 328 328 328 328 326 330 326 324 326 326 325 324 323
316 316 317 316 316 328 331 336 338 338 337 337 335 335 333 332 332 331 330 326 325 327 327 327 325 322 321 320 322 327 329 329 329 328 329 328 328 323 323 325 324 324 324
317 317 317 316 317 330 328 327 331 334 338 336 336 334 334 332 332 331 331 332 330 331 331 331 330 328 325 327 328 330 330 330 330 328 327 328 324 329 329 325 325 324 324
318 317 316 316 324 333 331 328 328 327 331 337 336 335 334 333 333 331 332 332 333 334 334 333 332 332 332 331 331 331 331 330 329 329 328 327 326 325 325 330 325 324 324
317 316 316 315 328 332 333 330 329 326 331 332 334 334 333 333 333 332 331 330 331 332 332 333 332 332 331 331 331 331 330 330 329 328 328 328 327 326 325 324 325 325 324
317 317 315 322 327 327 329 328 328 331 330 331 331 327 326 327 332 333 332 331 330 330 331 331 329 330 330 329 330 329 329 329 329 328 328 328 327 327 325 324 324 324 324
317 318 314 321 326 325 324 322 328 327 326 324 328 326 325 325 325 330 331 331 331 331 330 329 328 328 329 329 330 330 330 330 329 327 326 324 324 324 324 323 323 322 321
318 317 314 320 326 326 325 323 323 326 327 327 328 327 325 324 324 325 328 326 326 328 327 325 326 324 327 329 330 329 329 327 326 324 323 323 323 323 324 324 324 324 323
317 315 316 320 325 326 326 324 324 324 325 325 327 328 327 327 328 328 329 328 327 327 325 327 328 329 328 329 329 326 325 324 323 323 324 324 324 323 322 322 322 322 323
313 314 315 321 324 326 327 326 325 325 326 326 327 328 328 328 329 328 328 327 329 329 329 328 328 328 327 326 325 324 322 322 320 320 320 320 318 316 315 314 313 314 314
308 314 315 318 322 323 324 325 325 324 325 326 326 326 327 327 327 327 328 327 327 327 325 325 324 324 324 324 323 324 322 319 320 319 317 315 311 309 308 308 309 309 309
308 313 314 316 319 319 320 322 323 324 325 326 325 325 325 324 325 324 323 323 323 322 322 323 323 323 322 322 322 322 321 320 317 314 310 308 306 305 305 305 305 305 307
308 309 311 312 313 316 317 319 321 323 324 323 322 322 322 322 322 322 322 322 322 322 322 322 322 321 321 321 320 318 316 312 309 307 306 305 304 304 304 303 303 304 304
309 308 309 309 310 311 313 317 320 321 321 320 320 321 321 321 321 320 320 320 319 319 319 319 318 317 317 316 314 311 308 307 306 305 304 304 304 303 303 303 302 302 302
308 308 307 308 308 308 310 312 316 321 321 320 319 318 318 318 317 317 316 315 315 314 314 313 313 310 309 307 306 306 305 305 304 304 303 303 303 302 302 301 301 300 300
306 306 306 306 306 308 309 311 312 314 316 317 315 314 314 313 313 312 311 311 309 309 308 307 306 305 305 305 305 305 304 304 304 303 302 302 301 301 300 300 300 299 299
305 304 304 304 305 306 308 308 309 310 311 310 310 310 310 309 308 307 307 306 306 306 305 304 304 304 304 304 304 304 303 303 302 302 301 301 300 300 299 299 299 297 296
303 303 303 304 304 305 305 306 307 307 306 307 307 307 307 306 305 305 305 304 304 303 303 303 302 302 302 302 302 302 301 301 300 300 300 300 300 299 299 299 298 298 296
302 303 304 304 304 304 305 305 304 305 305 305 305 305 305 305 304 304 303 303 303 303 302 302 301 301 301 301 301 302 301 300 300 300 300 299 299 299 296 297 297 296 294
302 302 302 302 303 304 304 304 304 304 304 304 305 304 304 304 303 303 302 302 301 301 300 300 300 300 300 299 298 298 300 300 300 299 298 298 297 296 295 295 295 294 292
301 301 301 300 301 302 303 303 302 302 303 304 303 303 303 303 302 302 301 301 301 301 300 299 299 300 300 300 299 299 299 298 298 298 297 296 295 295 294 294 294 292 290
300 301 300 300 300 301 302 302 301 301 302 302 302 302 302 302 302 302 302 301 301 301 300 299 299 300 300 300 299 298 297 297 297 297 297 296 295 293 293 293 292 290 289
301 301 301 300 300 300 301 300 300 301 301 301 301 301 301 301 301 301 301 300 300 299 299 298 298 298 298 298 297 297 296 297 297 296 296 296 294 292 292 291 290 289 288
300 299 299 299 298 299 300 300 300 300 300 300 300 299 299 299 299 299 300 300 300 300 299 299 299 298 297 298 298 297 297 297 296 295 295 294 293 292 291 291 290 290 288
300 299 299 298 298 297 297 297 298 299 299 299 299 299 299 299 299 299 298 298 298 298 298 298 298 297 297 296 296 296 295 296 296 294 294 293 293 292 292 291 290 289 288